[[{"header":{"parameterUnit":"m.s-1","parameterCategory":1,"la1":30.6,"la2":29.2853,"lo1":-89.7004,"lo2":-87.6739,"dy":0.0162,"dx":0.0183,"nx":112,"ny":82,"refTime":"2023-04-12T06:00:00:Z","depth":0,"parameterNumber":2,"parameterNumberName":"U-component_of_WINDS"},"data":[0.0,0.0,0.0,0.0,0.0,0.0,0.0,0.0,0.0,0.0,0.0,0.0,0.0,0.0,0.0,0.0,0.0,0.0,0.0,0.0,0.0,0.0,0.0,0.0,0.0,0.0,0.0,0.0,0.0,0.0,0.0,0.0,0.0,0.0,0.0,0.0,0.0,0.0,0.0,0.0,0.0,0.0,0.0,0.0,0.0,0.0,0.0,0.0,0.0,0.0,0.0,0.0,0.0,0.0,0.0,0.0,0.0,0.0,0.0,0.0,0.0,0.0,0.0,0.0,0.0,0.0,0.0,0.0,0.0,0.0,0.0,0.0,0.0,0.0,0.0,0.0,0.0,0.0,0.0,0.0,0.0,0.0,0.0,0.0,0.0,0.0,0.0,0.0,0.0,0.0,-1.0971,-0.9575,-0.8185,-0.7228,-0.7139,-0.7139,-0.8097,-1.0438,0.0,0.0,0.0,0.0,0.0,0.0,0.0,0.0,0.0,0.0,0.0,0.0,0.0,0.0,0.0,0.0,0.0,0.0,0.0,0.0,0.0,0.0,0.0,0.0,0.0,0.0,0.0,0.0,0.0,0.0,0.0,0.0,0.0,0.0,0.0,0.0,0.0,0.0,0.0,0.0,0.0,0.0,0.0,0.0,0.0,0.0,0.0,0.0,0.0,0.0,0.0,0.0,0.0,0.0,0.0,0.0,0.0,0.0,0.0,0.0,0.0,0.0,0.0,0.0,0.0,0.0,0.0,0.0,0.0,0.0,0.0,0.0,0.0,0.0,0.0,0.0,0.0,0.0,0.0,0.0,0.0,0.0,0.0,0.0,0.0,0.0,0.0,0.0,0.0,0.0,0.0,0.0,0.0,0.0,0.0,0.0,0.0,0.0,0.0,0.0,0.0,0.0,0.0,0.0,-0.9749,-0.7749,-0.8013,-0.7929,-0.7139,-0.7139,-0.8097,-1.0438,0.0,0.0,0.0,0.0,0.0,0.0,0.0,0.0,0.0,0.0,0.0,0.0,0.0,0.0,0.0,0.0,0.0,0.0,0.0,0.0,0.0,0.0,0.0,0.0,0.0,0.0,0.0,0.0,0.0,0.0,0.0,0.0,0.0,0.0,0.0,0.0,0.0,0.0,0.0,0.0,0.0,0.0,0.0,0.0,0.0,0.0,0.0,0.0,0.0,0.0,0.0,0.0,0.0,0.0,0.0,0.0,0.0,0.0,0.0,0.0,0.0,0.0,0.0,0.0,0.0,0.0,0.0,0.0,0.0,0.0,0.0,0.0,0.0,0.0,0.0,0.0,0.0,0.0,0.0,0.0,0.0,0.0,0.0,0.0,0.0,0.0,0.0,0.0,0.0,0.0,0.0,0.0,0.0,0.0,0.0,0.0,0.0,0.0,0.0,0.0,0.0,0.0,0.0,-1.1666,-1.0448,-0.8794,-0.854,-0.8105,-0.7139,-0.7139,-0.7921,-0.9749,-1.0438,0.0,0.0,0.0,0.0,0.0,0.0,0.0,0.0,0.0,0.0,0.0,0.0,0.0,0.0,0.0,0.0,0.0,0.0,0.0,0.0,0.0,0.0,0.0,0.0,0.0,0.0,0.0,0.0,0.0,0.0,0.0,0.0,0.0,0.0,0.0,0.0,0.0,0.0,0.0,0.0,0.0,0.0,0.0,0.0,0.0,0.0,0.0,0.0,0.0,0.0,0.0,0.0,0.0,0.0,0.0,0.0,0.0,0.0,0.0,0.0,0.0,0.0,0.0,0.0,0.0,0.0,0.0,0.0,0.0,0.0,0.0,0.0,0.0,0.0,0.0,0.0,0.0,0.0,0.0,0.0,0.0,0.0,0.0,0.0,0.0,0.0,0.0,0.0,0.0,0.0,0.0,0.0,0.0,0.0,0.0,0.0,0.0,0.0,0.0,0.0,0.0,0.0,-1.2277,-1.1408,-1.0009,-0.9231,-0.8452,-0.7489,-0.7228,-0.7665,-0.9144,-1.0265,0.0,0.0,0.0,0.0,0.0,0.0,0.0,0.0,0.0,0.0,0.0,0.0,0.0,0.0,0.0,0.0,0.0,0.0,0.0,0.0,0.0,0.0,0.0,0.0,0.0,0.0,0.0,0.0,0.0,0.0,0.0,0.0,0.0,0.0,0.0,0.0,0.0,0.0,0.0,0.0,0.0,0.0,0.0,0.0,0.0,0.0,0.0,0.0,0.0,0.0,0.0,0.0,0.0,0.0,0.0,0.0,0.0,0.0,0.0,0.0,0.0,0.0,0.0,0.0,0.0,0.0,0.0,0.0,0.0,0.0,0.0,0.0,0.0,0.0,0.0,0.0,0.0,0.0,0.0,0.0,0.0,0.0,0.0,0.0,0.0,0.0,0.0,0.0,0.0,0.0,0.0,0.0,0.0,0.0,0.0,0.0,0.0,0.0,0.0,0.0,0.0,0.0,-1.2363,-1.1923,-1.0096,-0.9836,-0.9405,-0.8456,-0.7577,-0.7665,-0.9144,-1.0265,0.0,0.0,0.0,0.0,0.0,0.0,0.0,0.0,0.0,0.0,0.0,0.0,0.0,0.0,0.0,0.0,0.0,0.0,0.0,0.0,0.0,0.0,0.0,0.0,0.0,0.0,0.0,0.0,0.0,0.0,0.0,0.0,0.0,0.0,0.0,0.0,0.0,0.0,0.0,0.0,0.0,0.0,0.0,0.0,0.0,0.0,0.0,0.0,0.0,0.0,0.0,0.0,0.0,0.0,0.0,0.0,0.0,0.0,0.0,0.0,0.0,0.0,0.0,0.0,0.0,0.0,0.0,0.0,0.0,0.0,0.0,0.0,0.0,0.0,0.0,0.0,0.0,0.0,0.0,0.0,0.0,0.0,0.0,0.0,0.0,0.0,0.0,0.0,0.0,0.0,0.0,0.0,0.0,0.0,0.0,0.0,0.0,0.0,0.0,0.0,0.0,0.0,-1.2875,-1.218,-1.0096,-0.9923,-0.9314,-0.7753,-0.7316,-0.7665,-0.9144,0.0,0.0,0.0,0.0,0.0,0.0,0.0,0.0,0.0,0.0,0.0,0.0,0.0,0.0,0.0,0.0,0.0,0.0,0.0,0.0,0.0,0.0,0.0,0.0,0.0,0.0,0.0,0.0,0.0,0.0,0.0,0.0,0.0,0.0,0.0,0.0,0.0,0.0,0.0,0.0,0.0,0.0,0.0,0.0,0.0,0.0,0.0,0.0,0.0,0.0,0.0,0.0,0.0,0.0,0.0,0.0,0.0,0.0,0.0,0.0,0.0,0.0,0.0,0.0,0.0,0.0,0.0,0.0,0.0,0.0,0.0,0.0,0.0,0.0,0.0,0.0,0.0,0.0,0.0,0.0,0.0,0.0,0.0,0.0,0.0,0.0,0.0,0.0,0.0,0.0,0.0,0.0,0.0,0.0,0.0,0.0,0.0,0.0,0.0,0.0,0.0,0.0,-1.3483,-1.2966,-1.21,-1.0702,-1.0009,-0.9144,-0.7753,-0.7404,-0.7757,-0.9148,0.0,0.0,0.0,0.0,0.0,0.0,0.0,0.0,0.0,0.0,0.0,0.0,0.0,0.0,0.0,0.0,0.0,0.0,0.0,0.0,0.0,0.0,0.0,0.0,0.0,0.0,0.0,0.0,0.0,0.0,0.0,0.0,0.0,0.0,0.0,0.0,0.0,0.0,0.0,0.0,0.0,0.0,0.0,0.0,0.0,0.0,0.0,0.0,0.0,0.0,0.0,0.0,0.0,0.0,0.0,0.0,0.0,0.0,0.0,0.0,0.0,0.0,0.0,0.0,0.0,0.0,0.0,0.0,0.0,0.0,0.0,0.0,0.0,0.0,0.0,0.0,0.0,0.0,0.0,0.0,0.0,0.0,0.0,0.0,0.0,0.0,0.0,0.0,0.0,0.0,0.0,0.0,0.0,0.0,0.0,0.0,0.0,0.0,0.0,0.0,0.0,0.0,-1.3652,-1.2534,-1.1757,-1.1929,-1.0274,-0.9148,-0.889,-0.8025,-0.8025,0.0,0.0,0.0,0.0,0.0,0.0,0.0,0.0,0.0,0.0,0.0,0.0,0.0,0.0,0.0,0.0,0.0,0.0,0.0,0.0,0.0,0.0,0.0,0.0,0.0,0.0,0.0,0.0,0.0,0.0,0.0,0.0,0.0,0.0,0.0,0.0,0.0,0.0,0.0,0.0,0.0,0.0,0.0,0.0,0.0,0.0,0.0,0.0,0.0,0.0,0.0,0.0,0.0,0.0,0.0,0.0,0.0,0.0,0.0,0.0,0.0,0.0,0.0,0.0,0.0,0.0,0.0,0.0,0.0,0.0,0.0,0.0,0.0,0.0,0.0,0.0,0.0,0.0,0.0,0.0,0.0,0.0,0.0,0.0,0.0,0.0,0.0,0.0,0.0,0.0,0.0,0.0,0.0,0.0,0.0,0.0,0.0,0.0,0.0,0.0,0.0,0.0,0.0,-1.3652,-1.2534,-1.1499,-1.1068,-0.9763,-0.8719,-0.7937,-0.7496,-0.7757,-0.9148,0.0,0.0,0.0,0.0,0.0,0.0,0.0,0.0,0.0,0.0,0.0,0.0,0.0,0.0,0.0,0.0,0.0,0.0,0.0,0.0,0.0,0.0,0.0,0.0,0.0,0.0,0.0,0.0,0.0,0.0,0.0,0.0,0.0,0.0,0.0,0.0,0.0,0.0,0.0,0.0,0.0,0.0,0.0,0.0,0.0,0.0,0.0,0.0,0.0,0.0,0.0,0.0,0.0,0.0,0.0,0.0,0.0,0.0,0.0,0.0,0.0,0.0,0.0,0.0,0.0,0.0,0.0,0.0,0.0,0.0,0.0,0.0,0.0,0.0,0.0,0.0,0.0,0.0,0.0,0.0,0.0,0.0,0.0,0.0,0.0,0.0,0.0,0.0,0.0,0.0,0.0,0.0,0.0,0.0,0.0,0.0,0.0,0.0,0.0,0.0,0.0,0.0,-1.3652,-1.2186,-1.0982,-1.0636,-0.9331,-0.8201,-0.7591,-0.7323,-0.7757,-0.8973,0.0,0.0,0.0,0.0,0.0,0.0,0.0,0.0,0.0,0.0,0.0,0.0,0.0,0.0,0.0,0.0,0.0,0.0,0.0,0.0,0.0,0.0,0.0,0.0,0.0,0.0,0.0,0.0,0.0,0.0,0.0,0.0,0.0,0.0,0.0,0.0,0.0,0.0,0.0,0.0,0.0,0.0,0.0,0.0,0.0,0.0,0.0,0.0,0.0,0.0,0.0,0.0,0.0,0.0,0.0,0.0,0.0,0.0,0.0,0.0,0.0,0.0,0.0,0.0,0.0,0.0,0.0,0.0,0.0,0.0,0.0,0.0,0.0,0.0,0.0,0.0,0.0,0.0,0.0,0.0,0.0,0.0,0.0,0.0,0.0,0.0,0.0,0.0,0.0,0.0,0.0,0.0,0.0,0.0,0.0,0.0,0.0,0.0,0.0,0.0,0.0,0.0,-1.3652,-1.1671,-1.0376,-1.0549,-0.8986,-0.7768,-0.7507,-0.7507,-0.7852,-0.8719,0.0,0.0,0.0,0.0,0.0,0.0,0.0,0.0,0.0,0.0,0.0,0.0,0.0,0.0,0.0,0.0,0.0,0.0,0.0,0.0,0.0,0.0,0.0,0.0,0.0,0.0,0.0,0.0,0.0,0.0,0.0,0.0,0.0,0.0,0.0,0.0,0.0,0.0,0.0,0.0,0.0,0.0,0.0,0.0,0.0,0.0,0.0,0.0,0.0,0.0,0.0,0.0,0.0,0.0,0.0,0.0,0.0,0.0,0.0,0.0,-0.713,0.0,0.0,0.0,0.0,0.0,0.0,0.0,0.0,0.0,0.0,0.0,0.0,0.0,0.0,0.0,0.0,0.0,0.0,0.0,0.0,0.0,0.0,0.0,0.0,0.0,0.0,0.0,0.0,0.0,0.0,0.0,0.0,0.0,0.0,0.0,0.0,0.0,0.0,0.0,0.0,0.0,-1.3652,-1.1671,-1.0376,-1.0549,-0.8811,-0.7591,-0.7507,-0.7323,-0.7323,-0.7764,-0.8544,0.0,0.0,0.0,0.0,0.0,0.0,0.0,0.0,0.0,0.0,0.0,0.0,0.0,0.0,0.0,0.0,0.0,0.0,0.0,0.0,0.0,0.0,0.0,0.0,0.0,0.0,0.0,0.0,0.0,0.0,0.0,0.0,0.0,0.0,0.0,0.0,0.0,0.0,0.0,0.0,0.0,0.0,0.0,0.0,0.0,0.0,0.0,0.0,0.0,0.0,0.0,0.0,0.0,0.0,0.0,0.0,0.0,0.0,0.0,0.0,-0.7718,0.0,0.0,0.0,0.0,0.0,0.0,0.0,0.0,0.0,0.0,0.0,0.0,0.0,0.0,0.0,0.0,0.0,0.0,0.0,0.0,0.0,0.0,0.0,0.0,0.0,0.0,0.0,0.0,0.0,0.0,0.0,0.0,0.0,0.0,0.0,0.0,0.0,0.0,0.0,0.0,-1.2272,-1.0971,-0.9937,-0.9589,-0.8197,-0.7323,-0.7323,-0.7143,-0.7143,-0.7323,-0.8281,0.0,0.0,0.0,0.0,0.0,0.0,0.0,0.0,0.0,0.0,0.0,0.0,0.0,0.0,0.0,0.0,0.0,0.0,0.0,0.0,0.0,0.0,0.0,0.0,0.0,0.0,0.0,0.0,0.0,0.0,0.0,0.0,0.0,0.0,0.0,0.0,0.0,0.0,0.0,0.0,0.0,0.0,0.0,0.0,0.0,0.0,0.0,0.0,0.0,0.0,0.0,0.0,0.0,-0.7458,-0.8056,-0.9186,-0.8736,-0.8448,-0.8086,-0.7692,-0.753,-0.7632,-0.844,0.0,0.0,0.0,0.0,0.0,0.0,0.0,0.0,0.0,0.0,0.0,0.0,0.0,0.0,0.0,0.0,0.0,0.0,0.0,0.0,0.0,0.0,0.0,0.0,-1.1532,-1.1445,0.0,0.0,0.0,0.0,0.0,0.0,0.0,0.0,0.0,0.0,0.0,0.0,-1.0835,-1.0124,-0.9407,-0.8677,-0.7709,-0.717,-0.7143,-0.7139,-0.7139,-0.7139,-0.8013,-0.8987,0.0,0.0,0.0,0.0,0.0,0.0,0.0,0.0,0.0,0.0,0.0,0.0,0.0,0.0,0.0,0.0,0.0,0.0,0.0,0.0,0.0,0.0,0.0,0.0,0.0,0.0,0.0,0.0,0.0,0.0,0.0,0.0,-0.7539,-0.7733,0.0,0.0,0.0,0.0,0.0,0.0,0.0,0.0,0.0,0.0,0.0,0.0,0.0,-0.9595,-0.8638,-0.8066,-0.7724,-0.755,-0.6934,-0.6828,-0.7446,-0.7379,-0.7566,-0.783,-0.7807,0.0,-0.8089,-0.8269,0.0,0.0,0.0,0.0,0.0,0.0,0.0,0.0,0.0,0.0,0.0,0.0,0.0,0.0,0.0,0.0,0.0,0.0,0.0,0.0,0.0,0.0,-1.3315,-1.3225,-1.2575,-1.2021,0.0,-1.105,-1.0343,-1.0711,-1.0837,0.0,0.0,0.0,0.0,0.0,0.0,0.0,-1.075,-0.9736,-0.9034,-0.8783,-0.7967,-0.7285,-0.7149,-0.7139,-0.7139,-0.7139,-0.7228,-0.8173,-1.0144,-0.9989,0.0,0.0,0.0,0.0,0.0,0.0,0.0,0.0,0.0,0.0,0.0,0.0,0.0,0.0,0.0,0.0,0.0,0.0,0.0,0.0,0.0,0.0,0.0,0.0,0.0,0.0,0.0,0.0,0.0,-0.725,-0.7233,-0.6874,-0.8837,-1.0085,0.0,0.0,0.0,0.0,0.0,0.0,0.0,0.0,0.0,-0.8873,-0.8634,-0.8313,-0.7823,-0.7297,-0.7375,-0.7895,-0.7614,-0.7914,-0.8711,-0.8273,-0.8448,-0.8978,-0.8623,-0.8715,-0.9152,-0.8798,-0.9405,-1.0794,0.0,0.0,0.0,0.0,-1.3197,-1.2601,-1.2351,-1.2009,0.0,-1.2272,0.0,0.0,0.0,0.0,0.0,0.0,0.0,0.0,0.0,0.0,0.0,-1.2859,-1.1935,-1.1134,-1.0693,-0.9626,-0.9189,0.0,-1.0274,-1.0274,-1.1466,0.0,0.0,0.0,0.0,-1.0463,-0.9262,-0.9076,-0.8765,-0.8144,-0.7773,-0.7438,-0.7282,-0.7272,-0.741,-0.7848,-0.836,-0.9318,-1.0799,-1.1384,-1.2032,0.0,0.0,0.0,0.0,0.0,0.0,0.0,0.0,0.0,0.0,0.0,0.0,0.0,0.0,0.0,0.0,0.0,0.0,0.0,0.0,0.0,0.0,0.0,0.0,0.0,0.0,0.0,0.0,-0.7488,-0.6878,-0.63,-0.8223,-0.9372,0.0,0.0,0.0,0.0,0.0,0.0,-0.9488,-0.9285,-0.8908,-0.8425,-0.7997,-0.7741,-0.7823,-0.7505,-0.7738,-0.8619,-0.8619,-0.9152,-0.9951,-0.9419,-0.9506,-0.9951,-0.9423,-0.9506,-0.9951,-0.9419,-0.9589,-1.0274,-1.0977,-1.166,-1.2248,-1.2504,-1.2174,-1.1763,-1.1916,-1.1679,-1.1342,-1.2018,0.0,-1.2872,-1.3231,0.0,0.0,0.0,0.0,-1.3713,-1.3713,-1.3713,-1.343,-1.2483,-1.1641,-1.0937,-1.0045,-0.9022,-0.8601,0.0,-0.9395,-0.93,-1.0336,0.0,0.0,0.0,0.0,-0.9588,-0.8087,-0.8365,-0.8441,-0.7753,-0.7655,-0.7594,-0.7444,-0.7394,-0.7771,-0.8537,-0.9174,-1.0101,-1.1235,-1.2186,-1.2668,-1.2566,0.0,0.0,0.0,0.0,0.0,0.0,0.0,0.0,0.0,0.0,0.0,0.0,0.0,0.0,0.0,0.0,0.0,0.0,0.0,0.0,0.0,0.0,0.0,0.0,0.0,0.0,0.0,0.0,0.0,-0.7103,-0.8093,0.0,0.0,0.0,0.0,-1.0162,-0.9582,-0.9222,-0.9222,-0.8677,-0.8442,-0.8611,-0.897,-0.9327,-0.9501,-0.968,-0.9864,-0.9951,-0.9951,-0.9951,-1.0038,-0.9951,-0.9951,-1.0038,-0.9951,-0.9951,-1.0038,-0.9951,-0.9951,-1.012,-1.0982,-1.0809,-1.0207,-1.1063,-1.0809,-1.0241,-1.0805,-1.1059,-1.1184,-1.2394,-1.3279,-1.387,-1.3863,-1.4051,0.0,0.0,-1.4256,-1.4256,-1.4256,-1.4256,-1.3962,-1.2887,-1.2598,-1.2308,-1.1346,-1.028,-0.9201,0.0,-0.8113,-0.8506,-0.9776,0.0,-0.8898,-0.9874,-0.919,-0.8407,-0.8018,-0.8018,-0.796,-0.7818,-0.7801,-0.7743,-0.76,-0.7455,-0.7822,-0.8717,-0.8641,-0.9414,-1.1235,-1.1322,-1.181,-1.2566,-1.2643,0.0,0.0,0.0,0.0,0.0,0.0,0.0,0.0,0.0,0.0,0.0,0.0,0.0,0.0,0.0,0.0,0.0,0.0,0.0,0.0,0.0,0.0,0.0,0.0,0.0,0.0,0.0,0.0,-0.7407,-0.8276,0.0,-0.8208,-0.9011,-0.9365,-0.8801,-0.8665,-0.869,-0.8774,-0.8704,-0.881,-0.9065,-0.9309,-0.9515,-0.9602,-0.9864,-1.0022,-1.0159,-1.0159,-1.0225,-1.0353,-1.0353,-1.0353,-1.0353,-1.0353,-1.0353,-1.0353,-1.0353,-1.0192,-1.0038,-1.0381,-1.0299,-1.0057,-1.0455,-1.0686,-1.0721,-1.1387,-1.1828,-1.2326,-1.3216,-1.3641,-1.3936,-1.4111,-1.422,-1.4298,-1.4298,-1.4298,-1.4298,-1.4298,-1.4298,-1.4196,-1.3806,-1.3216,-1.2436,-1.1463,-1.0391,-0.9316,-0.8237,-0.8038,-0.8137,-0.8627,-0.8432,-0.8233,-0.8627,-0.8432,-0.8137,-0.8038,-0.8038,-0.8018,-0.7963,-0.796,-0.7896,-0.7746,-0.8153,-0.875,-0.9629,-1.005,-1.089,-1.2186,-1.2186,-1.2316,-1.265,-1.265,-1.2689,0.0,0.0,0.0,0.0,0.0,0.0,0.0,0.0,0.0,0.0,0.0,0.0,0.0,0.0,0.0,0.0,0.0,0.0,0.0,0.0,0.0,0.0,0.0,0.0,0.0,0.0,-0.7344,-0.7577,-0.8199,-0.8475,-0.7926,-0.8492,-0.8687,-0.8105,-0.828,-0.8467,-0.8549,-0.8757,-0.9024,-0.9354,-0.9619,-0.9739,-0.9897,-1.0075,-1.0234,-1.0371,-1.0371,-1.0442,-1.0575,-1.0575,-1.0575,-1.0575,-1.0575,-1.0575,-1.0575,-1.0575,-1.0409,-1.0159,-1.0159,-1.0159,-1.0178,-1.0319,-1.0734,-1.1217,-1.2081,-1.2772,-1.3432,-1.3884,-1.4039,-1.4069,-1.4244,-1.4298,-1.4298,-1.4298,-1.4364,-1.4437,-1.4437,-1.4503,-1.4472,-1.4074,-1.3406,-1.2552,-1.157,-1.0435,-0.941,-0.8726,-0.8237,-0.8038,-0.8038,-0.8038,-0.8038,-0.8038,-0.8038,-0.8038,-0.8038,-0.8038,-0.8038,-0.8038,-0.8038,-0.8096,-0.838,-0.8508,-0.9177,-1.0724,-1.0863,-1.1494,-1.2625,-1.279,-1.279,-1.279,-1.279,-1.2831,-1.2896,0.0,0.0,0.0,0.0,0.0,0.0,0.0,0.0,0.0,0.0,0.0,0.0,0.0,0.0,0.0,0.0,0.0,0.0,0.0,0.0,0.0,0.0,0.0,-0.8588,-0.7952,-0.7517,-0.7768,-0.7918,-0.802,-0.802,-0.8191,-0.83,-0.83,-0.8471,-0.8576,-0.8664,-0.884,-0.9186,-0.9633,-0.9827,-1.0104,-1.057,-1.0575,-1.0575,-1.0584,-1.0584,-1.0584,-1.0594,-1.0594,-1.0594,-1.0594,-1.0594,-1.0594,-1.0594,-1.0594,-1.0594,-1.0686,-1.0579,-1.0575,-1.0667,-1.0672,-1.0959,-1.1641,-1.2797,-1.3702,-1.4298,-1.4298,-1.4304,-1.431,-1.431,-1.4316,-1.4322,-1.4322,-1.4521,-1.4733,-1.4733,-1.492,-1.4802,-1.3766,-1.3366,-1.2888,-1.1788,-1.0635,-0.962,-0.9616,-0.8733,-0.8045,-0.8038,-0.8038,-0.8038,-0.8038,-0.8038,0.0,-0.8038,-0.8038,-0.8038,-0.8038,-0.8038,-0.8432,-0.9509,-0.8575,-0.9072,-1.1773,-1.0905,-1.1035,-1.2625,-1.2966,-1.3052,-1.3052,-1.3137,-1.2921,-1.2655,0.0,0.0,0.0,0.0,0.0,0.0,0.0,0.0,0.0,0.0,0.0,0.0,0.0,0.0,0.0,0.0,0.0,0.0,0.0,0.0,0.0,-0.8453,-0.7473,-0.7695,-0.7668,-0.7698,-0.7943,-0.8101,-0.8215,-0.8215,-0.8381,-0.8491,-0.8491,-0.8649,-0.8931,-0.9285,-0.9509,-0.9793,-1.0301,-1.0398,-1.0426,-1.0575,-1.0575,-1.065,-1.0806,-1.0806,-1.0882,-1.1023,-1.1023,-1.1023,-1.1023,-1.1023,-1.1023,-1.1023,-1.1023,-1.1216,-1.1571,-1.088,-1.0852,-1.1241,-1.1313,-1.2041,-1.3054,-1.3784,-1.4142,-1.4298,-1.4298,-1.4437,-1.46,-1.46,-1.4733,-1.4883,-1.4883,-1.4944,-1.4998,-1.4998,-1.5052,-1.5005,-1.4695,-1.4636,-1.4066,-1.2118,-1.1457,-1.0667,-0.903,-0.8407,-0.817,-0.8058,-0.8038,-0.8038,-0.8038,-0.8038,0.0,-0.8038,-0.8038,-0.8038,-0.8233,-0.8333,-0.8726,-0.9801,-1.0118,-1.0778,-1.1865,-1.2176,-1.2458,-1.2717,-1.279,-1.279,-1.279,-1.2966,-1.3014,0.0,0.0,0.0,0.0,0.0,0.0,0.0,0.0,0.0,0.0,0.0,0.0,0.0,0.0,0.0,0.0,0.0,0.0,0.0,0.0,0.0,0.0,-0.8164,-0.7427,-0.7581,-0.7737,-0.7883,-0.813,-0.8292,-0.8434,-0.8503,-0.8609,-0.8706,-0.8783,-0.8972,-0.9209,-0.9574,-0.9864,-1.0152,-1.0519,-1.0707,-1.0749,-1.083,-1.0924,-1.1033,-1.1156,-1.1241,-1.134,-1.1458,-1.1458,-1.1458,0.0,-1.1458,-1.1458,-1.1453,-1.1759,-1.2059,0.0,0.0,0.0,0.0,0.0,-1.3022,-1.3551,-1.4243,-1.4473,-1.4491,-1.46,-1.4745,-1.4877,-1.4877,-1.4986,-1.5107,-1.5107,-1.5185,-1.527,-1.527,-1.5354,-1.5439,-1.5439,-1.5354,-1.4745,-1.307,-1.2166,-1.1245,-0.9396,-0.8614,0.0,-0.815,-0.8082,-0.8038,-0.8038,-0.8038,-0.8038,-0.8038,-0.8038,-0.8233,-0.8825,-0.892,-0.9509,-1.0974,-1.1158,0.0,0.0,0.0,-1.2662,-1.2894,-1.2881,0.0,0.0,0.0,-1.3052,-1.2966,0.0,0.0,0.0,-1.4839,-1.5586,0.0,0.0,0.0,0.0,0.0,0.0,0.0,0.0,0.0,0.0,0.0,0.0,0.0,0.0,0.0,0.0,-0.8106,-0.7718,-0.7986,-0.8088,-0.8173,-0.8325,-0.8483,-0.8658,-0.8804,-0.884,-0.8922,-0.9084,-0.9299,-0.9499,-0.9588,0.0,0.0,0.0,0.0,-1.1085,-1.1264,-1.1453,-1.1553,-1.1553,-1.1732,-1.1817,-1.1817,-1.1817,-1.1817,-1.1817,-1.1817,-1.1817,-1.1817,-1.2442,-1.2766,-1.2869,-1.2739,-1.2946,-1.3352,-1.3851,-1.3912,-1.3751,-1.4481,0.0,0.0,-1.5034,-1.5125,-1.5155,-1.5155,-1.5173,-1.5197,-1.5197,-1.536,-1.5547,-1.5547,-1.5716,-1.5891,-1.5891,-1.571,-1.5222,-1.3941,-1.2725,-1.144,-1.0172,-0.9127,-0.8416,-0.8501,-0.8254,-0.8038,-0.8038,-0.8038,-0.8038,-0.8038,-0.8137,-0.8528,-0.9509,0.0,0.0,-1.2533,-1.195,-1.2149,-1.3824,-1.2699,-1.2344,-1.3034,-1.307,-1.3052,-1.3052,-1.3052,-1.2966,-1.2705,-1.3307,-1.3899,-1.4552,-1.3978,-1.4643,0.0,0.0,0.0,0.0,0.0,0.0,0.0,0.0,0.0,0.0,0.0,0.0,0.0,0.0,0.0,-0.8724,-0.8205,-0.7983,-0.8428,-0.8545,-0.8581,-0.8532,-0.8666,-0.8783,-0.8816,-0.8958,-0.906,-0.9096,-0.9321,-0.9589,-0.9962,-1.0369,-1.0857,-1.1297,-1.1553,-1.1657,-1.1694,-1.1737,-1.1761,-1.1761,0.0,0.0,-1.1817,-1.1817,-1.1817,-1.1817,-1.1817,-1.1817,-1.1817,-1.2442,-1.3371,-1.4238,-1.3992,-1.4005,-1.4106,-1.4624,-1.4797,-1.4861,-1.501,-1.5034,-1.504,-1.5089,-1.5252,-1.5421,-1.5421,-1.5572,0.0,-1.5741,-1.5777,-1.5813,-1.5813,-1.5849,-1.5891,-1.5891,-1.5849,-1.5275,-1.3111,-1.2431,-1.1603,-0.9433,-0.8749,-0.8902,-0.9704,-0.882,-0.8038,-0.8038,-0.8038,-0.8038,-0.8038,-0.8726,-0.941,-0.9899,-1.0685,-1.1658,-1.2926,-1.2829,-1.3115,-1.383,-1.3272,-1.2969,-1.3049,-1.2911,-1.279,-1.279,-1.279,-1.279,-1.2705,-1.279,-1.3215,-1.3893,-1.46,-1.5382,0.0,0.0,0.0,0.0,0.0,0.0,0.0,0.0,0.0,0.0,0.0,-0.946,-0.8888,0.0,-0.8582,-0.8414,-0.8142,-0.8236,-0.8682,-0.8767,-0.8787,-0.8706,-0.8852,-0.8995,-0.908,-0.9169,-0.9263,-0.9356,-0.9624,-1.0023,-1.0413,-1.0791,-1.1257,-1.1666,-1.1765,-1.1817,-1.1817,-1.1926,-1.1978,-1.1983,-1.2082,-1.2129,-1.2129,-1.2129,-1.2129,-1.2129,-1.2129,-1.2129,-1.2129,-1.3082,-1.4201,-1.5253,-1.5123,-1.4994,-1.4883,-1.5197,-1.5221,-1.5125,-1.5258,-1.5306,-1.5324,-1.5457,-1.559,-1.5692,-1.5692,-1.5783,-1.5891,-1.5891,-1.5891,-1.5891,-1.5891,-1.5891,-1.5891,-1.5891,-1.5891,-1.5238,-1.296,-1.2417,-1.1738,-0.9272,-0.9194,-0.9537,-0.9455,-0.9231,-0.9041,-0.9056,-0.8549,-0.8324,-0.8737,-0.9312,-1.0096,-1.1268,-1.1853,-1.2538,-1.3607,-1.3709,-1.3796,-1.3924,-1.3664,-1.3399,-1.3133,-1.2988,-1.285,-1.2705,-1.2705,-1.2705,-1.2705,-1.2705,-1.3045,-1.373,-1.4248,-1.4996,0.0,0.0,0.0,0.0,0.0,0.0,0.0,-0.6816,-0.7488,-0.7689,-0.8472,-0.8832,-0.8072,-0.8277,-0.846,-0.794,-0.8143,-0.8387,-0.8709,-0.8881,-0.8926,-0.8926,-0.9056,-0.9202,-0.934,-0.9417,-0.9518,-0.9665,-1.0049,-1.0463,-1.0764,-1.1151,-1.1571,-1.1879,-1.1917,-1.194,-1.194,-1.211,-1.2195,-1.22,-1.2361,-1.2441,-1.2441,-1.2441,-1.2441,-1.2441,-1.2484,-1.2612,-1.2935,-1.3961,-1.507,-1.6048,-1.6048,-1.5916,-1.5722,-1.5614,-1.5439,-1.5288,-1.5499,-1.5572,-1.5608,-1.5819,-1.5891,-1.5891,-1.5891,-1.5891,-1.5891,-1.5891,-1.5891,-1.5891,-1.5891,-1.5891,-1.5891,-1.5891,-1.5891,-1.5238,-1.296,-1.2417,-1.1764,-0.9699,-0.9918,-1.0254,-0.9503,-0.9922,-1.0172,-0.9753,-0.9119,-0.8973,-0.963,-1.0108,-1.0982,-1.2607,-1.2997,-1.3374,-1.4202,-1.4298,-1.4208,-1.3996,-1.3936,-1.3719,-1.3296,-1.323,-1.3067,-1.2789,-1.2783,-1.2759,-1.2705,-1.2705,-1.296,-1.3476,-1.3652,-1.4398,-0.1903,-0.3164,-0.3663,-0.3007,-0.3432,-0.4042,0.0,-0.517,-0.6064,-0.6974,-0.7278,-0.7376,-0.7204,-0.7485,-0.768,-0.7856,-0.8244,-0.8532,-0.8729,-0.9092,-0.9295,-0.9295,-0.9315,-0.9332,-0.9352,-0.964,-0.9835,-0.9855,-1.003,-1.0443,-1.0958,-1.1146,-1.1575,-1.2,-1.2276,-1.237,-1.237,-1.2394,-1.2408,-1.2408,-1.2427,-1.2441,-1.2441,-1.2441,-1.2441,-1.245,-1.2644,-1.3386,-1.4382,-1.4713,-1.5479,-1.661,-1.661,-1.6592,-1.6507,-1.6024,-1.5831,-1.5807,-1.5831,-1.5849,-1.5849,-1.5879,-1.5891,-1.5891,-1.5891,-1.5891,-1.5891,-1.5891,-1.5891,-1.5891,-1.5891,-1.5891,-1.5891,-1.5891,-1.5891,-1.5238,-1.296,-1.2417,-1.1978,-1.0785,-1.0546,-1.0971,-1.1837,-1.1276,-1.0178,-0.8916,-0.9387,-1.0003,-1.0087,-1.183,-1.3079,-1.306,-1.3958,-1.4466,-1.4316,-1.4298,-1.4286,-1.4256,-1.4039,-1.3882,-1.3821,-1.3598,-1.3344,-1.3085,-1.3079,-1.2952,-1.2705,-1.2705,-1.2705,-1.279,-1.3392,-1.4398,-0.1591,-0.2203,-0.2481,-0.2653,-0.3023,-0.3582,-0.484,-0.5378,-0.592,-0.6861,-0.7139,-0.7143,-0.7323,-0.7591,-0.7889,-0.8162,-0.8505,-0.8802,-0.91,-0.9259,-0.9393,-0.9502,-0.9604,-0.9661,-0.9661,-0.9799,-0.9929,-1.0038,-1.0427,-1.0746,-1.1164,-1.1563,-1.1882,-1.2313,-1.2521,-1.263,-1.263,-1.2748,-1.2805,-1.2805,-1.2805,-1.2805,-1.2805,-1.2805,-1.2805,-1.281,-1.2904,-1.361,-1.4735,-1.4842,-1.5564,-1.67,-1.67,-1.67,-1.6652,-1.626,-1.6121,-1.6109,-1.5946,-1.5891,-1.5891,-1.5891,-1.5891,-1.5891,-1.5891,-1.5891,-1.5891,-1.5891,-1.5891,-1.5891,-1.5891,-1.5891,-1.5891,-1.5891,-1.5891,-1.5458,-1.3835,-1.3403,-1.3073,-1.1873,-1.2309,-1.2639,-1.2417,-1.2635,-1.2252,-1.1005,-1.058,-1.0788,-1.2019,-1.2936,-1.3667,-1.4027,-1.4412,-1.4606,-1.4322,-1.4298,-1.4298,-1.4298,-1.4189,-1.4063,-1.3912,-1.3803,-1.3622,-1.3357,-1.335,-1.3296,-1.3175,-1.3019,-1.312,-1.354,-1.3638,-1.4398,-0.1541,-0.1559,-0.1577,-0.2277,-0.248,-0.2955,-0.4914,-0.5272,-0.5628,-0.6874,-0.7143,-0.7234,-0.7507,-0.7768,-0.8086,-0.8438,-0.8687,-0.9003,-0.9311,-0.9441,-0.9551,-0.9685,-0.9855,-0.9981,-1.003,-1.0038,-1.0091,-1.0225,-1.0724,-1.1044,-1.1366,-1.1873,-1.2202,-1.2531,-1.2739,-1.2852,-1.2852,-1.2994,-1.3065,-1.3065,-1.3065,-1.3065,-1.3065,-1.3065,-1.3065,-1.3069,-1.3131,-1.3839,-1.4982,-1.5052,-1.5772,-1.6917,-1.6917,-1.6917,-1.6881,-1.6604,-1.6465,-1.6386,-1.6187,-1.6115,-1.6115,-1.6115,-1.6115,-1.6115,-1.6115,-1.606,-1.6,-1.6,-1.5946,-1.5891,-1.5891,-1.5891,-1.5891,-1.5891,-1.5891,-1.5565,-1.4493,-1.4169,-1.3948,-1.3073,-1.3619,-1.3948,-1.3073,-1.3619,-1.3948,-1.3073,-1.2079,-1.2042,-1.3461,-1.3903,-1.431,-1.4849,-1.4865,-1.4714,-1.4437,-1.4413,-1.4383,-1.4304,-1.4298,-1.4214,-1.402,-1.4014,-1.3888,-1.3628,-1.3622,-1.3586,-1.3513,-1.3326,-1.3578,-1.4272,-1.4236,-1.4774,-0.1791,-0.1613,-0.1434,-0.1434,-0.1435,-0.1972,-0.3933,-0.4378,-0.4912,-0.6694,-0.7323,-0.7507,-0.7507,-0.7852,-0.8259,-0.8438,-0.879,-0.9153,-0.9328,-0.9652,-0.9872,-0.9876,-1.0042,-1.0221,0.0,-1.0416,-1.042,-1.0428,-1.0804,-1.1227,-1.1559,-1.2081,-1.2418,-1.2758,-1.2951,-1.3055,-1.3055,-1.3065,-1.3065,-1.3065,-1.3065,-1.3065,-1.3065,-1.3065,-1.3065,-1.3079,-1.3287,-1.4068,-1.5357,-1.5478,-1.6284,-1.7461,-1.7461,-1.7461,-1.7424,-1.7165,-1.6905,-1.6688,-1.6676,-1.6676,-1.6676,-1.6676,-1.6676,-1.6676,-1.6676,-1.6501,-1.6296,-1.6272,-1.6085,-1.5891,-1.5891,-1.5891,-1.5891,-1.5891,-1.5891,-1.5565,-1.4493,-1.4169,-1.4169,-1.4164,-1.4169,-1.4169,-1.4164,-1.4169,-1.4169,-1.4164,-1.4159,-1.4153,-1.4148,-1.4901,-1.5481,-1.5475,-1.5246,-1.4992,-1.4727,-1.4702,-1.4588,-1.4316,-1.4298,-1.4292,-1.4286,-1.4286,-1.4165,-1.39,-1.3894,-1.3767,-1.3513,-1.3507,-1.3863,-1.4578,-1.5274,-1.582,-0.1794,-0.1615,-0.1436,-0.1436,-0.1436,-0.1882,-0.3844,-0.4289,-0.4823,-0.6694,-0.7323,-0.7768,-0.8456,-0.8468,-0.8701,-0.9701,-0.9524,-0.9372,-0.9665,-0.9807,-0.9929,-1.0054,-1.0229,-1.0367,-1.0428,0.0,0.0,-1.0599,-1.0994,-1.1432,-1.1766,-1.2285,-1.2625,-1.2965,-1.3169,-1.3282,-1.3282,-1.3414,-1.348,-1.348,-1.348,-1.348,-1.348,-1.348,-1.3942,-1.4758,-1.4841,-1.592,-1.7548,-1.7079,-1.7479,-1.8415,-1.7713,-1.7485,-1.7473,-1.7382,-1.7292,-1.7171,-1.6821,-1.67,-1.67,-1.67,-1.67,-1.67,-1.67,-1.664,-1.6567,-1.6561,-1.6495,-1.6429,-1.6429,-1.6429,-1.6429,-1.6429,-1.6429,-1.6318,-1.5981,-1.587,-1.587,-1.587,-1.5736,-1.5619,-1.5602,-1.5462,-1.5351,-1.5351,-1.5351,-1.5351,-1.5351,-1.5594,-1.5692,-1.5517,-1.5421,-1.5264,-1.4998,-1.4817,-1.4672,-1.4582,-1.4401,-1.4298,-1.4298,-1.4298,-1.4256,-1.4165,-1.4165,-1.4407,-1.4778,-1.4593,-1.5146,-1.6328,-1.6373,-1.674,-0.1794,-0.1615,-0.1436,-0.1436,-0.1704,-0.233,-0.3933,-0.4556,-0.527,-0.6782,-0.7669,-0.8372,-0.9061,-0.9135,-0.9423,-1.0348,-0.9897,-0.9478,-0.9835,-0.9941,-1.0054,-1.0237,-1.0416,-1.0526,-1.0526,0.0,0.0,-1.0785,-1.1234,-1.1668,-1.1964,-1.2492,-1.2947,-1.3183,-1.3849,-1.4192,-1.4192,-1.4795,-1.4867,-1.4396,-1.4396,-1.4162,-1.3688,-1.4162,-1.4867,-1.5569,-1.6042,-1.7208,-1.8719,-1.7818,-1.8064,-1.8758,-1.783,-1.7485,-1.7485,-1.7485,-1.7485,-1.7436,-1.7098,-1.6984,-1.6984,-1.6984,-1.6984,-1.6984,-1.6984,-1.6917,-1.6839,-1.6839,-1.6773,-1.67,-1.67,-1.67,-1.67,-1.67,-1.67,-1.67,-1.67,-1.67,-1.67,-1.67,-1.6561,-1.6447,-1.6435,-1.6205,-1.6,-1.5903,-1.5891,-1.5891,-1.5891,-1.5891,-1.5825,-1.5656,-1.5638,-1.5529,-1.527,-1.5089,-1.4914,-1.4733,-1.4545,-1.4401,-1.4298,-1.4298,-1.4298,-1.4298,-1.4586,-1.4962,-1.5432,-1.5538,-1.6188,-1.7385,-1.7161,-1.7443,-0.1794,-0.1615,-0.1436,-0.1436,-0.2152,-0.3133,-0.4111,-0.5003,-0.5985,-0.6962,-0.8277,-0.9231,-0.9318,-0.9748,-1.0315,-1.0532,-0.9897,-0.9482,-0.9847,-1.005,-1.0233,-1.0424,-1.0599,-1.0708,-1.0708,-1.0875,0.0,-1.0997,0.0,-1.1972,-1.2148,-1.2933,-1.3405,-1.3405,-1.476,-1.5575,-1.5575,-1.6744,-1.6862,-1.5688,-1.5688,-1.51,-1.3923,-1.51,-1.5688,-1.5806,-1.6979,-1.8021,-1.8835,-1.7935,-1.8064,-1.8758,-1.783,-1.7485,-1.7485,-1.7485,-1.7485,-1.7485,-1.7485,-1.7485,-1.7485,-1.7485,-1.7485,-1.7485,-1.7485,-1.731,-1.7111,-1.7111,-1.693,-1.6742,-1.6742,-1.6742,-1.6742,-1.6742,-1.6742,-1.6742,-1.6742,-1.6742,-1.6742,-1.6742,-1.673,-1.6718,-1.6706,-1.6471,-1.6193,-1.5946,-1.5897,-1.5891,-1.5891,-1.5891,-1.5891,-1.5891,-1.5891,-1.5789,-1.5541,-1.5505,-1.5288,-1.4787,-1.4733,-1.4594,-1.4424,-1.44,-1.4394,-1.4394,-1.5057,-1.5432,-1.5527,-1.6292,-1.7044,-1.7785,-1.7785,-1.7988,-0.1525,-0.1436,-0.1436,-0.1436,-0.2152,-0.3133,-0.4111,-0.5179,-0.6248,-0.7234,-0.854,-0.9753,-1.0438,-1.0362,-1.0495,-1.1446,-1.0364,-0.9527,-1.0022,-1.0132,-1.0278,-1.059,-1.0789,-1.0899,-1.0899,-1.1053,0.0,0.0,-1.1479,-1.1849,-1.2363,-1.2667,-1.3131,-1.3613,-1.4013,-1.4629,-1.5569,-1.6744,-1.7208,-1.6973,-1.6973,-1.6744,-1.6509,-1.6738,-1.7449,-1.8383,-1.8739,-1.908,-1.9543,-1.9094,-1.8519,-1.8169,-1.7713,-1.7485,-1.7485,-1.7485,-1.7485,-1.7485,-1.7485,-1.7485,-1.7485,-1.7485,-1.7485,-1.7485,-1.7485,-1.7436,-1.7382,-1.7382,-1.7334,-1.7286,-1.7286,-1.7286,-1.7286,-1.7286,-1.7286,-1.7286,-1.7286,-1.7286,-1.7286,-1.7286,-1.7123,-1.693,-1.673,-1.6471,-1.626,-1.6187,-1.6012,-1.5891,-1.5891,-1.5891,-1.5891,-1.5891,-1.5891,-1.5861,-1.5795,-1.5608,-1.5439,-1.5306,-1.4932,-1.4875,-1.5369,-1.5262,-1.5439,-1.6015,-1.6204,-1.6574,-1.7124,-1.7318,-1.7792,-1.8542,-1.8542,-1.8588,-0.1436,-0.1436,-0.1436,-0.1436,-0.2509,-0.3667,-0.4289,-0.5974,-0.7482,-0.8105,-0.9579,-1.0956,-1.1472,-1.1149,-1.103,-1.1807,-1.0458,-0.9543,-1.0087,-1.016,-1.0294,-1.0651,-1.0854,-1.0968,-1.0968,-1.1196,-1.1386,0.0,-1.1618,-1.2006,-1.2561,-1.3374,-1.4028,-1.4515,-1.5569,-1.6744,-1.8033,-1.8739,-1.8739,-1.8267,-1.8267,-1.7917,-1.7443,-1.8033,-1.8616,-1.9325,0.0,-2.0378,-2.0493,-1.9325,-1.8622,-1.8156,-1.7355,-1.7009,-1.7126,-1.7361,-1.7485,-1.7485,-1.7485,-1.7485,-1.7485,-1.7485,-1.7485,-1.7485,-1.7485,-1.7485,-1.7485,-1.7485,-1.7485,-1.7485,-1.7485,-1.7485,-1.7485,-1.7485,-1.7485,-1.7485,-1.7485,-1.7485,-1.7485,-1.7485,-1.7364,-1.7177,-1.6917,-1.6742,-1.6555,-1.6314,-1.6157,-1.6018,-1.5903,-1.5891,-1.5891,-1.5891,-1.5891,-1.5891,-1.5891,-1.5759,-1.5829,-1.6019,-1.5827,-1.5838,-1.635,-1.6182,-1.6327,-1.6588,-1.6958,-1.7326,-1.7692,-1.8064,-1.8357,-1.8827,-1.8827,-1.8827,-0.1436,-0.1436,-0.1436,-0.1436,-0.2864,-0.4378,-0.4559,-0.6858,-0.8978,-0.9235,-1.0869,-1.2328,-1.2328,-1.2023,-1.1836,-1.1903,-1.0646,-0.9739,-1.019,-1.016,-1.0302,-1.0684,-1.0891,-1.1013,-1.1037,-1.1342,-1.1537,-1.1537,-1.1773,-1.2196,-1.2711,-1.4138,-1.5327,-1.5806,-1.8033,-1.9795,-2.0974,-2.1096,-2.0622,-1.9557,-1.9557,-1.8971,-1.7917,-1.9087,-1.9557,-1.9557,-2.0737,0.0,-2.096,-1.921,-1.8377,-1.8137,-1.6997,-1.6537,-1.6537,-1.7244,-1.7485,-1.7485,-1.7485,-1.7485,-1.7485,-1.7485,-1.7485,-1.7485,-1.7485,-1.7485,-1.7485,-1.7485,-1.7485,-1.7485,-1.7485,-1.7485,-1.7485,-1.7485,-1.7485,-1.7485,-1.7485,-1.7485,-1.7485,-1.7485,-1.7485,-1.7412,-1.7183,-1.7117,-1.693,-1.6459,-1.6326,-1.6199,-1.597,-1.591,-1.5891,-1.5891,-1.5891,-1.5891,-1.5891,-1.5998,-1.6312,-1.6795,-1.6949,-1.7103,-1.7357,-1.7258,-1.7191,-1.6935,-1.7535,-1.7878,-1.7878,-1.845,-1.8827,-1.8827,-1.8827,-1.8827,-0.1436,-0.1436,-0.1436,-0.1436,-0.2864,-0.4378,-0.4559,-0.6939,-0.9235,-0.9492,-1.1139,-1.2613,-1.2613,-1.2742,-1.2644,-1.1995,-1.1204,-1.0511,-1.029,-1.016,-1.0351,-1.0863,-1.1074,-1.1236,-1.1395,-1.1602,-1.1727,0.0,-1.1848,-1.2097,-1.2719,-1.4018,-1.5435,-1.7091,-1.8506,-1.9441,-1.9679,-2.0622,-2.1096,-2.0852,-2.0852,-2.0737,-2.0507,-2.0737,-2.0852,-2.0859,-2.1089,0.0,-1.8144,-1.8389,-1.7214,-1.5451,-1.6177,-1.6537,-1.6537,-1.7244,-1.7485,-1.7485,-1.7485,-1.7485,-1.7485,-1.7485,-1.7485,-1.7485,-1.7485,-1.7485,-1.7485,-1.7485,-1.7485,-1.7485,-1.7485,-1.7485,-1.7485,-1.7485,-1.7485,-1.7485,-1.7485,-1.7485,-1.7485,-1.7485,-1.7485,-1.7473,-1.7424,-1.7237,-1.7062,-1.6966,-1.6567,-1.6266,-1.6217,-1.6024,-1.5891,-1.5891,-1.5891,-1.5891,-1.5891,-1.6518,-1.7022,-1.7075,-1.7571,-1.8094,-1.8699,-1.8274,-1.8258,-1.8894,-1.8699,-1.8635,-1.8635,-1.8735,-1.8827,-1.8827,-1.8827,-1.8827,-0.1436,-0.1436,-0.1524,-0.2062,-0.331,-0.4645,-0.5354,-0.7899,-1.0183,-1.0453,-1.2009,-1.3442,-1.3582,-1.3361,-1.3046,-1.2888,-1.1744,-1.0895,-1.1008,-1.0577,-1.0363,-1.0907,-1.1118,-1.1293,-1.1484,-1.1667,-1.1776,-1.1776,-1.1776,-1.2014,-1.2479,-1.4604,-1.6962,-1.9325,-1.9917,-2.027,-2.027,-2.0859,-2.1123,-2.0955,-2.113,-2.1123,-2.0962,-2.113,-2.1211,-2.1211,-2.1211,0.0,-1.8383,-1.8033,-1.6744,-1.5219,-1.5828,-1.5828,-1.5698,-1.7009,-1.725,-1.7009,-1.7367,-1.7485,-1.7485,-1.7485,-1.7485,-1.7485,-1.7485,-1.7485,-1.7485,-1.7485,-1.7485,-1.7485,-1.7485,-1.7485,-1.7485,-1.7485,-1.7485,-1.7485,-1.7485,-1.7485,-1.7485,-1.7485,-1.7485,-1.7485,-1.7485,-1.7376,-1.7249,-1.7111,-1.6754,-1.6447,-1.6302,-1.6479,-1.6624,-1.6624,-1.6624,-1.673,-1.7153,-1.7575,-1.7996,-1.8513,-1.8794,-1.9147,-1.9783,-1.9467,-1.933,-1.9383,-1.9201,-1.9018,-1.8827,-1.8827,-1.8827,-1.8827,-1.8827,-1.8827,-0.1436,-0.1436,-0.1614,-0.2688,-0.3757,-0.4912,-0.641,-0.8948,-1.1047,-1.1494,-1.301,-1.4249,-1.4476,-1.3995,-1.3668,-1.3803,-1.2603,-1.1628,-1.1728,-1.0988,-1.069,-1.0956,-1.1367,-1.1653,-1.2001,-1.2397,-1.2608,-1.2608,-1.2608,-1.2719,-1.3062,-1.5548,-1.826,-2.1096,-2.1137,-2.1101,-2.1101,-2.1035,-2.0874,-2.0625,-2.0947,-2.0969,-2.0735,-2.1057,-2.1211,-2.1211,-2.0859,0.0,0.0,-1.7683,-1.6509,-1.5575,-1.5472,-1.511,-1.4867,-1.6649,-1.7009,-1.6655,-1.7244,-1.7485,-1.7485,-1.7485,-1.7485,-1.7485,-1.7485,-1.7485,-1.7485,-1.7485,-1.7485,-1.7485,-1.7485,-1.7485,-1.7485,-1.7485,-1.7485,-1.7485,-1.7485,-1.7485,-1.7485,-1.7485,-1.7485,-1.7485,-1.7485,-1.7485,-1.7412,-1.7207,-1.6954,-1.6688,-1.6404,-1.6883,-1.7324,-1.747,-1.7463,-1.7681,-1.8318,-1.8527,-1.8945,-1.968,-1.9887,-2.0074,-2.0512,-2.0432,-2.0138,-1.9606,-1.9519,-1.9304,-1.8947,-1.8947,-1.8907,-1.8827,-1.8827,-1.8827,-0.1436,-0.1436,-0.1704,-0.2862,-0.3753,-0.4994,-0.7457,-0.9383,-1.0956,-1.2272,-1.3595,-1.4489,-1.4516,-1.486,-1.4857,-1.3957,-1.3897,-1.347,-1.1957,-1.1606,-1.1478,-1.1228,-1.2236,-1.3086,-1.348,-1.4609,-1.5219,-1.5219,-1.5219,-1.5445,-1.6127,-1.6727,-1.826,-2.1096,-2.0918,-2.0772,-2.0772,-2.0472,-2.0311,-2.0281,-2.0611,-2.075,-2.0735,-2.1057,-2.1211,-2.1096,-2.0033,0.0,0.0,-1.6744,-1.5693,-1.5575,-1.4986,-1.4629,-1.4748,-1.6059,-1.6537,-1.6655,-1.7244,-1.7485,-1.7485,-1.7485,-1.7485,-1.7485,-1.7485,-1.7485,-1.7485,-1.7485,-1.7485,-1.7485,-1.7485,-1.7485,-1.7485,-1.7485,-1.7485,-1.7485,-1.7485,-1.7485,-1.7485,-1.7485,-1.7485,-1.7485,-1.7485,-1.7485,-1.7473,-1.7449,-1.7219,-1.696,-1.6694,-1.7192,-1.7775,-1.824,-1.8318,-1.8318,-1.8422,-1.9153,-1.9576,-1.968,-2.0403,-2.0806,-2.0869,-2.0567,-2.0361,-2.0297,-1.9979,-1.9654,-1.932,-1.932,-1.9153,-1.8827,-1.8827,-1.8827,-0.1436,-0.1436,-0.1792,-0.3486,-0.4287,-0.5437,-0.8169,-0.9923,-1.1354,-1.2644,-1.3729,-1.4629,-1.4983,-1.5237,-1.5352,-1.5049,-1.4601,-1.4187,-1.3779,-1.3136,-1.2639,-1.2266,-1.2698,-1.3206,-1.3627,-1.4143,-1.4738,-1.5575,-1.5575,-1.6155,-1.7554,-1.7793,-1.877,-2.0812,-2.0794,-2.0625,-2.0428,-2.0303,-2.0142,-1.9952,-2.0274,-2.0428,-2.0442,-2.0772,-2.102,-2.1089,-1.9795,0.0,0.0,-1.6279,-1.51,-1.4515,-1.451,-1.4391,-1.4282,-1.5941,-1.6301,-1.607,-1.7126,-1.7485,-1.7485,-1.7485,-1.7485,-1.7485,-1.7485,-1.7485,-1.7485,-1.7485,-1.7485,-1.7485,-1.7485,-1.7485,-1.7485,-1.7485,-1.7485,-1.7485,-1.7485,-1.7485,-1.7485,-1.7485,-1.7485,-1.7485,-1.7485,-1.7485,-1.7361,-1.7009,-1.7024,-1.699,-1.6712,-1.765,-1.8445,-1.8883,-1.9056,-1.9361,-1.9879,-2.0197,-2.0403,-2.0403,-2.0712,-2.0925,-2.0925,-2.0782,-2.0607,-2.04,-2.0257,-2.0011,-1.9669,-1.9669,-1.9495,-1.9153,-1.9153,-1.9034,-0.1972,-0.1882,-0.2239,-0.402,-0.491,-0.6148,-0.9139,-1.0584,-1.1734,-1.3236,-1.4209,-1.491,-1.5317,-1.5464,-1.5591,-1.5798,-1.5255,-1.477,-1.4998,-1.4355,-1.3793,-1.3615,-1.3833,-1.4234,-1.4806,-1.5203,-1.58,-1.6638,-1.6756,0.0,-1.8745,-1.8861,-1.9543,-2.0616,-2.0625,-2.042,-2.0098,-2.0003,-1.9842,-1.9623,-1.9945,-2.0142,-2.0245,-2.0574,-2.0903,-2.1096,-1.9441,0.0,0.0,-1.5806,-1.4748,-1.4277,-1.4277,-1.4043,-1.3928,-1.5348,-1.5709,-1.5472,-1.6537,-1.6897,-1.7015,-1.7126,-1.7244,-1.7244,-1.7485,-1.7485,-1.7485,-1.7485,-1.7485,-1.7485,-1.7485,-1.7485,-1.7485,-1.7485,-1.7485,-1.7485,-1.7485,-1.7485,-1.7485,-1.7485,-1.7485,-1.7485,-1.7244,-1.7244,-1.7009,-1.6301,-1.6856,-1.7105,-1.6821,-1.809,-1.9106,-1.923,-1.9636,-2.0094,-2.0719,-2.0822,-2.0822,-2.0822,-2.0822,-2.0822,-2.0925,-2.0925,-2.0805,-2.0551,-2.0551,-2.0377,-2.0019,-2.0019,-1.9852,-1.9519,-1.9519,-1.9383,-0.3218,-0.3042,-0.3223,-0.4643,-0.5534,-0.7034,-1.0448,-1.1319,-1.201,-1.4067,-1.4983,-1.5391,-1.5398,-1.5631,-1.5825,-1.5832,-1.5825,-1.5641,-1.5099,-1.4969,-1.4943,-1.4852,-1.5879,-1.6875,-1.7406,-1.8648,-1.9366,-1.9366,-1.9366,0.0,-1.9815,-2.004,-2.0359,-2.0735,-2.0413,-2.0091,-1.9769,-1.9447,-1.9286,-1.9286,-1.9616,-1.993,-2.0245,-2.0574,-2.0903,0.0,0.0,0.0,0.0,-1.5219,-1.4396,-1.5456,-1.4157,-1.3688,-1.3808,-1.4391,-1.4629,-1.4748,-1.5353,-1.5596,-1.5715,-1.6301,-1.6537,-1.6655,-1.7244,-1.7485,-1.7485,-1.7485,-1.7485,-1.7485,-1.7485,-1.7485,-1.7485,-1.7485,-1.7485,-1.7485,-1.7485,-1.7485,-1.7485,-1.7485,-1.7485,-1.7244,-1.6655,-1.6537,-1.6301,-1.5715,-1.6655,-1.7376,-1.7092,-1.8611,-1.9642,-1.9327,-1.9754,-2.0189,-2.0514,-2.0522,-2.0522,-2.0522,-2.0522,-2.0617,-2.0925,-2.0925,-2.0925,-2.0917,-2.0917,-2.0742,-2.0384,-2.0384,-2.0202,-1.986,-1.986,-1.9852,-0.4463,-0.4376,-0.4554,-0.5706,-0.6923,-0.8426,-1.0833,-1.2182,-1.3321,-1.4799,-1.5271,-1.5458,-1.5658,-1.5765,-1.6015,-1.6669,-1.6864,-1.6887,-1.7196,-1.7179,-1.6909,-1.6198,-1.6756,-1.7267,-1.7436,0.0,-1.9366,-1.9366,-1.9366,0.0,-1.9815,-1.9931,-2.0039,-2.0089,-2.0186,-1.9974,-1.9433,-1.933,-1.9279,-1.9279,-1.9381,-1.9711,-2.0237,-2.034,-2.0691,0.0,0.0,0.0,0.0,-1.4867,-1.3923,-1.4277,-1.3808,-1.3688,-1.3808,-1.4391,-1.4629,-1.4748,-1.5359,-1.5601,-1.5596,-1.5833,-1.6183,-1.6537,-1.6773,-1.7126,-1.7485,-1.7485,-1.7485,-1.7485,-1.7485,-1.7485,-1.7361,-1.6891,-1.7126,-1.7367,-1.6891,-1.7126,-1.7361,-1.6891,-1.6773,-1.6891,-1.7126,-1.7126,-1.7238,-1.7461,-1.8163,-1.8641,-1.835,-1.9063,-1.9758,-1.9883,-2.0076,-2.0078,-2.0189,-2.0197,-2.0197,-2.0197,-2.0411,-2.0522,-2.0617,-2.0624,-2.0624,-2.0624,-2.0624,-2.0562,-2.0452,-2.0648,-2.0575,-2.0218,-1.9979,-2.0241,-0.5974,-0.588,-0.6239,-0.7002,-0.8422,-1.014,-1.1852,-1.2989,-1.4062,-1.5167,-1.5756,-1.6171,-1.6358,-1.6669,-1.7131,-1.7785,-1.7976,-1.8153,-1.8211,-1.8287,-1.8175,-1.7448,-1.7836,-1.8169,0.0,-1.8887,-1.9366,-1.9366,-1.9366,0.0,-1.9591,-1.97,-1.9704,-1.966,-1.9864,-1.9773,-1.9252,-1.9338,-1.9279,-1.9279,-1.9403,-1.9733,-2.0237,-2.0362,-2.0363,0.0,0.0,0.0,0.0,-1.451,-1.3688,-1.3688,-1.3688,-1.3688,-1.3808,-1.4157,-1.4277,-1.4277,-1.4764,-1.4883,-1.4883,-1.5116,-1.5828,-1.6537,-1.6537,-1.7009,-1.7485,-1.7485,-1.7361,-1.7126,-1.7479,-1.7126,-1.6779,-1.6537,-1.6655,-1.6655,-1.6307,-1.6537,-1.6773,-1.6891,-1.6891,-1.712,-1.7707,-1.7824,-1.7935,-1.804,-1.8739,-1.9259,-1.9072,-1.948,-1.9925,-2.0167,-1.9949,-1.9776,-1.9776,-1.9879,-1.9983,-1.9983,-2.0094,-2.0205,-2.03,-2.0308,-2.0308,-2.0308,-2.0308,-2.0411,-2.0522,-2.0719,-2.0805,-2.0591,-2.0759,-2.1237,0.0,-0.7559,-0.8204,-0.8727,-1.0234,-1.1942,-1.3278,-1.3909,0.0,-1.5325,-1.6565,-1.7419,-1.7419,-1.8149,-1.8796,-1.8912,-1.9276,-1.9248,-1.8459,-1.8635,-1.8686,-1.85,-1.9011,0.0,-1.9366,-1.9366,-1.9366,-1.9366,-1.9366,0.0,-1.9366,-1.9591,-1.9685,-1.9285,-1.9556,-1.9569,-1.9234,-1.9335,-1.9272,-1.9279,-1.9608,-1.993,-2.0245,-2.0456,-2.009,0.0,0.0,0.0,0.0,-1.4277,-1.3688,-1.3688,-1.3688,-1.3688,-1.3688,-1.3688,-1.3688,-1.3688,-1.3688,-1.3688,-1.3808,-1.4396,-1.5343,-1.6414,-1.6419,-1.6891,-1.7479,-1.7485,-1.7009,-1.6655,-1.7244,-1.6543,-1.5715,-1.6183,-1.5946,-1.5596,-1.5596,-1.5601,-1.5952,-1.7244,-1.7479,-1.7707,-1.8389,-1.8506,-1.8267,-1.7793,-1.8603,-1.9408,-1.9408,-1.9801,-2.0201,-2.0201,-1.9645,-1.9279,-1.9279,-1.948,-1.968,-1.968,-1.968,-1.9776,-2.0078,-2.0078,-2.0078,-2.0078,-2.0078,-2.0189,-2.0522,-2.0719,-2.0917,-2.1019,-2.2021,-2.2627,-1.0361,0.0,-1.0878,-1.1023,-1.2207,-1.3522,0.0,-1.5305,-1.6556,-1.6843,-1.7732,-1.8427,-1.8427,-1.8603,-1.9152,-2.0188,-2.0492,-2.0392,-1.9842,-1.9038,-1.8571,-1.8464,-1.9011,-1.9366,-1.9366,-1.9366,-1.9366,-1.9366,0.0,-1.9366,-1.9366,-1.9482,-1.9448,-1.9381,-1.9419,-1.9334,-1.9006,-1.9223,-1.9175,-1.8974,-1.9502,-1.993,-2.0135,-1.9542,-1.9273,0.0,0.0,0.0,-1.5456,-1.4277,-1.3688,-1.3688,-1.3688,-1.3688,-1.3688,-1.3688,-1.3688,-1.3688,-1.3688,-1.3688,-1.3808,-1.4396,-1.4748,-1.5105,-1.5709,-1.6655,-1.7361,-1.6891,-1.6655,-1.6419,-1.6188,-1.5833,-1.5477,-1.5105,-1.5353,-1.5477,-1.4992,-1.5235,-1.5828,-1.6638,-1.675,-1.722,-1.8855,-1.9087,-1.9325,-2.0148,-2.0295,-2.0372,-2.0372,-2.0048,-1.9872,-1.9872,-1.9513,-1.9279,-1.9279,-1.9376,-1.9376,-1.9376,-1.9583,-1.968,-1.9776,-1.9776,-1.9776,-1.9776,-1.9776,-1.9879,-2.0189,-2.0506,-2.1011,-2.1794,-2.2316,-2.342,-1.2065,-1.2283,-1.2414,-1.2618,-1.4029,-1.5391,-1.5538,-1.6807,-1.7971,-1.7971,-1.8796,-1.9521,-1.9521,-1.9561,-2.0113,-2.1353,-2.1019,-2.072,-2.0828,-1.999,-1.9409,-1.9438,-1.9983,-2.0046,0.0,-1.9366,-1.9366,-1.9366,0.0,-1.9366,-1.9366,-1.9366,-1.9366,-1.9366,-1.9293,-1.9138,-1.8891,-1.912,-1.9215,-1.8876,-1.9648,-2.0069,-2.0143,-1.935,-1.882,0.0,0.0,0.0,-1.4629,-1.3923,-1.3688,-1.3688,-1.3688,-1.3688,-1.3688,-1.3688,-1.3688,-1.3688,-1.3688,-1.3688,-1.3808,-1.4038,-1.4396,-1.4629,-1.4992,-1.5828,-1.6543,-1.6188,-1.5822,-1.5585,-1.5596,-1.5121,-1.4759,-1.4629,-1.4639,-1.4759,-1.4986,-1.5343,-1.6053,-1.7449,-1.78,-1.8267,-1.991,-2.0148,-2.0336,-2.0892,-2.0837,-2.0669,-2.0523,-2.0069,-1.9762,-1.9762,-1.9469,-1.9279,-1.9279,-1.9279,-1.9279,-1.9279,-1.948,-1.948,-1.948,-1.948,-1.948,-1.948,-1.968,-1.9776,-1.9879,-2.0712,-2.1318,-2.1903,-2.3211,-2.4402,-1.3212,-1.3422,-1.3539,-1.3773,-1.5393,-1.7066,-1.726,-1.8241,-1.9063,-1.9063,-1.9795,-2.0456,-2.0417,-2.0683,-2.122,-2.2104,-2.1172,-2.0553,-2.1194,-2.0535,-2.0113,-2.0431,-2.075,0.0,-1.9482,-1.9366,-1.9366,0.0,0.0,-1.9366,-1.9366,-1.9366,-1.9366,-1.9366,-1.9341,-1.9176,-1.8877,-1.908,-1.9071,-1.8876,-1.9715,-2.0121,-2.015,-1.9401,-1.8383,-1.7325,0.0,0.0,-1.3688,-1.3688,-1.3688,-1.3688,-1.3688,-1.3688,-1.3688,-1.3688,-1.3688,-1.3688,-1.3688,-1.3688,-1.3688,-1.3688,-1.4043,-1.451,-1.451,-1.4878,-1.5359,-1.5359,-1.4997,-1.4748,-1.524,-1.4525,-1.3808,-1.4396,-1.4043,-1.4043,-1.5337,-1.5575,-1.6273,-1.8855,-1.9325,-1.9679,-2.0974,-2.1167,-2.1042,-2.0764,-2.064,-2.0479,-2.0201,-1.9886,-1.9689,-1.9689,-1.944,-1.9279,-1.9279,-1.9279,-1.9279,-1.9279,-1.9279,-1.9279,-1.9279,-1.9279,-1.9279,-1.9279,-1.968,-1.9879,-1.9879,-2.1208,-2.2021,-2.2215,-2.4304,-2.5392,-1.4241,-1.4698,-1.5081,-1.5134,-1.6188,-1.7267,-1.7318,-1.8703,-2.0068,-2.0068,-2.0808,-2.1275,-2.0752,-2.1428,-2.2066,-2.1952,-2.1337,-2.0632,0.0,0.0,-1.8925,-1.9104,0.0,-1.9591,-1.9366,-1.9366,-1.9366,0.0,0.0,-1.9366,-1.9366,-1.9366,-1.9366,-1.9366,-1.9435,-1.9266,-1.8858,-1.896,-1.8844,-1.8541,-1.9377,-2.0004,-2.0143,-1.8473,-1.756,-1.7325,0.0,-1.3923,-1.3688,-1.3688,-1.3688,-1.3688,-1.3688,-1.3688,-1.3688,-1.3688,-1.3688,-1.3688,-1.3688,-1.3688,-1.3688,-1.3688,-1.3808,-1.3803,-1.3803,-1.3928,-1.4047,-1.4047,-1.4282,-1.451,-1.4043,-1.3808,-1.3688,-1.3808,-1.3808,-1.4043,-1.5337,-1.5575,-1.6273,-1.8855,-1.9325,-1.9679,-2.0974,-2.0984,-2.0779,-2.0728,-2.0259,-1.9894,-1.9842,-1.955,-1.9352,-1.9352,-1.9301,-1.9279,-1.9279,-1.9279,-1.9279,-1.9279,-1.9279,-1.9279,-1.9279,-1.9279,-1.9279,-1.9279,-2.0181,-2.068,-2.068,-2.2089,-2.3194,-2.4097,-2.4894,-2.58,-1.5602,-1.5631,-1.5708,-1.6963,-1.7309,-1.7419,-1.7971,-1.9247,-2.0439,-2.0988,-2.1365,-2.1671,-2.1586,-2.1649,-2.1666,-2.1429,-2.1593,-2.1788,-2.1803,-2.1493,-2.1254,0.0,0.0,-2.0838,-1.9482,-1.9366,0.0,0.0,0.0,0.0,-1.9366,-1.9366,-1.9366,-1.9366,-1.9366,-1.9225,-1.8925,-1.8712,-1.8225,-1.7488,-1.9231,-1.9669,-1.9009,-1.7893,-1.7443,-1.7208,0.0,-1.3688,-1.3688,-1.3688,-1.3688,-1.3688,-1.3688,-1.3688,-1.3688,-1.3688,-1.3688,-1.3688,-1.3688,-1.3688,-1.3688,-1.3688,-1.3688,-1.3688,-1.3688,-1.3688,-1.3688,-1.3688,-1.3923,-1.4043,-1.3808,-1.3688,-1.3688,-1.3688,-1.3688,-1.4277,-1.6155,-1.6626,-1.7331,-1.9795,-2.0385,-2.0451,-2.0863,-2.0823,-2.0603,-2.0252,-1.9952,-1.9696,-1.952,-1.9367,-1.9279,-1.9279,-1.9279,-1.9279,-1.9279,-1.9279,-1.9279,-1.9279,-1.9279,-1.9279,-1.9279,-1.9279,-1.9576,-2.0181,-2.0688,-2.1183,-2.1785,-2.2994,-2.3791,-2.4295,-2.5294,-2.6091,-1.6599,-1.6521,-1.6643,-1.8356,-1.8241,-1.7878,-1.888,-1.9894,-2.0835,-2.1671,-2.1878,-2.1934,-2.2131,-2.1873,-2.1548,-2.1601,-2.2181,-2.2784,-2.3212,-2.3381,-2.3361,-2.3015,-2.2749,-2.1851,-2.0046,0.0,0.0,0.0,0.0,0.0,-1.9366,-1.9366,-1.9366,-1.9366,-1.9366,-1.9259,-1.9032,-1.8506,-1.7753,-1.6789,-1.8899,-1.9147,-1.7633,-1.7335,-1.7091,-1.6738,-1.4505,-1.3688,-1.3688,-1.3688,-1.3688,-1.3688,-1.3688,-1.3688,-1.3688,-1.3688,-1.3688,-1.3688,-1.3688,-1.3688,-1.3688,-1.3688,-1.3688,-1.3688,-1.3688,-1.3688,-1.3688,-1.3688,-1.3688,-1.3808,-1.4043,-1.3923,-1.3803,-1.4391,-1.4396,-1.4867,-1.7325,-1.7793,-1.85,-2.0737,-2.1152,-2.1013,-2.0764,-2.0596,-2.0333,-1.9835,-1.9696,-1.9557,-1.9308,-1.9279,-1.9279,-1.9279,-1.9279,-1.9279,-1.9279,-1.9279,-1.9376,-1.968,-1.968,-1.9783,-2.0086,-2.0086,-2.0483,-2.1285,-2.1489,-2.2089,-2.2885,-2.3998,-2.4501,-2.4501,-2.5596,-2.6197,-1.6897,-1.7682,-1.8572,-1.8788,-1.8796,-1.8972,-1.9977,-2.0907,-2.1743,-2.2208,-2.2282,-2.2233,-2.1924,-2.2175,-2.265,-2.3384,-2.3199,-2.2857,-2.2175,0.0,-2.2664,-2.2934,-2.1964,-2.1288,0.0,0.0,0.0,0.0,0.0,0.0,-1.9366,-1.9366,-1.9366,-1.9366,-1.9366,-1.9359,-1.9332,-1.8097,-1.7346,-1.695,-1.8333,-1.8026,-1.6201,-1.6494,-1.6031,-1.5203,-1.3794,-1.3449,-1.3688,-1.3688,-1.3688,-1.3688,-1.3688,-1.3688,-1.3688,-1.3688,-1.3688,-1.3688,-1.3688,-1.3688,-1.3688,-1.3688,-1.3688,-1.3688,-1.3688,-1.3688,-1.3688,-1.3688,-1.3688,-1.3923,-1.51,-1.4634,-1.4277,-1.6621,-1.6273,-1.6161,-1.8622,-1.9203,-1.9564,-2.0974,-2.0969,-2.075,-2.0728,-2.023,-1.9813,-1.9769,-1.9506,-1.9301,-1.9279,-1.9279,-1.9279,-1.9279,-1.9279,-1.9279,-1.9279,-1.9279,-1.968,-2.068,-2.0783,-2.1183,-2.219,-2.2291,-2.2291,-2.2391,-2.3384,-2.389,-2.3989,-2.502,-2.5538,-2.5625,-2.5907,-2.6197,-1.8608,-1.8867,-1.9155,-2.0889,-2.1057,-2.0767,-2.0701,-2.0994,-2.1485,-2.2444,-2.2628,-2.2878,-2.3505,-2.3929,-2.4304,-2.4688,-2.4363,-2.4168,-2.4114,-2.4393,-2.4568,-2.4172,-2.3768,-2.3095,0.0,0.0,0.0,0.0,0.0,0.0,-1.9366,-1.9366,-1.9366,-1.9366,-1.9366,-1.9366,-1.9366,-1.7893,-1.6857,-1.6107,-1.6744,-1.6252,-1.474,-1.5092,-1.5079,-1.4723,-1.343,-1.3084,-1.3329,-1.3204,-1.3204,-1.3444,-1.3444,-1.3569,-1.3688,-1.3688,-1.3688,-1.3688,-1.3688,-1.3688,-1.3688,-1.3688,-1.3688,-1.3688,-1.3688,-1.3688,-1.3688,-1.3688,-1.3688,-1.3803,-1.4277,-1.4629,-1.51,-1.6042,-1.6509,-1.7214,-1.8971,-1.9325,-1.9679,-2.0974,-2.0947,-2.0655,-2.0457,-2.0055,-1.9696,-1.9491,-1.9352,-1.9279,-1.9279,-1.9279,-1.9279,-1.9279,-1.9279,-1.9279,-1.9279,-1.9879,-2.0783,-2.1785,-2.1285,-2.1387,-2.2484,-2.2484,-2.2785,-2.3493,-2.389,-2.4402,-2.5118,-2.5528,-2.5742,-2.5742,-2.583,-2.611,-2.0053,-2.0163,-2.0371,-2.2342,-2.2574,-2.2149,-2.1825,-2.2035,-2.2435,-2.2957,-2.3426,-2.3974,-2.51,-2.5295,-2.5392,0.0,-2.5296,-2.506,-2.5335,-2.5821,-2.6036,-2.5423,-2.5008,0.0,0.0,0.0,0.0,0.0,0.0,0.0,0.0,-1.9366,-1.9366,-1.9366,-1.9366,-1.9243,-1.8771,-1.728,-1.5987,-1.4976,-1.4805,-1.4147,-1.3226,-1.395,-1.4133,-1.3775,-1.2951,-1.2719,-1.2964,-1.284,-1.284,-1.3084,-1.3084,-1.3204,-1.3324,-1.3324,-1.3444,-1.3569,-1.3569,-1.3569,-1.3688,-1.3688,-1.3688,-1.3688,-1.3688,-1.3688,-1.3688,-1.3688,-1.3569,-1.3569,-1.3569,-1.4277,-1.5337,-1.6509,-1.7097,-1.7917,-1.9557,-1.991,-2.0148,-2.0974,-2.0867,-2.0501,-2.0274,-1.9886,-1.9528,-1.9308,-1.9279,-1.9279,-1.9175,-1.9279,-1.9279,-1.9279,-1.9279,-1.9279,-1.9279,-2.0285,-2.1387,-2.2383,-2.2089,-2.2391,-2.3502,-2.3502,-2.3899,-2.4609,-2.4609,-2.5011,-2.5742,-2.5742,-2.5742,-2.5742,-2.5742,-2.5927,-2.083,-2.1582,-2.2428,-2.285,-2.2951,-2.3061,-2.3455,-2.4455,-2.4921,-2.3743,-2.4435,-2.5577,-2.636,-2.5877,0.0,-2.637,-2.5925,-2.5372,-2.5381,-2.6078,-2.6591,-2.6591,-2.5569,0.0,0.0,0.0,0.0,0.0,0.0,0.0,0.0,-1.9366,-1.9366,-1.9366,-1.9366,-1.8765,-1.7455,-1.6279,-1.4976,-1.3665,-1.2367,-1.1776,-1.1897,-1.3075,-1.3191,-1.2234,-1.2234,-1.2359,-1.2719,-1.2719,-1.2719,-1.2719,-1.2719,-1.2719,-1.2719,-1.2719,-1.2964,-1.3204,-1.3204,-1.3449,-1.3688,-1.3688,-1.3688,-1.3688,-1.3688,-1.3688,-1.3688,-1.3688,-1.3444,-1.3204,-1.3204,-1.3444,-1.4629,-1.8383,-1.8267,-1.815,-2.0622,-2.1211,-2.1211,-2.1211,-2.0684,-2.0237,-2.0237,-1.9703,-1.9279,-1.9272,-1.9272,-1.9175,-1.8974,-1.9175,-1.9279,-1.9279,-1.9279,-1.9272,-1.9272,-2.0285,-2.1387,-2.2492,-2.3493,-2.4599,-2.5635,-2.5742,-2.5742,-2.5742,-2.5742,-2.5742,-2.5742,-2.5742,-2.5742,-2.5742,-2.5742,-2.582,-2.3252,-2.353,-2.3706,-2.4273,-2.4722,-2.4996,-2.5019,-2.4951,-2.4896,-2.4735,-2.5499,-2.6264,-2.6456,-2.6254,0.0,-2.6889,-2.652,-2.6069,-2.5844,-2.6243,-2.6591,-2.6591,-2.6245,0.0,0.0,0.0,0.0,0.0,0.0,0.0,0.0,-1.9366,-1.9366,-1.9366,-1.9366,-1.8765,-1.7455,-1.6279,-1.4976,-1.3665,-1.2367,-1.1776,-1.1776,-1.213,-1.2251,-1.1889,-1.1889,-1.2126,-1.2359,-1.2359,-1.2359,-1.2359,-1.2359,-1.2479,-1.2719,-1.2719,-1.2719,-1.284,-1.284,-1.2964,-1.2964,-1.2964,-1.2964,-1.2964,-1.2964,-1.2964,-1.2964,-1.2964,-1.296,-1.284,-1.284,-1.2964,-1.3555,-1.5795,-1.7208,-1.8389,-1.9339,-2.004,-2.0622,-2.0622,-2.0175,-1.9828,-1.9725,-1.924,-1.8893,-1.8674,-1.8639,-1.8639,-1.8534,-1.8862,-1.8974,-1.8974,-1.9879,-2.038,-2.038,-2.2089,-2.3294,-2.3592,-2.4609,-2.5333,-2.5645,-2.5742,-2.5742,-2.5742,-2.5742,-2.5742,-2.5742,-2.5742,-2.5742,-2.5742,-2.5742,-2.582,-2.4117,-2.4278,-2.452,-2.5425,-2.5862,-2.6158,-2.6431,-2.5959,-2.5563,-2.6098,-2.6638,-2.6924,-2.6924,-2.6924,0.0,-2.7549,-2.7292,-2.6914,-2.6529,-2.6845,-2.7008,-2.6691,0.0,0.0,0.0,0.0,0.0,0.0,0.0,0.0,0.0,-1.9366,-1.9366,-1.9366,-1.8887,-1.8052,-1.6744,-1.5445,-1.4267,-1.296,-1.213,-1.1776,-1.1776,-1.1776,-1.1776,-1.1776,-1.1776,-1.1893,-1.2005,-1.2005,-1.2005,-1.2005,-1.2005,-1.2126,-1.2367,-1.2367,-1.2363,-1.2479,-1.2479,-1.2599,-1.2719,-1.2719,-1.2719,-1.2719,-1.2719,-1.2719,-1.2719,-1.2719,-1.2599,-1.2479,-1.2479,-1.2363,-1.2724,-1.449,-1.6267,-1.78,-1.8512,-1.957,-2.027,-2.027,-2.0018,-1.9752,-1.9563,-1.9171,-1.8828,-1.8632,-1.8401,-1.8325,-1.8422,-1.8436,-1.8757,-1.9272,-2.0078,-2.079,-2.12,-2.2902,-2.3908,-2.3908,-2.502,-2.5742,-2.5742,-2.5742,-2.5742,-2.5742,-2.5742,-2.5742,-2.5742,-2.5742,-2.5742,-2.5742,-2.5742,-2.583,-2.4269,-2.4593,-2.5205,-2.6355,-2.6648,-2.6829,-2.7494,-2.722,-2.6829,-2.7494,-2.7589,-2.7589,-2.7589,-2.762,-2.7809,-2.8271,-2.814,-2.7792,-2.7303,-2.7593,-2.752,-2.6691,0.0,0.0,0.0,0.0,0.0,0.0,0.0,0.0,0.0,-1.9366,-1.9366,-1.9366,-1.8169,-1.6868,-1.5575,-1.4381,-1.3075,-1.1776,-1.1776,-1.1776,-1.1776,-1.1776,-1.1776,-1.1776,-1.1776,-1.1776,-1.1776,-1.1776,-1.1776,-1.1776,-1.1776,-1.1776,-1.1776,-1.1776,-1.201,-1.2118,-1.2118,-1.2359,-1.2603,-1.2603,-1.2603,-1.2603,-1.2603,-1.2603,-1.2603,-1.2603,-1.2359,-1.2118,-1.2118,-1.201,-1.2251,-1.3899,-1.544,-1.6744,-1.7917,-1.9216,-2.0277,-2.0277,-1.9932,-1.973,-1.9703,-1.9208,-1.8805,-1.8749,-1.8294,-1.8016,-1.8318,-1.8115,-1.8534,-1.9879,-2.0181,-2.0696,-2.1725,-2.3029,-2.3827,-2.3827,-2.4932,-2.5635,-2.5635,-2.5645,-2.5742,-2.5742,-2.5742,-2.5742,-2.5742,-2.5742,-2.5742,-2.5742,-2.5742,-2.5742,-2.708,-2.69,-2.6822,-2.7284,-2.74,-2.76,-2.8362,-2.8466,-2.8175,-2.7683,-2.7589,-2.7589,-2.7589,-2.7893,-2.8292,-2.8743,-2.9026,-2.887,-2.7844,-2.7776,-2.752,0.0,0.0,0.0,0.0,0.0,0.0,0.0,0.0,0.0,-1.9366,-1.9366,-1.9366,-1.9366,-1.8169,-1.6868,-1.5575,-1.4381,-1.3075,0.0,-1.1776,-1.1776,-1.1776,-1.1776,-1.1776,-1.1776,-1.1776,-1.1776,-1.1776,-1.1776,-1.1776,-1.1776,-1.1776,-1.1776,-1.1776,-1.1776,-1.1897,-1.1893,-1.1893,-1.1893,-1.2014,-1.2014,-1.2014,-1.2014,-1.2014,-1.2014,-1.2014,-1.2014,-1.1893,-1.1893,-1.1893,-1.1897,-1.1897,-1.2371,-1.4147,-1.5924,-1.6402,-1.8175,-1.9591,-1.9591,-1.9543,-1.9422,-1.9185,-1.8847,-1.8448,-1.7962,-1.7728,-1.7694,-1.7793,-1.7905,-1.8436,-1.968,-2.0688,-2.1794,-2.282,-2.4134,-2.4833,-2.4637,-2.5137,-2.544,-2.544,-2.5635,-2.5742,-2.5742,-2.5742,-2.5742,-2.5742,-2.5742,-2.5742,-2.5742,-2.5742,-2.5742,-2.8115,-2.8021,-2.8215,-2.8691,-2.8877,-2.8969,-2.936,-2.9463,-2.9254,-2.8653,-2.8325,-2.8239,-2.8475,-2.8721,-2.9107,-2.9792,-3.0124,-2.9835,-2.8608,-2.8455,-2.7941,0.0,0.0,0.0,0.0,0.0,0.0,0.0,0.0,-1.9366,-1.9366,-1.9366,-1.9127,-1.8525,-1.7226,-1.5924,-1.4738,-1.3435,-1.2487,-1.1776,-1.1776,-1.1776,-1.1776,-1.1776,-1.1776,-1.1776,-1.1776,-1.1776,-1.1776,-1.1776,-1.1776,-1.1776,-1.1776,-1.1776,-1.1776,-1.1776,-1.1776,-1.1776,-1.1776,-1.1776,-1.1776,-1.1776,-1.1776,-1.1776,-1.1776,-1.1776,-1.1776,-1.1776,-1.1776,-1.1776,-1.1776,-1.1776,-1.1776,-1.1776,-1.3799,-1.5693,-1.5811,-1.7707,-1.9366,-1.9366,-1.9366,-1.9319,-1.9165,-1.8778,-1.8337,-1.7876,-1.7675,-1.7582,-1.7582,-1.8206,-1.9034,-2.0174,-2.1395,-2.2509,-2.3637,-2.444,-2.4833,-2.4735,-2.5039,-2.5333,-2.5333,-2.5538,-2.5742,-2.5742,-2.5742,-2.5742,-2.5742,-2.5742,-2.5742,-2.5742,-2.5742,-2.5742,-2.8859,-2.8892,-2.9567,-3.0158,-3.042,-3.0478,-3.0478,-3.0365,-3.0192,-2.9891,-2.931,-2.903,-2.9521,-2.9674,-2.998,-3.0766,-3.0963,-3.0531,-2.9242,-2.9081,-2.8465,0.0,0.0,0.0,0.0,0.0,0.0,0.0,0.0,-1.9366,-1.9366,-1.9243,-1.8648,-1.7572,-1.6042,-1.4738,-1.3665,-1.2487,-1.1776,-1.1776,-1.1776,-1.1776,-1.1776,-1.1776,-1.1776,-1.1776,-1.1776,-1.1776,-1.1776,-1.1776,-1.1776,-1.1776,-1.1776,-1.1776,-1.1776,-1.1776,-1.1776,-1.1776,-1.1776,-1.1776,-1.1776,-1.1776,-1.1776,-1.1776,-1.1776,-1.1776,-1.1776,-1.1776,-1.1776,-1.1776,-1.1776,-1.1776,-1.1897,-1.2134,-1.3913,-1.5575,-1.5575,-1.7584,-1.9366,-1.9366,-1.9366,-1.9352,-1.9299,-1.8844,-1.839,-1.809,-1.7782,-1.7687,-1.7891,-1.8757,-1.9828,-2.1178,-2.2105,-2.3033,-2.4262,-2.4387,-2.4538,-2.443,-2.4932,-2.5235,-2.5235,-2.5538,-2.5635,-2.5742,-2.5742,-2.5742,-2.5742,-2.5742,-2.5742,-2.5742,-2.5742,-2.5742,-3.111,-3.1045,-3.0979,-3.08,-3.114,-3.1469,-3.1469,-3.118,-3.0976,-3.114,-3.0186,-2.9532,-3.0024,-3.0439,-3.0745,-3.0876,-3.1247,-3.0916,-2.9292,-2.9081,-2.8465,0.0,0.0,0.0,0.0,0.0,0.0,0.0,-2.0723,-1.9366,-1.9366,-1.8409,-1.7689,-1.7455,-1.5203,-1.3904,-1.3665,-1.2487,-1.1776,-1.1776,-1.1776,-1.1776,-1.1776,-1.1776,-1.1776,-1.1776,-1.1776,-1.1776,-1.1776,-1.1776,-1.1776,-1.1776,-1.1776,-1.1776,-1.1776,-1.1776,-1.1776,-1.1776,-1.1776,-1.1776,-1.1776,-1.1776,-1.1776,-1.1776,-1.1776,-1.1776,-1.1776,-1.1776,-1.1776,-1.1776,-1.1776,-1.1776,-1.2134,-1.3195,-1.45,-1.5575,-1.5575,-1.7584,-1.9366,-1.9366,-1.9366,-1.9285,-1.9025,-1.8711,-1.839,-1.809,-1.7782,-1.7891,-1.8923,-1.9469,-2.0475,-2.2585,-2.2894,-2.3528,-2.4592,-2.4553,-2.444,-2.4251,-2.4735,-2.4932,-2.4932,-2.5235,-2.544,-2.5742,-2.5742,-2.5742,-2.5742,-2.5742,-2.5742,-2.5742,-2.5742,-2.5742,-3.3227,-3.2983,-3.2767,-3.266,-3.2774,-3.3034,-3.3034,-3.2859,-3.2453,-3.1678,-3.1091,-3.0721,-3.0658,-3.0756,-3.0985,-3.1258,-3.1487,-3.0991,-2.9303,-2.9081,-2.8465,0.0,0.0,0.0,0.0,0.0,0.0,0.0,-2.0385,-1.9366,-1.9366,-1.8887,-1.7935,-1.6514,-1.5332,-1.4028,-1.2603,-1.2134,-1.1776,-1.1776,-1.1776,-1.1776,-1.1776,-1.1776,-1.1776,-1.1776,-1.1776,-1.1776,-1.1776,-1.1776,-1.1776,-1.1776,-1.1776,-1.1776,-1.1776,-1.1776,-1.1776,-1.1776,-1.1776,-1.1776,-1.1776,-1.1776,-1.1776,-1.1776,-1.1776,-1.1776,-1.1776,-1.1776,-1.1776,-1.2014,-1.2724,-1.284,-1.3195,-1.45,-1.5688,-1.6626,-1.6626,-1.8058,-1.9366,-1.9366,-1.9366,-1.9325,-1.9192,-1.8931,-1.8691,-1.8557,-1.8283,-1.8516,-1.9677,-2.0529,-2.1494,-2.2988,-2.3709,-2.4149,-2.4445,-2.4352,-2.4251,-2.4251,-2.4646,-2.4932,-2.4932,-2.5333,-2.5538,-2.5742,-2.5742,-2.5742,-2.5742,-2.5742,-2.5742,-2.5732,-2.6284,-2.6552,-3.559,-3.525,-3.5009,-3.4702,-3.4763,-3.4785,-3.4445,-3.4268,-3.3811,0.0,-3.1948,-3.1562,-3.0983,-3.0882,-3.1001,-3.137,-3.1424,-3.0785,-2.8976,-2.8764,-2.8135,0.0,0.0,0.0,0.0,0.0,0.0,0.0,-2.0046,-1.9366,-1.9366,-1.9127,-1.7941,-1.5693,-1.5332,-1.4033,-1.1776,-1.1776,-1.1776,-1.1776,-1.1776,-1.1776,-1.1776,-1.1776,-1.1776,-1.1776,-1.1776,-1.1776,-1.1776,-1.1776,-1.1776,-1.1776,-1.1776,-1.1776,-1.1776,-1.1776,-1.1776,-1.1776,-1.1776,-1.1776,-1.1776,-1.1776,-1.1776,-1.1776,-1.1776,-1.1776,-1.1897,-1.213,-1.2251,-1.2608,-1.3904,-1.4143,-1.4495,-1.5806,-1.6868,-1.7572,-1.7929,-1.8765,-1.9366,-1.9366,-1.9366,-1.9366,-1.9366,-1.9118,-1.8925,-1.8925,-1.8677,-1.903,-2.0535,-2.1457,-2.2486,-2.3705,-2.4557,-2.4803,-2.4491,-2.4271,-2.4152,-2.4152,-2.4646,-2.4932,-2.4932,-2.544,-2.5742,-2.5742,-2.5742,-2.5742,-2.5742,-2.5742,-2.5742,-2.5732,-2.6733,-2.7189,-3.8379,-3.8283,-3.7951,-3.6711,-3.6713,-3.6867,-3.5663,-3.5129,-3.4509,-3.365,-3.2666,-3.1779,-3.0991,-3.0795,-3.0795,-3.0827,-3.0827,-3.0172,-2.8106,-2.7892,-2.7365,0.0,0.0,0.0,0.0,0.0,0.0,0.0,-2.0046,-1.9366,-1.9366,-1.8286,-1.6985,-1.5693,-1.4381,-1.3195,-1.1776,-1.1776,-1.1776,-1.1776,-1.1776,-1.1776,-1.1776,-1.1776,-1.1776,-1.1776,-1.1776,-1.1776,-1.1776,-1.1776,-1.1776,-1.1776,-1.1776,-1.1776,-1.1776,-1.1776,-1.1776,-1.1776,-1.1776,-1.1776,-1.1776,-1.1776,-1.1776,-1.1776,-1.1776,-1.1776,-1.2014,-1.3315,-1.3545,-1.3904,-1.5213,-1.5456,-1.5806,-1.7103,-1.7455,-1.7812,-1.9004,-1.9366,-1.9366,-1.9366,-1.9366,-1.9366,-1.9366,-1.9118,-1.8925,-1.8925,-1.8677,-1.9346,-2.1479,-2.2204,-2.3285,-2.5575,-2.5555,-2.5335,-2.5307,-2.4601,-2.4152,-2.4152,-2.4646,-2.4932,-2.4932,-2.544,-2.5742,-2.5742,-2.5742,-2.5742,-2.5742,-2.5742,-2.5742,-2.5732,-2.6733,-2.7189,-3.9817,-4.0054,-4.0236,-3.8978,-3.8269,-3.7714,-3.7287,-3.6451,-3.5367,-3.3697,-3.3001,-3.2308,-3.0609,-3.0527,-3.0838,-3.0838,-3.0172,-2.9303,-2.7999,-2.7149,-2.6409,-2.5789,0.0,0.0,0.0,0.0,0.0,0.0,0.0,-1.9366,-1.9366,-1.9004,-1.8169,-1.6868,-1.5564,-1.3913,-1.1776,-1.1776,-1.1776,-1.1776,-1.1776,-1.1776,-1.1776,-1.1776,-1.1776,-1.1776,-1.1526,-1.1522,-1.1522,-1.1522,-1.1402,-1.116,-1.1402,-1.1522,-1.1522,-1.1772,-1.1651,-1.1522,-1.1772,-1.1651,-1.1522,-1.1772,-1.1776,-1.1893,-1.2719,-1.3075,-1.3315,-1.45,-1.4976,-1.5213,-1.6509,-1.6862,-1.7103,-1.8409,-1.8525,-1.8525,-1.9249,-1.9366,-1.9366,-1.9366,-1.9366,-1.9366,-1.9366,-1.9279,-1.9205,-1.9205,-1.979,-2.083,-2.2371,-2.3378,-2.4479,-2.5879,-2.561,-2.5271,-2.5014,-2.4473,-2.4251,-2.4341,-2.4735,-2.4932,-2.5137,-2.5538,-2.5742,-2.5742,-2.5742,-2.5742,-2.5742,-2.5742,-2.6004,-2.6648,-2.7652,-2.8588,-4.142,-4.1684,-4.1864,-4.0746,-3.9871,-3.9067,-3.8289,-3.7204,-3.5904,-3.408,-3.3499,-3.27,-3.0888,-3.0806,-3.0909,-3.062,-2.9533,-2.8436,-2.7463,-2.6391,-2.5542,-2.5459,0.0,0.0,0.0,0.0,0.0,0.0,0.0,0.0,-1.9366,-1.9366,-1.8765,-1.7572,-1.58,-1.4147,-1.2487,-1.2014,-1.1776,-1.1776,-1.1776,-1.1776,-1.1776,-1.1776,-1.1776,-1.1776,-1.1398,-1.1273,-1.1273,-1.1152,-1.1031,-1.0789,-1.1031,-1.1152,-1.1152,-1.1402,-1.1281,-1.1152,-1.1402,-1.1639,-1.1877,-1.2126,-1.2603,-1.308,-1.4028,-1.4381,-1.4619,-1.5924,-1.6279,-1.6514,-1.7812,-1.8169,-1.8286,-1.9004,-1.9004,-1.8997,-1.9366,-1.9366,-1.9366,-1.9366,-1.9366,-1.9243,-1.9366,-1.9366,-1.9243,-1.9366,-2.0385,-2.1631,-2.2862,-2.4103,-2.5133,-2.6089,-2.5693,-2.5262,-2.5005,-2.4473,-2.4251,-2.444,-2.4735,-2.4932,-2.5137,-2.5538,-2.5742,-2.5742,-2.5742,-2.5742,-2.5742,-2.5742,-2.6187,-2.7189,-2.8308,-2.9692,0.0,0.0,0.0,-4.1932,-4.1587,-4.0986,-3.8725,-3.7311,-3.6182,-3.5041,-3.3993,-3.2901,-3.1779,-3.1575,-3.1176,-3.0193,-2.8996,-2.7785,-2.6698,-2.5533,-2.4787,-2.4778,0.0,0.0,0.0,0.0,0.0,0.0,-1.9366,-1.9366,-1.9366,-1.9366,-1.8765,-1.7572,-1.5084,-1.3784,-1.3784,-1.2487,-1.1897,-1.1897,-1.1897,-1.1776,-1.1776,-1.1776,-1.1776,-1.1776,-1.1398,-1.1273,-1.1273,-1.091,-1.0789,-1.0789,-1.0789,-1.0789,-1.0789,-1.0789,-1.091,-1.091,-1.091,-1.1752,-1.284,-1.3186,-1.4133,-1.5208,-1.5569,-1.5575,-1.5924,-1.722,-1.7572,-1.7812,-1.901,-1.9366,-1.9243,-1.8997,-1.8874,-1.8997,-1.9366,-1.9366,-1.9366,-1.9366,-1.912,-1.9004,-1.9366,-1.912,-1.8997,-1.9366,-2.05,-2.1737,-2.2869,-2.4103,-2.5348,-2.6473,-2.5858,-2.5372,-2.5372,-2.462,-2.4152,-2.4251,-2.4646,-2.4932,-2.4932,-2.544,-2.5742,-2.5742,-2.5732,-2.5732,-2.5732,-2.5732,-2.6187,-2.7274,-2.8495,-3.0429,-4.3329,0.0,0.0,0.0,0.0,0.0,-4.0802,0.0,-3.7337,-3.6288,-3.4509,-3.2901,-3.1779,-3.0991,-3.0391,-3.0099,-2.8996,-2.8116,-2.7785,-2.6073,-2.4991,-2.5305,0.0,0.0,0.0,0.0,0.0,0.0,-1.9236,-1.8997,-1.8997,-1.9243,-1.8765,-1.7572,-1.6862,-1.6037,-1.5095,-1.4743,-1.4033,-1.3195,-1.2955,-1.2483,-1.1776,-1.1281,-1.1156,-1.1402,-1.0789,-1.1148,-1.1872,-1.0906,-1.0304,-1.0061,-1.0304,-1.0425,-1.0547,-1.1756,-1.1993,-1.1993,-1.3191,-1.367,-1.3789,-1.4147,-1.4505,-1.4981,-1.5924,-1.6273,-1.6514,-1.8046,-1.8292,-1.8292,-1.8881,-1.8887,-1.8655,-1.8881,-1.8874,-1.8874,-1.9004,-1.9243,-1.9366,-1.9366,-1.9366,-1.9243,-1.9366,-1.9366,-1.9584,-2.0608,-2.1737,-2.2982,-2.4103,-2.5348,-2.6245,-2.6591,-2.5858,-2.5372,-2.5372,-2.462,-2.4251,-2.444,-2.4735,-2.5039,-2.5137,-2.5538,-2.5742,-2.5742,-2.637,-2.6829,-2.6733,-2.6004,-2.6562,-2.8308,-3.0441,-3.1837,-4.325,-4.3329,-4.3329,-4.3329,0.0,0.0,-4.1085,-3.9163,-3.7167,0.0,-3.4021,-3.2387,-3.1677,-3.1084,-3.0484,-3.0099,-2.9438,-2.8774,-2.8223,-2.6608,-2.5525,-2.5626,0.0,0.0,0.0,-2.2749,-2.2078,-2.0831,-2.0141,-1.9686,-1.912,-1.9243,-1.901,-1.8292,-1.7812,-1.7097,-1.6397,-1.5688,-1.4971,-1.4257,-1.4138,-1.3665,-1.2969,-1.2711,-1.2586,-1.259,-1.2109,-1.235,-1.2951,-1.2109,-1.1623,-1.1503,-1.1623,-1.1748,-1.1864,-1.2711,-1.2951,-1.2951,-1.3909,-1.4386,-1.4738,-1.509,-1.5575,-1.6172,-1.722,-1.7461,-1.7578,-1.8642,-1.8648,-1.8421,-1.8538,-1.8421,-1.8421,-1.8648,-1.8655,-1.8655,-1.9004,-1.9004,-1.901,-1.9366,-1.9243,-1.9352,-2.0046,-2.004,-2.0371,-2.1737,-2.2982,-2.3991,-2.4667,-2.5798,-2.6591,-2.6591,-2.5858,-2.5372,-2.5372,-2.462,-2.4251,-2.4538,-2.4735,-2.503,-2.5333,-2.5538,-2.5917,-2.6284,-2.6914,-2.7369,-2.784,-2.72,-2.7851,-2.9692,-3.156,-3.2475,-4.325,-4.325,-4.3329,-4.3329,-4.3329,0.0,-4.0589,-3.8564,-3.6762,0.0,-3.3563,-3.2072,-3.2072,-3.1971,-3.1575,-3.0588,-3.0287,-2.9754,-2.8552,-2.7463,-2.649,-2.5726,0.0,0.0,-2.3207,-2.3432,-2.3199,-2.2078,-2.1509,-2.0723,-1.9707,-1.9591,-1.9597,-1.9366,-1.8292,-1.7689,-1.7689,-1.6273,-1.5445,-1.5327,-1.5235,-1.5012,-1.4665,-1.4893,-1.4893,-1.454,-1.4157,-1.4143,-1.4262,-1.4023,-1.3784,-1.3665,-1.3665,-1.3665,-1.3665,-1.3904,-1.3904,-1.3904,-1.4023,-1.4857,-1.5806,-1.6149,-1.6997,-1.8083,-1.8655,-1.8532,-1.8415,-1.8648,-1.8532,-1.8305,-1.8083,-1.8194,-1.8421,-1.8421,-1.8311,-1.8317,-1.9133,-1.9004,-1.8881,-1.9475,-1.9236,-1.9455,-2.0938,-2.0923,-2.1259,-2.2974,-2.4103,-2.4898,-2.5008,-2.5907,-2.6591,-2.6591,-2.5858,-2.5372,-2.5372,-2.462,-2.4251,-2.4538,-2.4735,-2.503,-2.5333,-2.5625,-2.6284,-2.7189,-2.7463,-2.8028,-2.905,-2.8958,-2.9601,-3.0902,-3.1925,-3.2649,-4.3076,-4.317,-4.3329,-4.3329,-4.3329,0.0,-4.1893,-4.0519,-3.9278,0.0,-3.6351,-3.4739,-3.4739,-3.4032,-3.3418,-3.312,-3.2252,-3.1176,-2.9869,-2.8668,-2.7463,-2.6481,0.0,0.0,-2.3119,-2.2425,-2.1957,-2.1729,-2.1623,-2.1281,-2.0838,-2.0838,-2.0385,-1.9482,-1.9127,-1.901,-1.901,-1.8409,-1.7695,-1.6638,-1.6242,-1.5734,-1.4892,-1.4518,-1.4397,-1.4508,-1.3976,-1.4381,-1.5332,-1.5213,-1.4619,-1.3665,-1.3665,-1.3665,-1.3784,-1.4857,-1.5213,-1.5332,-1.6408,-1.6885,-1.712,-1.7485,-1.7602,-1.7719,-1.8077,-1.796,-1.7719,-1.7713,-1.8064,-1.8421,-1.8305,-1.8532,-1.8765,-1.8415,-1.8777,-1.9017,-1.8655,-1.9686,-2.0716,-2.0838,-2.0046,-1.9577,-2.058,-2.0931,-2.1843,-2.4103,-2.4667,-2.5119,-2.6136,-2.6473,-2.6591,-2.6591,-2.5858,-2.5372,-2.5372,-2.462,-2.4251,-2.4538,-2.4735,-2.503,-2.5333,-2.636,-2.701,-2.7189,-2.8773,-3.0079,-3.1104,-3.0441,-3.026,-3.0633,-3.2001,-3.2723,-4.2835,-4.309,0.0,-4.317,0.0,0.0,0.0,-4.059,-3.9149,-3.8145,-3.6219,-3.4715,-3.4715,-3.4216,-3.3911,-3.3911,-3.2844,-3.1768,-3.1278,-2.9942,-2.8455,-2.6698,-2.5954,0.0,-2.3127,-2.2885,-2.2765,-2.2749,-2.2974,-2.2862,-2.2191,-2.2078,-2.1517,-2.0385,-2.0308,-1.9924,-1.9351,-1.9002,-1.847,-1.7871,-1.7635,-1.7213,-1.6608,-1.6469,-1.6347,-1.6342,-1.5975,-1.6106,-1.6703,-1.6577,-1.6166,-1.5575,-1.5575,-1.5575,-1.5693,-1.629,-1.6526,-1.6649,-1.7244,-1.7485,-1.7602,-1.7849,-1.7849,-1.7843,-1.8311,-1.8298,-1.8181,-1.7948,-1.8188,-1.8421,-1.8421,-1.8532,-1.8648,-1.8648,-1.8997,-1.9455,-1.9686,-2.0601,-2.1509,-2.1828,-2.1502,-2.1509,-2.262,-2.2854,-2.3656,-2.5459,-2.5688,-2.5907,-2.6473,-2.6591,-2.6591,-2.6591,-2.5858,-2.5372,-2.5372,-2.4721,-2.444,-2.4637,-2.4932,-2.5411,-2.6264,-2.6819,-2.7652,-2.868,-3.017,-3.1193,-3.1661,-3.156,-3.146,-3.1472,-3.2276,-3.281,0.0,0.0,0.0,0.0,0.0,-4.29,0.0,0.0,0.0,-3.7377,-3.5817,-3.4703,-3.4703,0.0,0.0,0.0,0.0,0.0,0.0,-3.1611,0.0,-2.7346,-2.6698,0.0,-2.3664,-2.3896,-2.4119,-2.4103,-2.477,-2.4659,-2.3424,-2.332,-2.2757,-2.1402,-2.1184,-2.0627,-1.9824,-1.9273,-1.8922,-1.9037,-1.9029,-1.8846,-1.8729,-1.884,-1.8969,-1.8956,-1.867,-1.8545,-1.8526,-1.8252,-1.8171,-1.8208,-1.7867,-1.7713,-1.783,-1.7948,-1.8064,-1.8064,-1.783,-1.7948,-1.8064,-1.8305,-1.8648,-1.8991,-1.9325,-1.9325,-1.91,-1.8874,-1.8758,-1.8758,-1.8532,-1.8765,-1.8874,-1.8881,-1.9332,-1.9897,-2.0938,-2.1729,-2.2402,-2.283,-2.3303,-2.388,-2.4548,-2.4778,-2.5229,-2.6473,-2.6591,-2.6591,-2.6591,-2.6591,-2.6554,-2.6481,-2.5918,-2.5439,-2.5356,-2.4867,-2.4726,-2.4932,-2.5323,-2.6071,-2.7189,-2.7558,-2.8669,-3.0441,-3.1294,-3.1749,-3.1761,-3.2213,-3.24,-3.2388,-3.2636,-3.2896,0.0,0.0,0.0,0.0,-4.243,0.0,0.0,0.0,-3.9885,-3.8109,0.0,-3.7413,-3.7413,0.0,0.0,0.0,0.0,0.0,-3.4752,-3.4017,-3.2308,-2.9167,-2.7454,0.0,0.0,-2.4965,-2.4974,-2.4667,-2.5963,-2.6063,-2.4667,-2.4556,-2.3768,-2.2078,-2.1189,-2.1089,-2.1797,-2.0496,-1.9939,-2.0385,-2.0097,-1.9983,-1.9983,-1.9983,-2.0471,-2.1313,-2.1008,-2.0877,-2.0856,-2.0545,-2.0579,-2.0773,-1.9305,-1.8765,-1.8874,-1.9693,-2.004,-1.9809,-1.8991,-1.9339,-2.0033,-2.0012,-2.0902,-2.1919,-2.1692,-2.0902,-1.9998,-2.0005,-2.0228,-2.0228,-1.91,-1.9917,-2.0601,-1.9223,-2.0026,-2.0938,-2.0809,-2.2733,-2.4445,-2.4548,-2.545,-2.5789,-2.4522,-2.465,-2.5229,-2.6473,-2.6591,-2.6591,-2.6591,-2.6591,-2.6444,-2.6068,-2.5848,-2.5629,-2.5136,-2.4998,-2.4941,-2.5235,-2.6081,-2.6829,-2.7189,-2.8958,-3.0362,-3.1484,-3.1661,-3.1761,-3.195,-3.2213,-3.24,-3.2388,-3.2822,-3.3068,0.0,0.0,0.0,0.0,0.0,0.0,-4.0145,0.0,-3.9563,0.0,0.0,0.0,0.0,0.0,0.0,0.0,-3.6625,0.0,0.0,0.0,-3.3174,0.0,0.0,0.0,0.0,0.0,0.0,0.0,-2.6391,-2.6825,-2.6518,-2.5771,-2.4778,-2.3656,-2.327,-2.2689,-2.2015,-2.1399,-2.1061,-2.1122,-2.1019,-2.1114,-2.1284,-2.1284,-2.1534,-2.1887,-2.1695,-2.1554,-2.1533,-2.1223,-2.1174,-2.1265,-2.113,-2.0683,-2.0034,-2.0218,-2.027,-2.027,-2.0242,-2.0465,-2.0809,-2.1358,-2.2153,-2.2733,-2.262,-2.2281,-2.1828,-2.1828,-2.1941,-2.1949,-2.1388,-2.1729,-2.207,-2.138,-2.207,-2.2862,-2.3071,-2.4214,-2.5459,-2.5798,-2.6245,-2.6354,-2.578,-2.578,-2.6026,-2.6473,-2.6591,-2.6591,-2.6591,-2.6591,-2.6426,-2.6004,-2.5925,-2.561,-2.5172,-2.5168,-2.5137,-2.5333,-2.6914,-2.7934,-2.8028,-2.9977,-3.1294,-3.1661,-3.1849,-3.195,-3.2038,-3.2376,-3.255,-3.255,-3.2909,-3.3081,-4.2175,0.0,0.0,0.0,0.0,0.0,0.0,0.0,0.0,0.0,0.0,0.0,0.0,0.0,-3.7848,-3.7691,0.0,-3.6433,0.0,-3.5614,0.0,0.0,0.0,0.0,0.0,0.0,0.0,-2.7229,-2.7571,-2.7795,-2.7824,-2.6862,-2.5889,-2.5119,-2.4802,-2.4137,-2.2996,-2.2523,-2.2223,-2.2224,-2.1954,-2.2046,-2.2352,-2.2352,-2.2527,-2.2973,-2.2726,-2.2617,-2.2595,-2.2275,-2.2315,-2.2381,-2.2931,-2.2527,-2.1744,-2.1351,-2.1262,-2.1296,-2.1487,-2.1692,-2.2138,-2.3055,-2.3631,-2.3991,-2.3991,-2.3768,-2.3544,-2.3544,-2.3544,-2.3424,-2.3087,-2.3207,-2.3432,-2.3095,-2.3544,-2.4223,-2.4667,-2.5348,-2.6136,-2.6473,-2.6591,-2.6591,-2.6591,-2.6591,-2.6591,-2.6591,-2.6591,-2.6591,-2.6591,-2.6691,-2.6488,-2.5964,-2.5964,-2.5769,-2.5214,-2.5309,-2.5528,-2.58,-2.784,-2.9143,-2.9143,-3.0824,-3.1761,-3.1761,-3.2038,-3.2125,-3.2201,-3.2537,-3.2723,-3.2797,-3.2982,-3.3081,0.0,0.0,0.0,-4.0901,0.0,0.0,0.0,0.0,-3.8342,0.0,0.0,0.0,0.0,-3.79,-3.7717,-3.7129,-3.7521,0.0,0.0,0.0,0.0,0.0,0.0,0.0,0.0,0.0,-3.0522,-2.9704,-3.0016,-2.9533,-2.7931,-2.7716,-2.7079,-2.5679,-2.4761,-2.477,-2.5586,-2.3796,-2.3168,-2.3753,-2.294,-2.2684,-2.3125,-2.3125,-2.3795,-2.4988,-2.4972,-2.4964,-2.4941,-2.4585,-2.4648,-2.4885,-2.4317,-2.4253,-2.434,-2.366,-2.3536,-2.3689,-2.2757,-2.3175,-2.4394,-2.5331,-2.6017,-2.6473,-2.6473,-2.5679,-2.4778,-2.4778,-2.4778,-2.4445,-2.332,-2.388,-2.4445,-2.332,-2.388,-2.4778,-2.4778,-2.5688,-2.6591,-2.6591,-2.6591,-2.6591,-2.6591,-2.6591,-2.6591,-2.6591,-2.6591,-2.6591,-2.6591,-2.6791,-2.6682,-2.5899,-2.6304,-2.6256,-2.5331,-2.5547,-2.61,-2.7094,-2.905,-3.017,-3.017,-3.1383,-3.195,-3.195,-3.2213,-3.2475,-3.2723,-3.2711,-3.281,-3.3081,-3.3081,-3.3081,0.0,0.0,-4.1269,-4.01,0.0,0.0,0.0,0.0,0.0,0.0,0.0,0.0,0.0,-3.7611,-3.7638,-3.7625,-3.7769,-3.7835,0.0,0.0,0.0,0.0,0.0,0.0,0.0,0.0,0.0,-3.0717,-3.0078,-2.9723,-2.9533,-2.8562,-2.7814,-2.7079,-2.6726,-2.63,-2.5688,-2.5129,-2.4637,-2.4187,-2.3972,-2.3755,-2.3754,-2.3987,-2.4401,-2.4778,-2.5008,-2.5111,-2.5103,-2.4984,-2.5,-2.5087,-2.4841,-2.4682,-2.4643,-2.4525,-2.4506,-2.4713,-2.4893,-2.5318,-2.5898,-2.6245,-2.6473,-2.6591,-2.6591,-2.6364,-2.6017,-2.6017,-2.6017,-2.5907,-2.5459,-2.5688,-2.5907,-2.5459,-2.5679,-2.6017,-2.6017,-2.6364,-2.6591,-2.6591,-2.6591,-2.6591,-2.6591,-2.6591,-2.6591,-2.6591,-2.6591,-2.6591,-2.6591,-2.6781,-2.6682,-2.588,-2.6294,-2.6256,-2.541,-2.6177,-2.7105,-2.8121,-2.9429,-3.026,-3.0351,-3.1472,-3.2038,-3.23,-3.2463,-3.2636,-3.2711,-3.2896,-3.2982,-3.3081,-3.3081,-3.3081,-4.2092,-4.1814,0.0,-4.046,-3.959,0.0,-3.7795,0.0,0.0,0.0,0.0,0.0,0.0,0.0,-3.7611,-3.7703,-3.7808,-3.79,0.0,-3.79,0.0,0.0,0.0,0.0,0.0,-3.4169,-3.3604,-3.1893,-3.1214,-3.0639,0.0,0.0,-2.8774,-2.8252,-2.8252,-2.7814,-2.6961,-2.6754,-2.6098,-2.5224,-2.4896,-2.453,-2.4214,-2.422,-2.4349,-2.4595,-2.4825,-2.4992,-2.5111,-2.5349,-2.5472,-2.5472,-2.5717,-2.5805,-2.5894,-2.5434,-2.5453,-2.5775,-2.6557,-2.6779,-2.6793,-2.6793,-2.6701,-2.6591,-2.6591,-2.6591,-2.6591,-2.6591,-2.6591,-2.6591,-2.6591,-2.6591,-2.6591,-2.6591,-2.6591,-2.6591,-2.6591,-2.6591,-2.6591,-2.6591,-2.6591,-2.6591,-2.6591,-2.6591,-2.6591,-2.6591,-2.6591,-2.6582,-2.6682,-2.6999,-2.6896,-2.6182,-2.6788,-2.7032,-2.6526,-2.7568,-2.8402,-2.868,-2.9977,-3.0633,-3.0543,-3.156,-3.2386,-3.2758,-3.2823,-3.2909,-3.3096,-3.3082,-3.3081,-3.3081,-3.3081,-3.3081]},{"header":{"parameterUnit":"m.s-1","parameterCategory":1,"la1":30.6,"la2":29.2853,"lo1":-89.7004,"lo2":-87.6739,"dy":0.0162,"dx":0.0183,"nx":112,"ny":82,"refTime":"2023-04-12T06:00:00:Z","depth":0,"parameterNumber":3,"parameterNumberName":"V-component_of_WINDS"},"data":[0.0,0.0,0.0,0.0,0.0,0.0,0.0,0.0,0.0,0.0,0.0,0.0,0.0,0.0,0.0,0.0,0.0,0.0,0.0,0.0,0.0,0.0,0.0,0.0,0.0,0.0,0.0,0.0,0.0,0.0,0.0,0.0,0.0,0.0,0.0,0.0,0.0,0.0,0.0,0.0,0.0,0.0,0.0,0.0,0.0,0.0,0.0,0.0,0.0,0.0,0.0,0.0,0.0,0.0,0.0,0.0,0.0,0.0,0.0,0.0,0.0,0.0,0.0,0.0,0.0,0.0,0.0,0.0,0.0,0.0,0.0,0.0,0.0,0.0,0.0,0.0,0.0,0.0,0.0,0.0,0.0,0.0,0.0,0.0,0.0,0.0,0.0,0.0,0.0,0.0,-3.9561,-3.9882,-4.023,-4.0473,-4.0489,-4.0489,-4.0248,-3.9645,0.0,0.0,0.0,0.0,0.0,0.0,0.0,0.0,0.0,0.0,0.0,0.0,0.0,0.0,0.0,0.0,0.0,0.0,0.0,0.0,0.0,0.0,0.0,0.0,0.0,0.0,0.0,0.0,0.0,0.0,0.0,0.0,0.0,0.0,0.0,0.0,0.0,0.0,0.0,0.0,0.0,0.0,0.0,0.0,0.0,0.0,0.0,0.0,0.0,0.0,0.0,0.0,0.0,0.0,0.0,0.0,0.0,0.0,0.0,0.0,0.0,0.0,0.0,0.0,0.0,0.0,0.0,0.0,0.0,0.0,0.0,0.0,0.0,0.0,0.0,0.0,0.0,0.0,0.0,0.0,0.0,0.0,0.0,0.0,0.0,0.0,0.0,0.0,0.0,0.0,0.0,0.0,0.0,0.0,0.0,0.0,0.0,0.0,0.0,0.0,0.0,0.0,0.0,0.0,-3.984,-4.0336,-4.0285,-4.0321,-4.0489,-4.0489,-4.0248,-3.9645,0.0,0.0,0.0,0.0,0.0,0.0,0.0,0.0,0.0,0.0,0.0,0.0,0.0,0.0,0.0,0.0,0.0,0.0,0.0,0.0,0.0,0.0,0.0,0.0,0.0,0.0,0.0,0.0,0.0,0.0,0.0,0.0,0.0,0.0,0.0,0.0,0.0,0.0,0.0,0.0,0.0,0.0,0.0,0.0,0.0,0.0,0.0,0.0,0.0,0.0,0.0,0.0,0.0,0.0,0.0,0.0,0.0,0.0,0.0,0.0,0.0,0.0,0.0,0.0,0.0,0.0,0.0,0.0,0.0,0.0,0.0,0.0,0.0,0.0,0.0,0.0,0.0,0.0,0.0,0.0,0.0,0.0,0.0,0.0,0.0,0.0,0.0,0.0,0.0,0.0,0.0,0.0,0.0,0.0,0.0,0.0,0.0,0.0,0.0,0.0,0.0,0.0,0.0,-3.9383,-3.9683,-4.0082,-4.0177,-4.0286,-4.0489,-4.0489,-4.0283,-3.984,-3.9645,0.0,0.0,0.0,0.0,0.0,0.0,0.0,0.0,0.0,0.0,0.0,0.0,0.0,0.0,0.0,0.0,0.0,0.0,0.0,0.0,0.0,0.0,0.0,0.0,0.0,0.0,0.0,0.0,0.0,0.0,0.0,0.0,0.0,0.0,0.0,0.0,0.0,0.0,0.0,0.0,0.0,0.0,0.0,0.0,0.0,0.0,0.0,0.0,0.0,0.0,0.0,0.0,0.0,0.0,0.0,0.0,0.0,0.0,0.0,0.0,0.0,0.0,0.0,0.0,0.0,0.0,0.0,0.0,0.0,0.0,0.0,0.0,0.0,0.0,0.0,0.0,0.0,0.0,0.0,0.0,0.0,0.0,0.0,0.0,0.0,0.0,0.0,0.0,0.0,0.0,0.0,0.0,0.0,0.0,0.0,0.0,0.0,0.0,0.0,0.0,0.0,0.0,-3.9237,-3.9458,-3.9775,-3.9983,-4.0195,-4.0406,-4.0473,-4.0372,-4.0003,-3.969,0.0,0.0,0.0,0.0,0.0,0.0,0.0,0.0,0.0,0.0,0.0,0.0,0.0,0.0,0.0,0.0,0.0,0.0,0.0,0.0,0.0,0.0,0.0,0.0,0.0,0.0,0.0,0.0,0.0,0.0,0.0,0.0,0.0,0.0,0.0,0.0,0.0,0.0,0.0,0.0,0.0,0.0,0.0,0.0,0.0,0.0,0.0,0.0,0.0,0.0,0.0,0.0,0.0,0.0,0.0,0.0,0.0,0.0,0.0,0.0,0.0,0.0,0.0,0.0,0.0,0.0,0.0,0.0,0.0,0.0,0.0,0.0,0.0,0.0,0.0,0.0,0.0,0.0,0.0,0.0,0.0,0.0,0.0,0.0,0.0,0.0,0.0,0.0,0.0,0.0,0.0,0.0,0.0,0.0,0.0,0.0,0.0,0.0,0.0,0.0,0.0,0.0,-3.921,-3.9305,-3.9754,-3.9819,-3.9943,-4.0214,-4.0389,-4.0372,-4.0003,-3.969,0.0,0.0,0.0,0.0,0.0,0.0,0.0,0.0,0.0,0.0,0.0,0.0,0.0,0.0,0.0,0.0,0.0,0.0,0.0,0.0,0.0,0.0,0.0,0.0,0.0,0.0,0.0,0.0,0.0,0.0,0.0,0.0,0.0,0.0,0.0,0.0,0.0,0.0,0.0,0.0,0.0,0.0,0.0,0.0,0.0,0.0,0.0,0.0,0.0,0.0,0.0,0.0,0.0,0.0,0.0,0.0,0.0,0.0,0.0,0.0,0.0,0.0,0.0,0.0,0.0,0.0,0.0,0.0,0.0,0.0,0.0,0.0,0.0,0.0,0.0,0.0,0.0,0.0,0.0,0.0,0.0,0.0,0.0,0.0,0.0,0.0,0.0,0.0,0.0,0.0,0.0,0.0,0.0,0.0,0.0,0.0,0.0,0.0,0.0,0.0,0.0,0.0,-3.9045,-3.9227,-3.9754,-3.9797,-3.9944,-4.0356,-4.0457,-4.0372,-4.0003,0.0,0.0,0.0,0.0,0.0,0.0,0.0,0.0,0.0,0.0,0.0,0.0,0.0,0.0,0.0,0.0,0.0,0.0,0.0,0.0,0.0,0.0,0.0,0.0,0.0,0.0,0.0,0.0,0.0,0.0,0.0,0.0,0.0,0.0,0.0,0.0,0.0,0.0,0.0,0.0,0.0,0.0,0.0,0.0,0.0,0.0,0.0,0.0,0.0,0.0,0.0,0.0,0.0,0.0,0.0,0.0,0.0,0.0,0.0,0.0,0.0,0.0,0.0,0.0,0.0,0.0,0.0,0.0,0.0,0.0,0.0,0.0,0.0,0.0,0.0,0.0,0.0,0.0,0.0,0.0,0.0,0.0,0.0,0.0,0.0,0.0,0.0,0.0,0.0,0.0,0.0,0.0,0.0,0.0,0.0,0.0,0.0,0.0,0.0,0.0,0.0,0.0,-3.8881,-3.9036,-3.9272,-3.9595,-3.9775,-4.0003,-4.0356,-4.0441,-4.0375,-4.0022,0.0,0.0,0.0,0.0,0.0,0.0,0.0,0.0,0.0,0.0,0.0,0.0,0.0,0.0,0.0,0.0,0.0,0.0,0.0,0.0,0.0,0.0,0.0,0.0,0.0,0.0,0.0,0.0,0.0,0.0,0.0,0.0,0.0,0.0,0.0,0.0,0.0,0.0,0.0,0.0,0.0,0.0,0.0,0.0,0.0,0.0,0.0,0.0,0.0,0.0,0.0,0.0,0.0,0.0,0.0,0.0,0.0,0.0,0.0,0.0,0.0,0.0,0.0,0.0,0.0,0.0,0.0,0.0,0.0,0.0,0.0,0.0,0.0,0.0,0.0,0.0,0.0,0.0,0.0,0.0,0.0,0.0,0.0,0.0,0.0,0.0,0.0,0.0,0.0,0.0,0.0,0.0,0.0,0.0,0.0,0.0,0.0,0.0,0.0,0.0,0.0,0.0,-3.8822,-3.9156,-3.9376,-3.9324,-3.9728,-4.0022,-4.0101,-4.0342,-4.0342,0.0,0.0,0.0,0.0,0.0,0.0,0.0,0.0,0.0,0.0,0.0,0.0,0.0,0.0,0.0,0.0,0.0,0.0,0.0,0.0,0.0,0.0,0.0,0.0,0.0,0.0,0.0,0.0,0.0,0.0,0.0,0.0,0.0,0.0,0.0,0.0,0.0,0.0,0.0,0.0,0.0,0.0,0.0,0.0,0.0,0.0,0.0,0.0,0.0,0.0,0.0,0.0,0.0,0.0,0.0,0.0,0.0,0.0,0.0,0.0,0.0,0.0,0.0,0.0,0.0,0.0,0.0,0.0,0.0,0.0,0.0,0.0,0.0,0.0,0.0,0.0,0.0,0.0,0.0,0.0,0.0,0.0,0.0,0.0,0.0,0.0,0.0,0.0,0.0,0.0,0.0,0.0,0.0,0.0,0.0,0.0,0.0,0.0,0.0,0.0,0.0,0.0,0.0,-3.8822,-3.9156,-3.9452,-3.9575,-3.9897,-4.0158,-4.036,-4.0444,-4.0375,-4.0022,0.0,0.0,0.0,0.0,0.0,0.0,0.0,0.0,0.0,0.0,0.0,0.0,0.0,0.0,0.0,0.0,0.0,0.0,0.0,0.0,0.0,0.0,0.0,0.0,0.0,0.0,0.0,0.0,0.0,0.0,0.0,0.0,0.0,0.0,0.0,0.0,0.0,0.0,0.0,0.0,0.0,0.0,0.0,0.0,0.0,0.0,0.0,0.0,0.0,0.0,0.0,0.0,0.0,0.0,0.0,0.0,0.0,0.0,0.0,0.0,0.0,0.0,0.0,0.0,0.0,0.0,0.0,0.0,0.0,0.0,0.0,0.0,0.0,0.0,0.0,0.0,0.0,0.0,0.0,0.0,0.0,0.0,0.0,0.0,0.0,0.0,0.0,0.0,0.0,0.0,0.0,0.0,0.0,0.0,0.0,0.0,0.0,0.0,0.0,0.0,0.0,0.0,-3.8822,-3.9245,-3.9599,-3.9693,-4.002,-4.0307,-4.0466,-4.0495,-4.0375,-4.0062,0.0,0.0,0.0,0.0,0.0,0.0,0.0,0.0,0.0,0.0,0.0,0.0,0.0,0.0,0.0,0.0,0.0,0.0,0.0,0.0,0.0,0.0,0.0,0.0,0.0,0.0,0.0,0.0,0.0,0.0,0.0,0.0,0.0,0.0,0.0,0.0,0.0,0.0,0.0,0.0,0.0,0.0,0.0,0.0,0.0,0.0,0.0,0.0,0.0,0.0,0.0,0.0,0.0,0.0,0.0,0.0,0.0,0.0,0.0,0.0,0.0,0.0,0.0,0.0,0.0,0.0,0.0,0.0,0.0,0.0,0.0,0.0,0.0,0.0,0.0,0.0,0.0,0.0,0.0,0.0,0.0,0.0,0.0,0.0,0.0,0.0,0.0,0.0,0.0,0.0,0.0,0.0,0.0,0.0,0.0,0.0,0.0,0.0,0.0,0.0,0.0,0.0,-3.8822,-3.9401,-3.9762,-3.9717,-4.0119,-4.0432,-4.0502,-4.0502,-4.0396,-4.0158,0.0,0.0,0.0,0.0,0.0,0.0,0.0,0.0,0.0,0.0,0.0,0.0,0.0,0.0,0.0,0.0,0.0,0.0,0.0,0.0,0.0,0.0,0.0,0.0,0.0,0.0,0.0,0.0,0.0,0.0,0.0,0.0,0.0,0.0,0.0,0.0,0.0,0.0,0.0,0.0,0.0,0.0,0.0,0.0,0.0,0.0,0.0,0.0,0.0,0.0,0.0,0.0,0.0,0.0,0.0,0.0,0.0,0.0,0.0,0.0,-3.8942,0.0,0.0,0.0,0.0,0.0,0.0,0.0,0.0,0.0,0.0,0.0,0.0,0.0,0.0,0.0,0.0,0.0,0.0,0.0,0.0,0.0,0.0,0.0,0.0,0.0,0.0,0.0,0.0,0.0,0.0,0.0,0.0,0.0,0.0,0.0,0.0,0.0,0.0,0.0,0.0,0.0,-3.8822,-3.9401,-3.9762,-3.9717,-4.0158,-4.0466,-4.0502,-4.0495,-4.0495,-4.0413,-4.0196,0.0,0.0,0.0,0.0,0.0,0.0,0.0,0.0,0.0,0.0,0.0,0.0,0.0,0.0,0.0,0.0,0.0,0.0,0.0,0.0,0.0,0.0,0.0,0.0,0.0,0.0,0.0,0.0,0.0,0.0,0.0,0.0,0.0,0.0,0.0,0.0,0.0,0.0,0.0,0.0,0.0,0.0,0.0,0.0,0.0,0.0,0.0,0.0,0.0,0.0,0.0,0.0,0.0,0.0,0.0,0.0,0.0,0.0,0.0,0.0,-3.9248,0.0,0.0,0.0,0.0,0.0,0.0,0.0,0.0,0.0,0.0,0.0,0.0,0.0,0.0,0.0,0.0,0.0,0.0,0.0,0.0,0.0,0.0,0.0,0.0,0.0,0.0,0.0,0.0,0.0,0.0,0.0,0.0,0.0,0.0,0.0,0.0,0.0,0.0,0.0,0.0,-3.9219,-3.9561,-3.9854,-3.9939,-4.0288,-4.0495,-4.0495,-4.0508,-4.0508,-4.0495,-4.0251,0.0,0.0,0.0,0.0,0.0,0.0,0.0,0.0,0.0,0.0,0.0,0.0,0.0,0.0,0.0,0.0,0.0,0.0,0.0,0.0,0.0,0.0,0.0,0.0,0.0,0.0,0.0,0.0,0.0,0.0,0.0,0.0,0.0,0.0,0.0,0.0,0.0,0.0,0.0,0.0,0.0,0.0,0.0,0.0,0.0,0.0,0.0,0.0,0.0,0.0,0.0,0.0,0.0,-3.8821,-3.916,-3.9011,-3.9815,-4.0176,-4.0191,-3.9572,-3.9663,-4.02,-4.0138,0.0,0.0,0.0,0.0,0.0,0.0,0.0,0.0,0.0,0.0,0.0,0.0,0.0,0.0,0.0,0.0,0.0,0.0,0.0,0.0,0.0,0.0,0.0,0.0,-3.989,-3.9915,0.0,0.0,0.0,0.0,0.0,0.0,0.0,0.0,0.0,0.0,0.0,0.0,-4.0085,-4.023,-4.0344,-4.0387,-4.0603,-4.0662,-4.0508,-4.0489,-4.0489,-4.0489,-4.0285,-3.9718,0.0,0.0,0.0,0.0,0.0,0.0,0.0,0.0,0.0,0.0,0.0,0.0,0.0,0.0,0.0,0.0,0.0,0.0,0.0,0.0,0.0,0.0,0.0,0.0,0.0,0.0,0.0,0.0,0.0,0.0,0.0,0.0,-3.2657,-3.3494,0.0,0.0,0.0,0.0,0.0,0.0,0.0,0.0,0.0,0.0,0.0,0.0,0.0,-3.71,-3.7414,-3.836,-3.8829,-3.8843,-3.9831,-4.0265,-4.0175,-4.0307,-4.0332,-4.0281,-4.0166,0.0,-4.021,-4.0193,0.0,0.0,0.0,0.0,0.0,0.0,0.0,0.0,0.0,0.0,0.0,0.0,0.0,0.0,0.0,0.0,0.0,0.0,0.0,0.0,0.0,0.0,-4.1285,-4.1314,-4.1455,-4.1578,0.0,-4.124,-4.1101,-4.1794,-4.1903,0.0,0.0,0.0,0.0,0.0,0.0,0.0,-4.1945,-4.2172,-4.2048,-4.1323,-4.1468,-4.1316,-4.0546,-4.0489,-4.0489,-4.0489,-4.0473,-4.0173,-3.958,-3.8975,0.0,0.0,0.0,0.0,0.0,0.0,0.0,0.0,0.0,0.0,0.0,0.0,0.0,0.0,0.0,0.0,0.0,0.0,0.0,0.0,0.0,0.0,0.0,0.0,0.0,0.0,0.0,0.0,0.0,-3.3042,-3.3665,-3.4557,-3.4169,-3.4046,0.0,0.0,0.0,0.0,0.0,0.0,0.0,0.0,0.0,-3.6958,-3.7776,-3.8288,-3.845,-3.9369,-3.9791,-3.9691,-4.0104,-4.0245,-4.012,-4.0212,-4.0176,-4.0081,-4.0139,-4.0139,-4.0041,-4.0101,-3.9943,-3.959,0.0,0.0,0.0,0.0,-3.8876,-3.9073,-3.9173,-3.9279,0.0,-3.9219,0.0,0.0,0.0,0.0,0.0,0.0,0.0,0.0,0.0,0.0,0.0,-4.1736,-4.1969,-4.2289,-4.2886,-4.2978,-4.2774,0.0,-4.2386,-4.2386,-4.2059,0.0,0.0,0.0,0.0,-4.236,-4.2658,-4.2698,-4.2604,-4.2389,-4.2458,-4.2181,-4.1296,-4.1239,-4.0976,-4.0377,-4.0194,-3.9963,-3.9609,-3.9058,-3.8454,0.0,0.0,0.0,0.0,0.0,0.0,0.0,0.0,0.0,0.0,0.0,0.0,0.0,0.0,0.0,0.0,0.0,0.0,0.0,0.0,0.0,0.0,0.0,0.0,0.0,0.0,0.0,0.0,-3.4129,-3.4576,-3.5282,-3.4924,-3.4674,0.0,0.0,0.0,0.0,0.0,0.0,-3.636,-3.7239,-3.7832,-3.8003,-3.8873,-3.9363,-3.9327,-4.0005,-4.0279,-4.012,-4.012,-4.0041,-3.9911,-4.0,-3.9979,-3.9911,-4.0019,-3.9979,-3.9911,-4.0,-3.9939,-3.9728,-3.958,-3.9364,-3.9144,-3.9063,-3.9208,-3.9395,-3.9593,-3.9745,-3.9883,-3.993,0.0,-4.1139,-4.1025,0.0,0.0,0.0,0.0,-4.2203,-4.2203,-4.2203,-4.2273,-4.2481,-4.2699,-4.3066,-4.3945,-4.4345,-4.425,0.0,-4.3269,-4.3289,-4.3054,0.0,0.0,0.0,0.0,-4.3247,-4.3632,-4.354,-4.3425,-4.3415,-4.3412,-4.3066,-4.222,-4.1931,-4.1426,-4.0596,-4.0137,-3.9772,-3.9508,-3.9245,-3.8702,-3.7831,0.0,0.0,0.0,0.0,0.0,0.0,0.0,0.0,0.0,0.0,0.0,0.0,0.0,0.0,0.0,0.0,0.0,0.0,0.0,0.0,0.0,0.0,0.0,0.0,0.0,0.0,0.0,0.0,0.0,-3.5308,-3.5054,0.0,0.0,0.0,0.0,-3.5732,-3.672,-3.7335,-3.7335,-3.8347,-3.8879,-3.8842,-3.9642,-4.0001,-3.996,-3.9937,-3.9933,-3.9911,-3.9911,-3.9911,-3.9889,-3.9911,-3.9911,-3.9889,-3.9911,-3.9911,-3.9889,-3.9911,-3.9911,-3.9848,-3.9599,-3.9647,-3.9826,-3.9556,-3.9647,-3.9958,-4.0679,-4.0915,-4.1022,-4.1509,-4.2116,-4.2686,-4.2667,-4.3243,0.0,0.0,-4.3875,-4.3875,-4.3875,-4.3875,-4.3949,-4.4215,-4.4298,-4.438,-4.4675,-4.4973,-4.5226,0.0,-4.5433,-4.5342,-4.5025,0.0,-4.5247,-4.5004,-4.5168,-4.536,-4.547,-4.547,-4.5143,-4.4335,-4.4239,-4.3912,-4.3104,-4.2277,-4.1694,-4.1457,-4.0654,-3.9981,-3.9508,-3.9483,-3.8932,-3.7831,-3.7785,0.0,0.0,0.0,0.0,0.0,0.0,0.0,0.0,0.0,0.0,0.0,0.0,0.0,0.0,0.0,0.0,0.0,0.0,0.0,0.0,0.0,0.0,0.0,0.0,0.0,0.0,0.0,0.0,-3.5226,-3.5493,0.0,-3.591,-3.6482,-3.6876,-3.7015,-3.7909,-3.8404,-3.8385,-3.9261,-3.9738,-3.9661,-3.9925,-4.0017,-3.9996,-3.9933,-4.0195,-4.0745,-4.0745,-4.101,-4.1522,-4.1522,-4.1522,-4.1522,-4.1522,-4.1522,-4.1522,-4.1522,-4.0877,-3.9889,-3.9781,-3.9823,-3.9965,-4.0428,-4.0589,-4.0722,-4.1412,-4.1593,-4.1611,-4.2238,-4.2616,-4.289,-4.3429,-4.3763,-4.4005,-4.4005,-4.4005,-4.4005,-4.4005,-4.4005,-4.4017,-4.4121,-4.426,-4.4465,-4.4726,-4.5007,-4.5282,-4.555,-4.5586,-4.5568,-4.5438,-4.5495,-4.5531,-4.5438,-4.5495,-4.5568,-4.5586,-4.5586,-4.547,-4.5163,-4.5143,-4.4778,-4.3932,-4.2944,-4.2068,-4.1295,-4.0309,-3.9604,-3.9245,-3.9245,-3.9061,-3.8646,-3.8646,-3.8201,0.0,0.0,0.0,0.0,0.0,0.0,0.0,0.0,0.0,0.0,0.0,0.0,0.0,0.0,0.0,0.0,0.0,0.0,0.0,0.0,0.0,0.0,0.0,0.0,0.0,0.0,-3.5698,-3.5649,-3.6232,-3.671,-3.6892,-3.7528,-3.8004,-3.8132,-3.8954,-3.9413,-3.9375,-3.991,-4.0291,-4.0516,-4.0454,-4.0566,-4.0829,-4.0786,-4.1048,-4.1598,-4.1598,-4.1882,-4.2412,-4.2412,-4.2412,-4.2412,-4.2412,-4.2412,-4.2412,-4.2412,-4.1749,-4.0745,-4.0745,-4.0745,-4.0821,-4.1389,-4.1505,-4.1499,-4.213,-4.2436,-4.26,-4.3051,-4.3206,-4.3299,-4.3838,-4.4005,-4.4005,-4.4005,-4.4209,-4.4432,-4.4432,-4.4636,-4.4872,-4.4978,-4.4897,-4.4879,-4.5142,-4.5198,-4.5243,-4.5419,-4.555,-4.5586,-4.5586,-4.5586,-4.5586,-4.5586,-4.5586,-4.5586,-4.5586,-4.5586,-4.5586,-4.5586,-4.5586,-4.5337,-4.467,-4.377,-4.2717,-4.1468,-4.0542,-3.9758,-3.9147,-3.9073,-3.9073,-3.9073,-3.9073,-3.8628,-3.772,0.0,0.0,0.0,0.0,0.0,0.0,0.0,0.0,0.0,0.0,0.0,0.0,0.0,0.0,0.0,0.0,0.0,0.0,0.0,0.0,0.0,0.0,0.0,-3.5097,-3.5867,-3.6539,-3.6547,-3.7254,-3.7731,-3.7731,-3.8534,-3.9049,-3.9049,-3.9852,-4.0348,-4.033,-4.0291,-4.0595,-4.1314,-4.1328,-4.1684,-4.2393,-4.2412,-4.2412,-4.245,-4.245,-4.245,-4.2488,-4.2488,-4.2488,-4.2488,-4.2488,-4.2488,-4.2488,-4.2488,-4.2488,-4.2465,-4.2431,-4.2412,-4.2389,-4.2408,-4.2375,-4.2335,-4.2857,-4.3457,-4.4005,-4.4005,-4.4023,-4.4042,-4.4042,-4.4061,-4.4079,-4.4079,-4.4692,-4.5342,-4.5342,-4.5918,-4.6592,-4.6847,-4.6232,-4.5698,-4.5994,-4.5612,-4.5258,-4.5239,-4.5458,-4.5624,-4.5586,-4.5586,-4.5586,-4.5586,-4.5586,0.0,-4.5586,-4.5586,-4.5586,-4.5586,-4.5586,-4.5495,-4.5222,-4.4633,-4.3617,-4.2096,-4.142,-4.0476,-3.9147,-3.9036,-3.9007,-3.9007,-3.8979,-3.8618,-3.7822,0.0,0.0,0.0,0.0,0.0,0.0,0.0,0.0,0.0,0.0,0.0,0.0,0.0,0.0,0.0,0.0,0.0,0.0,0.0,0.0,0.0,-3.6615,-3.7146,-3.6203,-3.6867,-3.7419,-3.7368,-3.8113,-3.8648,-3.8648,-3.9431,-3.9947,-3.9947,-4.0692,-4.1131,-4.1033,-4.1603,-4.1998,-4.2098,-4.2094,-4.2208,-4.2412,-4.2412,-4.2716,-4.3341,-4.3341,-4.3644,-4.4213,-4.4213,-4.4213,-4.4213,-4.4213,-4.4213,-4.4213,-4.4213,-4.4164,-4.3951,-4.2839,-4.2342,-4.2322,-4.2969,-4.342,-4.3718,-4.3718,-4.385,-4.4005,-4.4005,-4.4432,-4.4934,-4.4934,-4.5342,-4.5807,-4.5807,-4.5992,-4.616,-4.616,-4.6327,-4.6527,-4.6605,-4.6419,-4.637,-4.6857,-4.6822,-4.6667,-4.6455,-4.6492,-4.6336,-4.5701,-4.5586,-4.5586,-4.5586,-4.5586,0.0,-4.5586,-4.5586,-4.5586,-4.5531,-4.5513,-4.5419,-4.514,-4.4268,-4.3227,-4.207,-4.1106,-4.0122,-3.9138,-3.9073,-3.9073,-3.9073,-3.9036,-3.8896,0.0,0.0,0.0,0.0,0.0,0.0,0.0,0.0,0.0,0.0,0.0,0.0,0.0,0.0,0.0,0.0,0.0,0.0,0.0,0.0,0.0,0.0,-3.76,-3.8211,-3.7682,-3.8029,-3.8319,-3.8247,-3.9011,-3.968,-4.0005,-4.0501,-4.096,-4.1323,-4.1762,-4.197,-4.1888,-4.2303,-4.2696,-4.2989,-4.2943,-4.3114,-4.3436,-4.3815,-4.4251,-4.4743,-4.5085,-4.5483,-4.5956,-4.5956,-4.5956,0.0,-4.5956,-4.5956,-4.5937,-4.588,-4.5802,0.0,0.0,0.0,0.0,0.0,-4.4318,-4.4322,-4.4495,-4.4544,-4.4599,-4.4934,-4.5379,-4.5788,-4.5788,-4.6122,-4.6494,-4.6494,-4.6735,-4.6995,-4.6995,-4.7256,-4.7516,-4.7516,-4.7256,-4.7122,-4.7532,-4.747,-4.7295,-4.7238,-4.705,0.0,-4.622,-4.5836,-4.5586,-4.5586,-4.5586,-4.5586,-4.5586,-4.5586,-4.5531,-4.54,-4.5362,-4.5222,-4.4849,-4.434,0.0,0.0,0.0,-4.0467,-3.9101,-3.9064,0.0,0.0,0.0,-3.9007,-3.9036,0.0,0.0,0.0,-3.5606,-3.5007,0.0,0.0,0.0,0.0,0.0,0.0,0.0,0.0,0.0,0.0,0.0,0.0,0.0,0.0,0.0,0.0,-3.8551,-3.9248,-3.9254,-3.9313,-3.9296,-3.9164,-3.9909,-4.0731,-4.1418,-4.159,-4.1972,-4.2737,-4.283,-4.2846,-4.2806,0.0,0.0,0.0,0.0,-4.4459,-4.5179,-4.5937,-4.6335,-4.6335,-4.7055,-4.7397,-4.7397,-4.7397,-4.7397,-4.7397,-4.7397,-4.7397,-4.7397,-4.7257,-4.7231,-4.7203,-4.6327,-4.5904,-4.5809,-4.566,-4.5151,-4.4629,-4.5239,0.0,0.0,-4.6271,-4.655,-4.6643,-4.6643,-4.6698,-4.6773,-4.6773,-4.7274,-4.785,-4.785,-4.837,-4.8909,-4.8909,-4.8351,-4.7913,-4.822,-4.7909,-4.765,-4.7857,-4.751,-4.7125,-4.7011,-4.6222,-4.5586,-4.5586,-4.5586,-4.5586,-4.5586,-4.5568,-4.5457,-4.5222,0.0,0.0,-4.4438,-4.4599,-4.418,-4.2865,-4.2193,-4.1015,-3.9239,-3.9063,-3.9007,-3.9007,-3.9007,-3.9036,-3.9101,-3.8921,-3.8713,-3.841,-3.6894,-3.5792,0.0,0.0,0.0,0.0,0.0,0.0,0.0,0.0,0.0,0.0,0.0,0.0,0.0,0.0,0.0,-3.8556,-3.9449,-4.0132,-4.008,-4.0635,-4.0807,-4.0138,-4.0769,-4.1323,-4.1476,-4.2144,-4.2622,-4.2794,-4.3385,-4.3706,-4.3583,-4.4912,-4.5661,-4.5735,-4.6335,-4.6752,-4.6904,-4.7074,-4.7169,-4.7169,0.0,0.0,-4.7397,-4.7397,-4.7397,-4.7397,-4.7397,-4.7397,-4.7397,-4.7257,-4.7408,-4.7685,-4.6862,-4.6532,-4.6501,-4.6382,-4.6225,-4.6081,-4.6197,-4.6271,-4.629,-4.6438,-4.694,-4.746,-4.746,-4.7924,0.0,-4.8444,-4.8556,-4.8667,-4.8667,-4.8779,-4.8909,-4.8909,-4.8779,-4.8818,-4.9363,-4.9397,-4.9277,-4.9102,-4.899,-4.8625,-4.7695,-4.6455,-4.5586,-4.5586,-4.5586,-4.5586,-4.5586,-4.5419,-4.5243,-4.5118,-4.4938,-4.4676,-4.4346,-4.4374,-4.3924,-4.2883,-4.1463,-4.0514,-4.016,-3.9444,-3.9073,-3.9073,-3.9073,-3.9073,-3.9101,-3.9073,-3.8931,-3.8695,-3.7303,-3.6458,0.0,0.0,0.0,0.0,0.0,0.0,0.0,0.0,0.0,0.0,0.0,-3.794,-3.8118,0.0,-3.9528,-3.9584,-4.002,-4.0479,-4.0845,-4.1246,-4.1342,-4.096,-4.1648,-4.2316,-4.2717,-4.3138,-4.3577,-4.4017,-4.4798,-4.5211,-4.5103,-4.6278,-4.689,-4.679,-4.7188,-4.7397,-4.7397,-4.7832,-4.8041,-4.806,-4.8458,-4.8647,-4.8647,-4.8647,-4.8647,-4.8647,-4.8647,-4.8647,-4.8647,-4.84,-4.8328,-4.8375,-4.7965,-4.7555,-4.7201,-4.7122,-4.6847,-4.655,-4.6958,-4.7107,-4.7163,-4.7571,-4.798,-4.8296,-4.8296,-4.8574,-4.8909,-4.8909,-4.8909,-4.8909,-4.8909,-4.8909,-4.8909,-4.8909,-4.8909,-4.9075,-4.9665,-4.9803,-4.9848,-5.0027,-4.9604,-4.9062,-4.864,-4.749,-4.6512,-4.6052,-4.6128,-4.6031,-4.5477,-4.5263,-4.5074,-4.4776,-4.4624,-4.4457,-4.4162,-4.4151,-4.3755,-4.2853,-4.2054,-4.1237,-4.042,-3.9974,-3.9547,-3.9101,-3.9101,-3.9101,-3.9101,-3.9101,-3.8989,-3.8773,-3.8107,-3.7588,0.0,0.0,0.0,0.0,0.0,0.0,0.0,-3.8166,-3.8079,-3.8219,-3.8613,-3.9033,-3.9237,-3.9793,-4.0233,-4.0379,-4.0478,-4.0767,-4.1418,-4.1781,-4.1991,-4.1991,-4.2603,-4.3291,-4.394,-4.4303,-4.4781,-4.5468,-4.6285,-4.6714,-4.6625,-4.7357,-4.7739,-4.7643,-4.7795,-4.7889,-4.7889,-4.8572,-4.8913,-4.8932,-4.9576,-4.9898,-4.9898,-4.9898,-4.9898,-4.9898,-5.0069,-5.0117,-5.0015,-4.992,-4.9679,-4.9392,-4.9392,-4.8983,-4.8389,-4.8054,-4.7516,-4.7051,-4.7701,-4.7924,-4.8036,-4.8686,-4.8909,-4.8909,-4.8909,-4.8909,-4.8909,-4.8909,-4.8909,-4.8909,-4.8909,-4.8909,-4.8909,-4.8909,-4.8909,-4.9075,-4.9665,-4.9803,-4.9962,-5.0483,-4.9863,-4.9296,-4.9466,-4.8766,-4.7857,-4.6887,-4.6915,-4.6704,-4.5795,-4.5592,-4.5309,-4.4701,-4.459,-4.4437,-4.4036,-4.4005,-4.3726,-4.3076,-4.289,-4.2222,-4.0921,-4.0717,-4.0215,-3.9361,-3.9342,-3.9268,-3.9101,-3.9101,-3.9017,-3.8862,-3.8822,-3.851,-3.7901,-3.8072,-3.8047,-3.8202,-3.8264,-3.846,0.0,-3.927,-3.9399,-4.0062,-4.0246,-4.0287,-4.0338,-4.0386,-4.0449,-4.0415,-4.0976,-4.1475,-4.1514,-4.2775,-4.373,-4.373,-4.3825,-4.3902,-4.3997,-4.5354,-4.6271,-4.6366,-4.7188,-4.7598,-4.7462,-4.8281,-4.8682,-4.8579,-4.9235,-4.9614,-4.9614,-4.9709,-4.9765,-4.9765,-4.9841,-4.9898,-4.9898,-4.9898,-4.9898,-4.9936,-5.0713,-5.0845,-5.0573,-5.1311,-5.1432,-5.1119,-5.1119,-5.1063,-5.0803,-4.9317,-4.8723,-4.8649,-4.8723,-4.8779,-4.8779,-4.8872,-4.8909,-4.8909,-4.8909,-4.8909,-4.8909,-4.8909,-4.8909,-4.8909,-4.8909,-4.8909,-4.8909,-4.8909,-4.8909,-4.9075,-4.9665,-4.9803,-4.9891,-5.0202,-5.0153,-5.0002,-4.9784,-4.9834,-4.9472,-4.8106,-4.7738,-4.7573,-4.7455,-4.7011,-4.6374,-4.5547,-4.5301,-4.4854,-4.4061,-4.4005,-4.3968,-4.3875,-4.3206,-4.2723,-4.2537,-4.185,-4.107,-4.0271,-4.0253,-3.9863,-3.9101,-3.9101,-3.9101,-3.9073,-3.8892,-3.851,-3.8365,-3.8805,-3.916,-3.9168,-3.9513,-3.9937,-4.0139,-4.0169,-4.0211,-4.0457,-4.0489,-4.0508,-4.0495,-4.0466,-4.0588,-4.1032,-4.1341,-4.1858,-4.2813,-4.3558,-4.4188,-4.4704,-4.5182,-4.5449,-4.5449,-4.6099,-4.671,-4.7226,-4.8022,-4.8471,-4.8357,-4.9106,-4.9492,-4.9386,-5.022,-5.0656,-5.0656,-5.113,-5.1357,-5.1357,-5.1357,-5.1357,-5.1357,-5.1357,-5.1357,-5.1376,-5.1755,-5.1695,-5.1386,-5.1762,-5.1712,-5.1398,-5.1398,-5.1398,-5.1249,-5.0042,-4.9615,-4.9577,-4.9076,-4.8909,-4.8909,-4.8909,-4.8909,-4.8909,-4.8909,-4.8909,-4.8909,-4.8909,-4.8909,-4.8909,-4.8909,-4.8909,-4.8909,-4.8909,-4.8909,-4.9027,-4.9469,-4.9588,-4.9655,-4.9936,-4.983,-4.9768,-4.9803,-4.9749,-4.9603,-4.9134,-4.8728,-4.8162,-4.7326,-4.7043,-4.651,-4.5525,-4.5363,-4.4952,-4.4079,-4.4005,-4.4005,-4.4005,-4.367,-4.328,-4.2816,-4.2482,-4.1924,-4.1107,-4.1089,-4.0921,-4.055,-4.0067,-3.9787,-3.9605,-3.9054,-3.851,-3.9227,-3.9676,-4.0145,-4.0092,-4.0549,-4.0968,-4.0759,-4.0734,-4.0687,-4.0534,-4.0508,-4.0511,-4.0502,-4.0432,-4.0649,-4.1474,-4.1762,-4.2354,-4.3806,-4.4418,-4.4934,-4.5564,-4.6366,-4.6959,-4.7188,-4.7226,-4.7474,-4.8105,-4.8876,-4.9306,-4.9232,-4.9936,-5.0339,-5.0258,-5.1092,-5.1547,-5.1547,-5.2115,-5.24,-5.24,-5.24,-5.24,-5.24,-5.24,-5.24,-5.2419,-5.2665,-5.2564,-5.225,-5.2494,-5.2404,-5.2067,-5.2067,-5.2067,-5.1955,-5.1101,-5.0673,-5.0432,-4.9819,-4.9596,-4.9596,-4.9596,-4.9596,-4.9596,-4.9596,-4.9429,-4.9243,-4.9243,-4.9076,-4.8909,-4.8909,-4.8909,-4.8909,-4.8909,-4.8909,-4.8993,-4.9321,-4.9415,-4.9457,-4.9655,-4.9529,-4.9457,-4.9655,-4.9529,-4.9457,-4.9655,-4.9364,-4.875,-4.7728,-4.7316,-4.6807,-4.6043,-4.5751,-4.5287,-4.4432,-4.4358,-4.4265,-4.4023,-4.4005,-4.3745,-4.315,-4.3132,-4.2742,-4.1943,-4.1924,-4.1813,-4.159,-4.1014,-4.0581,-4.0302,-3.9651,-3.8994,-4.1016,-4.1042,-4.1069,-4.1069,-4.1088,-4.1046,-4.0846,-4.0801,-4.074,-4.0545,-4.0495,-4.0502,-4.0502,-4.0396,-4.0594,-4.1474,-4.2259,-4.3061,-4.3883,-4.5411,-4.6443,-4.6462,-4.7245,-4.8086,0.0,-4.9003,-4.9022,-4.906,-4.9759,-5.0125,-5.007,-5.081,-5.1231,-5.1168,-5.1945,-5.2362,-5.2362,-5.24,-5.24,-5.24,-5.24,-5.24,-5.24,-5.24,-5.24,-5.2456,-5.329,-5.3433,-5.3118,-5.3977,-5.4106,-5.3738,-5.3738,-5.3738,-5.3627,-5.2828,-5.2029,-5.1361,-5.1323,-5.1323,-5.1323,-5.1323,-5.1323,-5.1323,-5.1323,-5.0785,-5.0153,-5.0079,-4.9503,-4.8909,-4.8909,-4.8909,-4.8909,-4.8909,-4.8909,-4.8993,-4.9321,-4.9415,-4.9415,-4.9396,-4.9415,-4.9415,-4.9396,-4.9415,-4.9415,-4.9396,-4.9377,-4.9358,-4.934,-4.8362,-4.7646,-4.7627,-4.6921,-4.6141,-4.5324,-4.5249,-4.4896,-4.4061,-4.4005,-4.3986,-4.3968,-4.3968,-4.3596,-4.2779,-4.276,-4.237,-4.159,-4.1571,-4.1433,-4.1167,-4.0851,-4.0161,-4.1094,-4.1101,-4.1108,-4.1108,-4.1108,-4.1051,-4.0855,-4.081,-4.0751,-4.0545,-4.0495,-4.0432,-4.0214,-4.0711,-4.138,-4.202,-4.2961,-4.4093,-4.5468,-4.6137,-4.671,-4.7302,-4.8124,-4.8774,-4.906,0.0,0.0,-4.9862,-5.0636,-5.104,-5.0964,-5.1665,-5.2085,-5.2002,-5.2817,-5.3271,-5.3271,-5.3802,-5.4067,-5.4067,-5.4067,-5.4067,-5.4067,-5.4067,-5.391,-5.3672,-5.3973,-5.3746,-5.3216,-5.3758,-5.3794,-5.3481,-5.3717,-5.3813,-5.3775,-5.3497,-5.3218,-5.2847,-5.1769,-5.1398,-5.1398,-5.1398,-5.1398,-5.1398,-5.1398,-5.1212,-5.0989,-5.0971,-5.0766,-5.0562,-5.0562,-5.0562,-5.0562,-5.0562,-5.0562,-5.0598,-5.0685,-5.0719,-5.0719,-5.0719,-5.0291,-4.9918,-4.9862,-4.9415,-4.9061,-4.9061,-4.9061,-4.9061,-4.9061,-4.8717,-4.8296,-4.7757,-4.746,-4.6977,-4.616,-4.5602,-4.5157,-4.4878,-4.4321,-4.4005,-4.4005,-4.4005,-4.3875,-4.3596,-4.3596,-4.3373,-4.2918,-4.2382,-4.1897,-4.1451,-4.0781,-4.0167,-4.1094,-4.1101,-4.1108,-4.1108,-4.1078,-4.1028,-4.0846,-4.0781,-4.0715,-4.053,-4.0392,-4.0252,-4.0042,-4.0786,-4.1642,-4.2287,-4.3297,-4.459,-4.6271,-4.6768,-4.7302,-4.8162,-4.9003,-4.9519,-4.9519,0.0,0.0,-5.0741,-5.1204,-5.1567,-5.182,-5.2539,-5.2911,-5.2873,-5.3551,-5.3905,-5.3905,-5.4269,-5.4533,-5.468,-5.468,-5.4761,-5.4901,-5.4761,-5.4533,-5.4296,-5.4158,-5.3758,-5.323,-5.3641,-5.36,-5.3341,-5.3678,-5.3813,-5.3813,-5.3813,-5.3813,-5.3664,-5.2624,-5.2271,-5.2271,-5.2271,-5.2271,-5.2271,-5.2271,-5.2067,-5.1825,-5.1825,-5.1621,-5.1398,-5.1398,-5.1398,-5.1398,-5.1398,-5.1398,-5.1398,-5.1398,-5.1398,-5.1398,-5.1398,-5.0971,-5.0618,-5.058,-4.9875,-4.9243,-4.8946,-4.8909,-4.8909,-4.8909,-4.8909,-4.8704,-4.8184,-4.8129,-4.7794,-4.6995,-4.6438,-4.59,-4.5342,-4.4766,-4.4321,-4.4005,-4.4005,-4.4005,-4.4005,-4.391,-4.3763,-4.3579,-4.2981,-4.2448,-4.1971,-4.143,-4.0845,-4.1094,-4.1101,-4.1108,-4.1108,-4.1057,-4.0954,-4.0829,-4.0749,-4.0655,-4.0519,-4.0232,-3.9983,-3.9963,-4.0604,-4.137,-4.2242,-4.3297,-4.4609,-4.6328,-4.7283,-4.8143,-4.9041,-4.9862,-5.0378,-5.0378,-5.1162,0.0,-5.1735,0.0,-5.1858,-5.262,-5.3357,-5.3764,-5.3764,-5.4137,-5.4315,-5.4315,-5.3925,-5.3888,-5.4262,-5.4262,-5.4449,-5.4822,-5.4449,-5.4262,-5.4228,-5.3851,-5.3471,-5.3189,-5.3602,-5.36,-5.3341,-5.3678,-5.3813,-5.3813,-5.3813,-5.3813,-5.3813,-5.3813,-5.3813,-5.3813,-5.3813,-5.3813,-5.3813,-5.3813,-5.3274,-5.2661,-5.2661,-5.2104,-5.1528,-5.1528,-5.1528,-5.1528,-5.1528,-5.1528,-5.1528,-5.1528,-5.1528,-5.1528,-5.1528,-5.1491,-5.1454,-5.1416,-5.0692,-4.9837,-4.9076,-4.8927,-4.8909,-4.8909,-4.8909,-4.8909,-4.8909,-4.8909,-4.8593,-4.7831,-4.772,-4.7051,-4.5509,-4.5342,-4.4915,-4.4066,-4.3992,-4.3974,-4.3974,-4.373,-4.3579,-4.3545,-4.3286,-4.2995,-4.2673,-4.2673,-4.2121,-4.1104,-4.1108,-4.1108,-4.1108,-4.1057,-4.0954,-4.0829,-4.0707,-4.0596,-4.0511,-4.0177,-3.9859,-3.9645,-4.0431,-4.1325,-4.1983,-4.3168,-4.4819,-4.715,-4.7665,-4.8353,-4.9824,-5.076,-5.1276,-5.1276,-5.2002,0.0,0.0,-5.3429,-5.3448,-5.3552,-5.4324,-5.4696,-5.4598,-5.4678,-5.4597,-5.4296,-5.3925,-5.3758,-5.3833,-5.3833,-5.3925,-5.3997,-5.3906,-5.3701,-5.3388,-5.3285,-5.3143,-5.2975,-5.318,-5.3404,-5.3524,-5.3717,-5.3813,-5.3813,-5.3813,-5.3813,-5.3813,-5.3813,-5.3813,-5.3813,-5.3813,-5.3813,-5.3813,-5.3813,-5.3664,-5.3497,-5.3497,-5.3348,-5.32,-5.32,-5.32,-5.32,-5.32,-5.32,-5.32,-5.32,-5.32,-5.32,-5.32,-5.2698,-5.2104,-5.1491,-5.0692,-5.0042,-4.9819,-4.928,-4.8909,-4.8909,-4.8909,-4.8909,-4.8909,-4.8909,-4.8816,-4.8612,-4.8036,-4.7516,-4.7107,-4.5955,-4.5111,-4.4635,-4.4011,-4.3597,-4.341,-4.3339,-4.3178,-4.2921,-4.2864,-4.2691,-4.2391,-4.2391,-4.2244,-4.1108,-4.1108,-4.1108,-4.1108,-4.1017,-4.089,-4.081,-4.0578,-4.0367,-4.0286,-3.9901,-3.9505,-3.9358,-4.0201,-4.1165,-4.1863,-4.3145,-4.4895,-4.7455,-4.7799,-4.843,-5.0111,-5.1066,-5.1601,-5.1601,-5.2671,-5.3569,0.0,-5.4078,-5.4154,-5.4409,-5.4657,-5.4735,-5.4648,-5.4296,-5.3925,-5.3508,-5.3285,-5.3285,-5.3428,-5.3428,-5.3547,-5.3683,-5.3508,-5.3308,-5.3096,0.0,-5.2743,-5.2698,-5.3096,-5.3326,-5.3487,-5.3813,-5.3944,-5.3907,-5.3832,-5.3813,-5.3813,-5.3813,-5.3813,-5.3813,-5.3813,-5.3813,-5.3813,-5.3813,-5.3813,-5.3813,-5.3813,-5.3813,-5.3813,-5.3813,-5.3813,-5.3813,-5.3813,-5.3813,-5.3813,-5.3813,-5.3813,-5.3813,-5.3813,-5.3441,-5.2865,-5.2067,-5.1528,-5.0952,-5.0209,-4.9726,-4.9299,-4.8946,-4.8909,-4.8909,-4.8909,-4.8909,-4.8909,-4.8909,-4.85,-4.8004,-4.7529,-4.6625,-4.5672,-4.4618,-4.416,-4.3669,-4.3214,-4.305,-4.2882,-4.2711,-4.2555,-4.2472,-4.2287,-4.2287,-4.2287,-4.1108,-4.1108,-4.1108,-4.1108,-4.0955,-4.0801,-4.0801,-4.0438,-4.0081,-4.0002,-3.9529,-3.9099,-3.9099,-3.9949,-4.094,-4.1856,-4.3099,-4.4853,-4.7433,-4.7799,-4.8468,-5.0264,-5.1238,-5.1811,-5.1926,-5.3359,-5.4276,-5.4276,-5.4225,-5.4451,-5.5056,-5.4666,-5.4345,-5.4228,-5.3508,-5.2944,-5.2572,-5.2544,-5.269,-5.3011,-5.3011,-5.3203,-5.3547,-5.3162,-5.3011,-5.3011,-5.2645,0.0,-5.2536,-5.3138,-5.337,-5.3431,-5.3907,-5.4091,-5.4091,-5.387,-5.3813,-5.3813,-5.3813,-5.3813,-5.3813,-5.3813,-5.3813,-5.3813,-5.3813,-5.3813,-5.3813,-5.3813,-5.3813,-5.3813,-5.3813,-5.3813,-5.3813,-5.3813,-5.3813,-5.3813,-5.3813,-5.3813,-5.3813,-5.3813,-5.3813,-5.359,-5.2884,-5.2679,-5.2104,-5.0655,-5.0246,-4.9856,-4.915,-4.8964,-4.8909,-4.8909,-4.8909,-4.8909,-4.8909,-4.8874,-4.8399,-4.7427,-4.7206,-4.636,-4.4634,-4.4379,-4.3923,-4.3269,-4.286,-4.2634,-4.2634,-4.2432,-4.2287,-4.2287,-4.2287,-4.2287,-4.1108,-4.1108,-4.1108,-4.1108,-4.0955,-4.0801,-4.0801,-4.0385,-4.0002,-3.9922,-3.9494,-3.911,-3.911,-3.9807,-4.0719,-4.183,-4.2937,-4.4638,-4.7392,-4.7799,-4.8697,-5.1104,-5.2098,-5.2862,-5.3607,-5.4581,-5.5174,0.0,-5.5148,-5.5134,-5.5094,-5.4697,-5.4274,-5.3796,-5.3367,-5.3054,-5.2987,-5.269,-5.2544,-5.2599,-5.2599,-5.2645,-5.2735,-5.2645,-5.2599,-5.2618,-5.2526,0.0,-5.345,-5.3407,-5.3777,-5.433,-5.4179,-5.4091,-5.4091,-5.387,-5.3813,-5.3813,-5.3813,-5.3813,-5.3813,-5.3813,-5.3813,-5.3813,-5.3813,-5.3813,-5.3813,-5.3813,-5.3813,-5.3813,-5.3813,-5.3813,-5.3813,-5.3813,-5.3813,-5.3813,-5.3813,-5.3813,-5.3813,-5.3813,-5.3813,-5.3775,-5.3627,-5.3051,-5.2512,-5.2215,-5.0989,-5.006,-4.9912,-4.9317,-4.8909,-4.8909,-4.8909,-4.8909,-4.8909,-4.866,-4.8403,-4.8218,-4.7311,-4.6527,-4.5992,-4.4668,-4.3808,-4.3453,-4.2749,-4.2351,-4.2351,-4.2328,-4.2287,-4.2287,-4.2287,-4.2287,-4.1108,-4.1108,-4.1085,-4.1061,-4.0921,-4.0771,-4.0665,-4.0168,-3.9731,-3.9702,-3.9279,-3.9039,-3.9446,-3.9933,-4.0756,-4.2156,-4.3076,-4.4526,-4.721,-4.7709,-4.8754,-5.1314,-5.2308,-5.3129,-5.4027,-5.4887,-5.5403,-5.5403,-5.5403,-5.5332,-5.5149,-5.4503,-5.3795,-5.3096,-5.2919,-5.2806,-5.2806,-5.2618,-5.2281,-5.1864,-5.2299,-5.2281,-5.1882,-5.2299,-5.2498,-5.2498,-5.2498,0.0,-5.3388,-5.3508,-5.3925,-5.4416,-5.4303,-5.4303,-5.43,-5.3944,-5.3888,-5.3944,-5.3851,-5.3813,-5.3813,-5.3813,-5.3813,-5.3813,-5.3813,-5.3813,-5.3813,-5.3813,-5.3813,-5.3813,-5.3813,-5.3813,-5.3813,-5.3813,-5.3813,-5.3813,-5.3813,-5.3813,-5.3813,-5.3813,-5.3813,-5.3813,-5.3813,-5.3478,-5.3088,-5.2661,-5.1565,-5.0618,-5.0172,-4.925,-4.8623,-4.8623,-4.8623,-4.8587,-4.8439,-4.8288,-4.8132,-4.7915,-4.7407,-4.6801,-4.6047,-4.5311,-4.4456,-4.3536,-4.3126,-4.2715,-4.2287,-4.2287,-4.2287,-4.2287,-4.2287,-4.2287,-4.1108,-4.1108,-4.1081,-4.1006,-4.0882,-4.074,-4.0472,-3.9948,-3.95,-3.9433,-3.9165,-3.9148,-3.9772,-4.0357,-4.1149,-4.2482,-4.324,-4.4562,-4.7036,-4.7596,-4.8724,-5.1544,-5.2354,-5.3112,-5.4135,-5.4787,-5.5159,-5.5159,-5.5159,-5.5094,-5.4933,-5.4221,-5.341,-5.2544,-5.2317,-5.2226,-5.2226,-5.2063,-5.1665,-5.1049,-5.1846,-5.19,-5.1321,-5.2118,-5.2498,-5.2498,-5.2618,0.0,0.0,-5.3624,-5.3997,-5.4315,-5.4405,-5.4486,-5.4533,-5.4036,-5.3944,-5.4055,-5.387,-5.3813,-5.3813,-5.3813,-5.3813,-5.3813,-5.3813,-5.3813,-5.3813,-5.3813,-5.3813,-5.3813,-5.3813,-5.3813,-5.3813,-5.3813,-5.3813,-5.3813,-5.3813,-5.3813,-5.3813,-5.3813,-5.3813,-5.3813,-5.3813,-5.3813,-5.359,-5.2958,-5.2178,-5.1361,-5.0488,-4.9381,-4.8586,-4.8326,-4.8307,-4.8249,-4.8032,-4.7951,-4.7788,-4.7511,-4.7425,-4.7006,-4.607,-4.5891,-4.5231,-4.4036,-4.3839,-4.3358,-4.2555,-4.2555,-4.2465,-4.2287,-4.2287,-4.2287,-4.1108,-4.1108,-4.1078,-4.0935,-4.0843,-4.0671,-4.0233,-3.9848,-3.9505,-3.9219,-3.9483,-3.9808,-3.9882,-4.1107,-4.2249,-4.2637,-4.3416,-4.4755,-4.708,-4.7429,-4.8745,-5.2264,-5.2479,-5.2978,-5.4571,-5.4522,-5.4416,-5.4416,-5.4416,-5.4311,-5.4011,-5.3869,-5.341,-5.2544,-5.1774,-5.1411,-5.1411,-5.0669,-5.0271,-5.0198,-5.1013,-5.1357,-5.1321,-5.2118,-5.2498,-5.2544,-5.2875,0.0,0.0,-5.3925,-5.4281,-5.4315,-5.45,-5.4597,-5.4565,-5.4214,-5.4091,-5.4055,-5.387,-5.3813,-5.3813,-5.3813,-5.3813,-5.3813,-5.3813,-5.3813,-5.3813,-5.3813,-5.3813,-5.3813,-5.3813,-5.3813,-5.3813,-5.3813,-5.3813,-5.3813,-5.3813,-5.3813,-5.3813,-5.3813,-5.3813,-5.3813,-5.3813,-5.3813,-5.3775,-5.3701,-5.2995,-5.2197,-5.1379,-5.0287,-4.9171,-4.8145,-4.8032,-4.8032,-4.7992,-4.7705,-4.7554,-4.7511,-4.7205,-4.7007,-4.6873,-4.6195,-4.5731,-4.5588,-4.4874,-4.4143,-4.3393,-4.3393,-4.3019,-4.2287,-4.2287,-4.2287,-4.1108,-4.1108,-4.1055,-4.0867,-4.0791,-4.0614,-4.0154,-3.9797,-3.9596,-3.9798,-3.9871,-4.0194,-4.1167,-4.1864,-4.2466,-4.3092,-4.3638,-4.4656,-4.6518,-4.6967,-4.8437,-5.2091,-5.2389,-5.2968,-5.4655,-5.4685,-5.4528,-5.4315,-5.4315,-5.4104,-5.3626,-5.3567,-5.3005,-5.1837,-5.1466,-5.1049,-5.056,-5.0253,-4.9854,-4.9383,-5.018,-5.056,-5.0597,-5.1411,-5.2027,-5.2526,-5.2944,0.0,0.0,-5.4088,-5.4449,-5.4648,-5.4629,-5.4661,-5.473,-5.4249,-5.4163,-5.4252,-5.3907,-5.3813,-5.3813,-5.3813,-5.3813,-5.3813,-5.3813,-5.3813,-5.3813,-5.3813,-5.3813,-5.3813,-5.3813,-5.3813,-5.3813,-5.3813,-5.3813,-5.3813,-5.3813,-5.3813,-5.3813,-5.3813,-5.3813,-5.3813,-5.3813,-5.3813,-5.3832,-5.3944,-5.3182,-5.2289,-5.1435,-5.019,-4.9007,-4.7938,-4.7765,-4.7621,-4.7407,-4.7294,-4.7205,-4.7205,-4.707,-4.6998,-4.6998,-4.6676,-4.6284,-4.582,-4.5499,-4.4946,-4.4178,-4.4178,-4.3786,-4.3019,-4.3019,-4.2751,-4.1046,-4.1051,-4.1013,-4.0818,-4.0721,-4.0532,-3.9984,-3.9849,-3.9933,-4.014,-4.0406,-4.0965,-4.2084,-4.2488,-4.2837,-4.3406,-4.3682,-4.4466,-4.616,-4.6589,-4.8101,-5.1714,-5.2081,-5.2661,-5.4307,-5.4359,-5.4209,-5.3999,-5.3962,0.0,-5.3304,-5.3263,-5.2621,-5.1348,-5.1049,-5.0542,-4.9745,-4.951,-4.9112,-4.8568,-4.9365,-4.9854,-5.0108,-5.0923,-5.1737,-5.2544,-5.3054,0.0,0.0,-5.4228,-5.4565,-5.4711,-5.4711,-5.4791,-5.4841,-5.442,-5.4337,-5.4405,-5.4091,-5.4,-5.3963,-5.3907,-5.387,-5.387,-5.3813,-5.3813,-5.3813,-5.3813,-5.3813,-5.3813,-5.3813,-5.3813,-5.3813,-5.3813,-5.3813,-5.3813,-5.3813,-5.3813,-5.3813,-5.3813,-5.3813,-5.3813,-5.387,-5.387,-5.3944,-5.4163,-5.346,-5.2642,-5.1769,-5.0386,-4.9131,-4.82,-4.7698,-4.7338,-4.7088,-4.7043,-4.7043,-4.7043,-4.7043,-4.7043,-4.6998,-4.6998,-4.673,-4.6159,-4.6159,-4.5766,-4.4963,-4.4963,-4.4589,-4.3839,-4.3839,-4.3536,-4.0889,-4.0942,-4.0948,-4.0752,-4.066,-4.0408,-3.9683,-4.0134,-4.0544,-4.0001,-4.1167,-4.2286,-4.2304,-4.2947,-4.3479,-4.3497,-4.3479,-4.4168,-4.6127,-4.6415,-4.7756,-5.1373,-5.1535,-5.1936,-5.3571,-5.34,-5.3206,-5.3206,-5.3206,0.0,-5.2999,-5.2893,-5.2353,-5.1321,-5.0524,-4.9727,-4.8931,-4.8134,-4.7735,-4.7735,-4.855,-4.9329,-5.0108,-5.0923,-5.1737,0.0,0.0,0.0,0.0,-5.4416,-5.468,-5.4349,-5.4742,-5.4901,-5.4871,-5.4661,-5.4597,-5.4565,-5.4439,-5.439,-5.4356,-5.4163,-5.4091,-5.4055,-5.387,-5.3813,-5.3813,-5.3813,-5.3813,-5.3813,-5.3813,-5.3813,-5.3813,-5.3813,-5.3813,-5.3813,-5.3813,-5.3813,-5.3813,-5.3813,-5.3813,-5.387,-5.4055,-5.4091,-5.4163,-5.4356,-5.4055,-5.3478,-5.2605,-5.1132,-4.9864,-4.9065,-4.7987,-4.7276,-4.7178,-4.7196,-4.7196,-4.7196,-4.7196,-4.7133,-4.6998,-4.6998,-4.6998,-4.698,-4.698,-4.6587,-4.5784,-4.5784,-4.5374,-4.4607,-4.4607,-4.4589,-4.0752,-4.0781,-4.0762,-4.0597,-4.0823,-4.0959,-4.0429,-4.0798,-4.1303,-4.1503,-4.1956,-4.247,-4.302,-4.3314,-4.341,-4.3142,-4.3087,-4.3707,-4.5387,-4.5644,-4.7095,-5.0985,-5.2344,-5.3144,-5.3664,0.0,-5.3206,-5.3206,-5.3206,0.0,-5.2999,-5.2955,-5.2204,-5.0675,-5.0279,-4.9438,-4.8098,-4.7844,-4.7717,-4.7717,-4.7971,-4.8786,-5.009,-5.0343,-5.1212,0.0,0.0,0.0,0.0,-5.4533,-5.4822,-5.4711,-5.4871,-5.4901,-5.4871,-5.4661,-5.4597,-5.4565,-5.4458,-5.4409,-5.439,-5.4321,-5.4198,-5.4091,-5.4018,-5.3907,-5.3813,-5.3813,-5.3813,-5.3813,-5.3813,-5.3813,-5.3832,-5.3981,-5.3907,-5.3851,-5.3981,-5.3907,-5.3832,-5.3981,-5.4018,-5.3981,-5.3907,-5.3907,-5.3851,-5.3738,-5.3505,-5.3009,-5.218,-5.0986,-4.984,-4.8905,-4.7875,-4.7302,-4.7276,-4.7294,-4.7294,-4.7294,-4.7223,-4.7196,-4.7133,-4.7151,-4.7151,-4.7151,-4.7151,-4.7008,-4.6758,-4.665,-4.6212,-4.541,-4.4874,-4.4414,-4.0578,-4.0552,-4.0538,-4.075,-4.0939,-4.1051,-4.0997,-4.1511,-4.2026,-4.2243,-4.2422,-4.2684,-4.3177,-4.3142,-4.2939,-4.2673,-4.2868,-4.3556,-4.5073,-4.5548,-4.7041,-5.0674,-5.2543,-5.3524,0.0,-5.3336,-5.3206,-5.3206,-5.3206,0.0,-5.3103,-5.3042,-5.2352,-5.0885,-5.0428,-4.9561,-4.8254,-4.7862,-4.7717,-4.7717,-4.8025,-4.884,-5.009,-5.0397,-5.1365,0.0,0.0,0.0,0.0,-5.4629,-5.4901,-5.4901,-5.4901,-5.4901,-5.4871,-5.4742,-5.4711,-5.4711,-5.4622,-5.459,-5.459,-5.4505,-5.4303,-5.4091,-5.4091,-5.3944,-5.3813,-5.3813,-5.3832,-5.3907,-5.3794,-5.3907,-5.4037,-5.4091,-5.4055,-5.4055,-5.4181,-5.4091,-5.4018,-5.3981,-5.3981,-5.3889,-5.3699,-5.366,-5.3602,-5.3526,-5.3285,-5.2913,-5.2399,-5.1079,-4.9942,-4.9296,-4.8161,-4.745,-4.745,-4.7407,-4.7363,-4.7363,-4.7338,-4.7312,-4.7249,-4.7267,-4.7267,-4.7267,-4.7267,-4.7223,-4.7196,-4.7088,-4.673,-4.6248,-4.5551,-4.5028,0.0,-4.0293,-4.0326,-4.1055,-4.1048,-4.0971,-4.1481,-4.218,0.0,-4.2393,-4.2596,-4.2844,-4.2844,-4.2498,-4.2216,-4.2228,-4.2792,-4.3745,-4.512,-4.6124,-4.7743,-5.0486,-5.2234,0.0,-5.3206,-5.3206,-5.3206,-5.3206,-5.3206,0.0,-5.3206,-5.3103,-5.2651,-5.1925,-5.0946,-4.9998,-4.9143,-4.8158,-4.7699,-4.7717,-4.8532,-4.9329,-5.0108,-5.0949,-5.1996,0.0,0.0,0.0,0.0,-5.4711,-5.4901,-5.4901,-5.4901,-5.4901,-5.4901,-5.4901,-5.4901,-5.4901,-5.4901,-5.4901,-5.4871,-5.468,-5.4401,-5.4108,-5.4127,-5.3981,-5.3794,-5.3813,-5.3944,-5.4055,-5.387,-5.411,-5.4356,-5.4198,-5.4268,-5.439,-5.439,-5.4409,-5.4287,-5.387,-5.3794,-5.3699,-5.3407,-5.3367,-5.3428,-5.3567,-5.3271,-5.2962,-5.2962,-5.1249,-4.9999,-4.9999,-4.8623,-4.7717,-4.7717,-4.7615,-4.7511,-4.7511,-4.7511,-4.745,-4.7302,-4.7302,-4.7302,-4.7302,-4.7302,-4.7276,-4.7196,-4.7088,-4.698,-4.6934,-4.6429,-4.6137,-3.9705,0.0,-4.0599,-4.0783,-4.1544,-4.2244,0.0,-4.2629,-4.285,-4.2759,-4.2546,-4.2378,-4.2378,-4.2279,-4.227,-4.2564,-4.2722,-4.3483,-4.5362,-4.8024,-5.0002,-5.0729,-5.2234,-5.3206,-5.3206,-5.3206,-5.3206,-5.3206,0.0,-5.3206,-5.3206,-5.3164,-5.3072,-5.2889,-5.1938,-5.0696,-4.919,-4.8182,-4.7759,-4.7861,-4.8575,-4.9329,-5.0152,-5.1244,-5.2242,0.0,0.0,0.0,-5.4349,-5.4711,-5.4901,-5.4901,-5.4901,-5.4901,-5.4901,-5.4901,-5.4901,-5.4901,-5.4901,-5.4901,-5.4871,-5.468,-5.4565,-5.4468,-5.4337,-5.4055,-5.3832,-5.3981,-5.4055,-5.4127,-5.4217,-5.4321,-5.4424,-5.4468,-5.4439,-5.4424,-5.4519,-5.4472,-5.4303,-5.3999,-5.3944,-5.3795,-5.3244,-5.3162,-5.3096,-5.2831,-5.2189,-5.1718,-5.1718,-5.025,-4.9184,-4.9184,-4.8297,-4.7717,-4.7717,-4.7657,-4.7657,-4.7657,-4.7572,-4.7511,-4.745,-4.745,-4.745,-4.745,-4.745,-4.7407,-4.7276,-4.716,-4.6916,-4.6472,-4.6266,-4.5717,-3.9773,-4.0176,-4.0606,-4.0952,-4.1625,-4.2286,-4.269,-4.2668,-4.2595,-4.2595,-4.2216,-4.1864,-4.1864,-4.219,-4.2405,-4.2364,-4.3335,-4.4688,-4.6506,-4.8862,-5.0563,-5.097,-5.2058,-5.2912,0.0,-5.3206,-5.3206,-5.3206,0.0,-5.3206,-5.3206,-5.3206,-5.3206,-5.3206,-5.2297,-5.1188,-4.9862,-4.8852,-4.8164,-4.792,-4.8937,-4.9673,-5.017,-5.1755,-5.278,0.0,0.0,0.0,-5.4597,-5.4822,-5.4901,-5.4901,-5.4901,-5.4901,-5.4901,-5.4901,-5.4901,-5.4901,-5.4901,-5.4901,-5.4871,-5.4773,-5.468,-5.4597,-5.4519,-5.4303,-5.411,-5.4217,-5.4284,-5.4352,-5.439,-5.4524,-5.4603,-5.4597,-5.4635,-5.4603,-5.45,-5.4401,-5.4196,-5.3701,-5.3586,-5.3428,-5.29,-5.2831,-5.2634,-5.2037,-5.1574,-5.1158,-5.0796,-4.9673,-4.8912,-4.8912,-4.8188,-4.7717,-4.7717,-4.7717,-4.7717,-4.7717,-4.7615,-4.7615,-4.7615,-4.7615,-4.7615,-4.7615,-4.7511,-4.745,-4.7407,-4.707,-4.6778,-4.6442,-4.5802,-4.5178,-4.0065,-4.0407,-4.0759,-4.1464,-4.1724,-4.1976,-4.2719,-4.2458,-4.2074,-4.2074,-4.1735,-4.148,-4.163,-4.2174,-4.2562,-4.2462,-4.4389,-4.6436,-4.7882,-4.9271,-5.0413,-5.1211,-5.201,0.0,-5.3164,-5.3206,-5.3206,0.0,0.0,-5.3206,-5.3206,-5.3206,-5.3206,-5.3206,-5.2425,-5.1632,-5.0826,-4.9706,-4.8725,-4.792,-4.9415,-5.0115,-5.0188,-5.2236,-5.3388,-5.372,0.0,0.0,-5.4901,-5.4901,-5.4901,-5.4901,-5.4901,-5.4901,-5.4901,-5.4901,-5.4901,-5.4901,-5.4901,-5.4901,-5.4901,-5.4901,-5.4791,-5.4629,-5.4629,-5.4571,-5.4458,-5.4458,-5.4538,-5.4565,-5.4491,-5.4686,-5.4871,-5.468,-5.4791,-5.4791,-5.4382,-5.4315,-5.4069,-5.3244,-5.3096,-5.2987,-5.2572,-5.2389,-5.2082,-5.1393,-5.1086,-5.0687,-4.9999,-4.922,-4.8731,-4.8731,-4.8116,-4.7717,-4.7717,-4.7717,-4.7717,-4.7717,-4.7717,-4.7717,-4.7717,-4.7717,-4.7717,-4.7717,-4.7511,-4.7407,-4.7407,-4.6806,-4.6429,-4.6315,-4.5232,-4.4652,-3.9939,-4.0937,-4.2004,-4.2151,-4.2448,-4.2737,-4.2864,-4.2257,-4.1604,-4.1604,-4.1283,-4.1308,-4.2314,-4.2283,-4.2614,-4.427,-4.5758,-4.7169,0.0,0.0,-5.0955,-5.1784,0.0,-5.3103,-5.3206,-5.3206,-5.3206,0.0,0.0,-5.3206,-5.3206,-5.3206,-5.3206,-5.3206,-5.3036,-5.2577,-5.1811,-5.0044,-4.8771,-4.7988,-4.9507,-5.0141,-5.017,-5.253,-5.3644,-5.372,0.0,-5.4822,-5.4901,-5.4901,-5.4901,-5.4901,-5.4901,-5.4901,-5.4901,-5.4901,-5.4901,-5.4901,-5.4901,-5.4901,-5.4901,-5.4901,-5.4871,-5.4852,-5.4852,-5.4841,-5.481,-5.481,-5.473,-5.4629,-5.4791,-5.4871,-5.4901,-5.4871,-5.4871,-5.4791,-5.4382,-5.4315,-5.4069,-5.3244,-5.3096,-5.2987,-5.2572,-5.1937,-5.143,-5.1303,-5.0144,-4.9238,-4.9112,-4.8387,-4.7898,-4.7898,-4.7772,-4.7717,-4.7717,-4.7717,-4.7717,-4.7717,-4.7717,-4.7717,-4.7717,-4.7717,-4.7717,-4.7717,-4.7258,-4.6999,-4.6999,-4.631,-4.5767,-4.532,-4.491,-4.4463,-4.0643,-4.1531,-4.2294,-4.2249,-4.2573,-4.2844,-4.2595,-4.199,-4.1445,-4.1192,-4.1041,-4.119,-4.2137,-4.2718,-4.3693,-4.5693,-4.6307,-4.6991,-4.8402,-4.9138,-5.007,0.0,0.0,-5.2563,-5.3164,-5.3206,0.0,0.0,0.0,0.0,-5.3206,-5.3206,-5.3206,-5.3206,-5.3206,-5.2821,-5.1995,-5.0721,-4.9735,-4.9045,-4.9773,-5.0253,-5.0506,-5.271,-5.3683,-5.3758,0.0,-5.4901,-5.4901,-5.4901,-5.4901,-5.4901,-5.4901,-5.4901,-5.4901,-5.4901,-5.4901,-5.4901,-5.4901,-5.4901,-5.4901,-5.4901,-5.4901,-5.4901,-5.4901,-5.4901,-5.4901,-5.4901,-5.4822,-5.4791,-5.4871,-5.4901,-5.4901,-5.4901,-5.4901,-5.4711,-5.4104,-5.3961,-5.3739,-5.2944,-5.2761,-5.2589,-5.1964,-5.1538,-5.0995,-5.0126,-4.9383,-4.8749,-4.8315,-4.7935,-4.7717,-4.7717,-4.7717,-4.7717,-4.7717,-4.7717,-4.7717,-4.7717,-4.7717,-4.7717,-4.7717,-4.7717,-4.7554,-4.7258,-4.7017,-4.6753,-4.6454,-4.5868,-4.5459,-4.5214,-4.4708,-4.4293,-4.1343,-4.1941,-4.225,-4.2217,-4.2458,-4.2634,-4.2157,-4.1709,-4.1335,-4.119,-4.1147,-4.1471,-4.2514,-4.3633,-4.4924,-4.6324,-4.6504,-4.6973,-4.8393,-4.8745,-4.9533,-5.139,-5.1701,-5.2108,-5.2912,0.0,0.0,0.0,0.0,0.0,-5.3206,-5.3206,-5.3206,-5.3206,-5.3206,-5.2913,-5.2289,-5.1544,-5.0837,-5.0176,-5.0213,-5.0537,-5.1209,-5.2958,-5.3796,-5.3906,-5.461,-5.4901,-5.4901,-5.4901,-5.4901,-5.4901,-5.4901,-5.4901,-5.4901,-5.4901,-5.4901,-5.4901,-5.4901,-5.4901,-5.4901,-5.4901,-5.4901,-5.4901,-5.4901,-5.4901,-5.4901,-5.4901,-5.4901,-5.4871,-5.4791,-5.4822,-5.4852,-5.4661,-5.468,-5.4533,-5.372,-5.3567,-5.3348,-5.2645,-5.2353,-5.2009,-5.1393,-5.0977,-5.0325,-4.9094,-4.8749,-4.8405,-4.779,-4.7717,-4.7717,-4.7717,-4.7717,-4.7717,-4.7717,-4.7717,-4.7657,-4.7511,-4.7511,-4.7468,-4.732,-4.732,-4.7107,-4.6707,-4.6613,-4.631,-4.59,-4.5372,-4.5125,-4.5125,-4.4558,-4.4253,-4.156,-4.1911,-4.2208,-4.2198,-4.2216,-4.2115,-4.1648,-4.1255,-4.1108,-4.1767,-4.1905,-4.2483,-4.4458,-4.5466,-4.593,-4.5648,-4.6529,-4.7653,-4.8941,0.0,-5.0606,-5.1512,-5.206,-5.2361,0.0,0.0,0.0,0.0,0.0,0.0,-5.3206,-5.3206,-5.3206,-5.3206,-5.3206,-5.3188,-5.3115,-5.2557,-5.1843,-5.1028,-5.0714,-5.1259,-5.258,-5.3532,-5.4121,-5.4359,-5.4814,-5.496,-5.4901,-5.4901,-5.4901,-5.4901,-5.4901,-5.4901,-5.4901,-5.4901,-5.4901,-5.4901,-5.4901,-5.4901,-5.4901,-5.4901,-5.4901,-5.4901,-5.4901,-5.4901,-5.4901,-5.4901,-5.4901,-5.4822,-5.4449,-5.4616,-5.4711,-5.3943,-5.4069,-5.4123,-5.3326,-5.312,-5.303,-5.2572,-5.19,-5.1357,-5.1303,-5.0071,-4.9039,-4.8931,-4.8279,-4.7772,-4.7717,-4.7717,-4.7717,-4.7717,-4.7717,-4.7717,-4.7717,-4.7717,-4.7511,-4.6999,-4.6954,-4.6753,-4.6262,-4.6213,-4.6213,-4.6165,-4.5648,-4.5407,-4.5355,-4.4906,-4.4682,-4.4609,-4.4423,-4.4253,-4.1551,-4.1884,-4.2032,-4.122,-4.1551,-4.2111,-4.2209,-4.2107,-4.2166,-4.2659,-4.2783,-4.3026,-4.3975,-4.4768,-4.5232,-4.5001,-4.6063,-4.7178,-4.8103,-4.8924,-4.9818,-5.0964,-5.1262,-5.1569,0.0,0.0,0.0,0.0,0.0,0.0,-5.3206,-5.3206,-5.3206,-5.3206,-5.3206,-5.3206,-5.3206,-5.271,-5.2661,-5.3099,-5.2307,-5.2339,-5.315,-5.3964,-5.4373,-5.4471,-5.4884,-5.5028,-5.499,-5.5,-5.5,-5.4941,-5.4941,-5.4931,-5.4901,-5.4901,-5.4901,-5.4901,-5.4901,-5.4901,-5.4901,-5.4901,-5.4901,-5.4901,-5.4901,-5.4901,-5.4901,-5.4901,-5.4901,-5.4852,-5.4711,-5.4597,-5.4449,-5.4158,-5.3997,-5.3777,-5.3203,-5.3096,-5.2987,-5.2572,-5.1846,-5.1122,-5.0633,-4.9637,-4.8749,-4.8242,-4.7898,-4.7717,-4.7717,-4.7717,-4.7717,-4.7717,-4.7717,-4.7717,-4.7717,-4.7407,-4.6954,-4.6454,-4.6707,-4.666,-4.6098,-4.6098,-4.595,-4.5614,-4.5407,-4.5178,-4.4852,-4.4665,-4.4587,-4.4587,-4.4514,-4.4327,-4.1807,-4.2036,-4.2,-4.1363,-4.1793,-4.2549,-4.3067,-4.2784,-4.2642,-4.3404,-4.3597,-4.3699,-4.3694,-4.4258,-4.4652,0.0,-4.587,-4.7131,-4.7648,-4.8562,-4.9487,-5.0439,-5.0712,0.0,0.0,0.0,0.0,0.0,0.0,0.0,0.0,-5.3206,-5.3206,-5.3206,-5.3206,-5.323,-5.3378,-5.3181,-5.3543,-5.4463,-5.3841,-5.3735,-5.405,-5.4432,-5.4647,-5.4739,-5.5,-5.5094,-5.5057,-5.5066,-5.5066,-5.5028,-5.5028,-5.5,-5.4971,-5.4971,-5.4941,-5.4931,-5.4931,-5.4931,-5.4901,-5.4901,-5.4901,-5.4901,-5.4901,-5.4901,-5.4901,-5.4901,-5.4931,-5.4931,-5.4931,-5.4711,-5.4382,-5.3997,-5.3814,-5.3547,-5.3011,-5.29,-5.2831,-5.2572,-5.1647,-5.0741,-5.018,-4.922,-4.8333,-4.779,-4.7717,-4.7717,-4.7759,-4.7717,-4.7717,-4.7717,-4.7717,-4.7717,-4.7717,-4.7214,-4.666,-4.6147,-4.631,-4.6165,-4.5631,-4.5631,-4.5425,-4.5089,-4.5089,-4.4889,-4.4587,-4.4587,-4.4587,-4.4587,-4.4587,-4.4457,-4.2472,-4.2358,-4.2181,-4.2975,-4.3164,-4.3371,-4.4113,-4.3005,-4.2307,-4.3958,-4.4538,-4.4524,-4.4088,-4.4373,0.0,-4.4105,-4.6056,-4.7717,-4.7734,-4.9045,-5.0011,-5.0011,-5.0453,0.0,0.0,0.0,0.0,0.0,0.0,0.0,0.0,-5.3206,-5.3206,-5.3206,-5.3206,-5.3359,-5.372,-5.4088,-5.4463,-5.4806,-5.5214,-5.5403,-5.5377,-5.499,-5.4943,-5.5183,-5.5183,-5.5176,-5.5094,-5.5094,-5.5094,-5.5094,-5.5094,-5.5094,-5.5094,-5.5094,-5.5057,-5.5,-5.5,-5.496,-5.4901,-5.4901,-5.4901,-5.4901,-5.4901,-5.4901,-5.4901,-5.4901,-5.4941,-5.5,-5.5,-5.4941,-5.4597,-5.3388,-5.3428,-5.3468,-5.269,-5.2498,-5.2498,-5.2498,-5.1194,-5.009,-5.009,-4.8768,-4.7717,-4.7699,-4.7699,-4.7759,-4.7861,-4.7759,-4.7717,-4.7717,-4.7717,-4.7699,-4.7699,-4.7214,-4.666,-4.6116,-4.5614,-4.5072,-4.4626,-4.4587,-4.4587,-4.4587,-4.4587,-4.4587,-4.4587,-4.4587,-4.4587,-4.4587,-4.4587,-4.4497,-4.1308,-4.1801,-4.233,-4.2255,-4.2605,-4.3078,-4.3335,-4.3217,-4.3339,-4.4394,-4.4389,-4.4145,-4.403,-4.4128,0.0,-4.475,-4.6167,-4.7518,-4.8351,-4.9355,-5.0011,-5.0011,-5.0149,0.0,0.0,0.0,0.0,0.0,0.0,0.0,0.0,-5.3206,-5.3206,-5.3206,-5.3206,-5.3359,-5.372,-5.4088,-5.4463,-5.4806,-5.5214,-5.5403,-5.5403,-5.5286,-5.526,-5.5339,-5.5339,-5.5267,-5.5176,-5.5176,-5.5176,-5.5176,-5.5176,-5.5149,-5.5094,-5.5094,-5.5094,-5.5066,-5.5066,-5.5057,-5.5057,-5.5057,-5.5057,-5.5057,-5.5057,-5.5057,-5.5057,-5.5057,-5.5038,-5.5066,-5.5066,-5.5057,-5.4874,-5.419,-5.3758,-5.3407,-5.3133,-5.2893,-5.269,-5.269,-5.1879,-5.0987,-5.0398,-4.9476,-4.8584,-4.802,-4.7929,-4.7929,-4.797,-4.7884,-4.7861,-4.7861,-4.7407,-4.7151,-4.7151,-4.631,-4.5716,-4.5563,-4.5089,-4.4776,-4.4643,-4.4587,-4.4587,-4.4587,-4.4587,-4.4587,-4.4587,-4.4587,-4.4587,-4.4587,-4.4587,-4.4497,-4.1984,-4.2477,-4.2901,-4.2735,-4.3042,-4.332,-4.3132,-4.3417,-4.3833,-4.4085,-4.3898,-4.3722,-4.3722,-4.3722,0.0,-4.4737,-4.5874,-4.7089,-4.8357,-4.9186,-4.9742,-4.9935,0.0,0.0,0.0,0.0,0.0,0.0,0.0,0.0,0.0,-5.3206,-5.3206,-5.3206,-5.3336,-5.3563,-5.3925,-5.4311,-5.4673,-5.5038,-5.5286,-5.5403,-5.5403,-5.5403,-5.5403,-5.5403,-5.5403,-5.5358,-5.5294,-5.5294,-5.5294,-5.5294,-5.5294,-5.5267,-5.5214,-5.5214,-5.5195,-5.5149,-5.5149,-5.5121,-5.5094,-5.5094,-5.5094,-5.5094,-5.5094,-5.5094,-5.5094,-5.5094,-5.5121,-5.5149,-5.5149,-5.5195,-5.5113,-5.4554,-5.405,-5.3586,-5.3385,-5.3048,-5.2806,-5.2806,-5.2149,-5.1456,-5.0964,-4.9943,-4.9049,-4.8539,-4.8251,-4.805,-4.7992,-4.8028,-4.7925,-4.7699,-4.7302,-4.6972,-4.6788,-4.5935,-4.5442,-4.5442,-4.4906,-4.4587,-4.4587,-4.4587,-4.4587,-4.4587,-4.4587,-4.4587,-4.4587,-4.4587,-4.4587,-4.4587,-4.4587,-4.4514,-4.3558,-4.369,-4.3656,-4.3863,-4.3914,-4.3781,-4.3366,-4.3562,-4.3781,-4.3366,-4.3306,-4.3306,-4.3306,-4.3355,-4.3652,-4.4377,-4.5474,-4.6713,-4.8014,-4.877,-4.9394,-4.9935,0.0,0.0,0.0,0.0,0.0,0.0,0.0,0.0,0.0,-5.3206,-5.3206,-5.3206,-5.3524,-5.3907,-5.4315,-5.4623,-5.499,-5.5403,-5.5403,-5.5403,-5.5403,-5.5403,-5.5403,-5.5403,-5.5403,-5.5403,-5.5403,-5.5403,-5.5403,-5.5403,-5.5403,-5.5403,-5.5403,-5.5403,-5.5313,-5.5229,-5.5229,-5.5176,-5.514,-5.514,-5.514,-5.514,-5.514,-5.514,-5.514,-5.514,-5.5176,-5.5229,-5.5229,-5.5313,-5.526,-5.4727,-5.4292,-5.3925,-5.3547,-5.3157,-5.2824,-5.2824,-5.2266,-5.1736,-5.1663,-5.0368,-4.9309,-4.9163,-4.8605,-4.8187,-4.8032,-4.813,-4.797,-4.7407,-4.7258,-4.7035,-4.659,-4.5938,-4.5529,-4.5529,-4.4978,-4.4626,-4.4626,-4.4643,-4.4587,-4.4587,-4.4587,-4.4587,-4.4587,-4.4587,-4.4587,-4.4587,-4.4587,-4.4587,-4.2101,-4.2841,-4.3556,-4.3453,-4.3426,-4.3323,-4.2851,-4.2805,-4.2974,-4.3246,-4.3306,-4.3306,-4.3306,-4.3784,-4.441,-4.5118,-4.6003,-4.7112,-4.8717,-4.9093,-4.9394,0.0,0.0,0.0,0.0,0.0,0.0,0.0,0.0,0.0,-5.3206,-5.3206,-5.3206,-5.3206,-5.3524,-5.3907,-5.4315,-5.4623,-5.499,0.0,-5.5403,-5.5403,-5.5403,-5.5403,-5.5403,-5.5403,-5.5403,-5.5403,-5.5403,-5.5403,-5.5403,-5.5403,-5.5403,-5.5403,-5.5403,-5.5403,-5.5377,-5.5358,-5.5358,-5.5358,-5.5332,-5.5332,-5.5332,-5.5332,-5.5332,-5.5332,-5.5332,-5.5332,-5.5358,-5.5358,-5.5358,-5.5377,-5.5377,-5.5233,-5.4704,-5.4193,-5.4071,-5.3542,-5.3103,-5.3103,-5.2975,-5.2645,-5.2004,-5.1087,-5.0006,-4.8687,-4.8378,-4.8286,-4.8229,-4.8208,-4.8028,-4.7511,-4.7017,-4.6472,-4.602,-4.5389,-4.5032,-4.514,-4.4886,-4.4737,-4.4737,-4.4626,-4.4587,-4.4587,-4.4587,-4.4587,-4.4587,-4.4587,-4.4587,-4.4587,-4.4587,-4.4587,-4.2077,-4.2537,-4.2831,-4.2537,-4.2411,-4.2348,-4.2126,-4.2077,-4.2366,-4.329,-4.3203,-4.3072,-4.3431,-4.3807,-4.4395,-4.544,-4.5947,-4.6831,-4.8568,-4.8793,-4.9135,0.0,0.0,0.0,0.0,0.0,0.0,0.0,0.0,-5.3206,-5.3206,-5.3206,-5.3272,-5.3422,-5.3814,-5.4193,-5.4528,-5.4903,-5.5187,-5.5403,-5.5403,-5.5403,-5.5403,-5.5403,-5.5403,-5.5403,-5.5403,-5.5403,-5.5403,-5.5403,-5.5403,-5.5403,-5.5403,-5.5403,-5.5403,-5.5403,-5.5403,-5.5403,-5.5403,-5.5403,-5.5403,-5.5403,-5.5403,-5.5403,-5.5403,-5.5403,-5.5403,-5.5403,-5.5403,-5.5403,-5.5403,-5.5403,-5.5403,-5.5403,-5.4833,-5.4281,-5.4246,-5.3699,-5.3206,-5.3206,-5.3206,-5.3078,-5.2656,-5.1591,-5.038,-4.9114,-4.8563,-4.8306,-4.8306,-4.8053,-4.771,-4.724,-4.6678,-4.6151,-4.5649,-4.5247,-4.5032,-4.5086,-4.494,-4.4776,-4.4776,-4.4682,-4.4587,-4.4587,-4.4587,-4.4587,-4.4587,-4.4587,-4.4587,-4.4587,-4.4587,-4.4587,-4.2187,-4.2235,-4.1837,-4.1509,-4.1488,-4.1566,-4.1566,-4.1794,-4.2328,-4.3492,-4.325,-4.3039,-4.3767,-4.3994,-4.4447,-4.5613,-4.5905,-4.6567,-4.8189,-4.84,-4.881,0.0,0.0,0.0,0.0,0.0,0.0,0.0,0.0,-5.3206,-5.3206,-5.323,-5.34,-5.3682,-5.4158,-5.4528,-5.4806,-5.5187,-5.5403,-5.5403,-5.5403,-5.5403,-5.5403,-5.5403,-5.5403,-5.5403,-5.5403,-5.5403,-5.5403,-5.5403,-5.5403,-5.5403,-5.5403,-5.5403,-5.5403,-5.5403,-5.5403,-5.5403,-5.5403,-5.5403,-5.5403,-5.5403,-5.5403,-5.5403,-5.5403,-5.5403,-5.5403,-5.5403,-5.5403,-5.5403,-5.5403,-5.5403,-5.5377,-5.5305,-5.4784,-5.4315,-5.4315,-5.3719,-5.3206,-5.3206,-5.3206,-5.317,-5.3023,-5.1775,-5.0527,-4.9701,-4.8857,-4.8267,-4.8172,-4.7925,-4.7576,-4.7013,-4.6605,-4.6197,-4.563,-4.5386,-4.5194,-4.523,-4.4978,-4.4831,-4.4831,-4.4682,-4.4626,-4.4587,-4.4587,-4.4587,-4.4587,-4.4587,-4.4587,-4.4587,-4.4587,-4.4587,-4.0727,-4.0826,-4.0925,-4.106,-4.1513,-4.195,-4.195,-4.2916,-4.3831,-4.3858,-4.3716,-4.3783,-4.4512,-4.5127,-4.5581,-4.5775,-4.6326,-4.7155,-4.8272,-4.84,-4.881,0.0,0.0,0.0,0.0,0.0,0.0,0.0,-5.2608,-5.3206,-5.3206,-5.3462,-5.3643,-5.372,-5.4359,-5.4746,-5.4806,-5.5187,-5.5403,-5.5403,-5.5403,-5.5403,-5.5403,-5.5403,-5.5403,-5.5403,-5.5403,-5.5403,-5.5403,-5.5403,-5.5403,-5.5403,-5.5403,-5.5403,-5.5403,-5.5403,-5.5403,-5.5403,-5.5403,-5.5403,-5.5403,-5.5403,-5.5403,-5.5403,-5.5403,-5.5403,-5.5403,-5.5403,-5.5403,-5.5403,-5.5403,-5.5403,-5.5305,-5.4962,-5.4591,-5.4315,-5.4315,-5.3719,-5.3206,-5.3206,-5.3206,-5.2986,-5.227,-5.1408,-5.0527,-4.9701,-4.8857,-4.8172,-4.7733,-4.8188,-4.8237,-4.735,-4.7202,-4.6933,-4.6495,-4.5696,-4.5247,-4.5371,-4.5086,-4.4978,-4.4978,-4.4831,-4.4737,-4.4587,-4.4587,-4.4587,-4.4587,-4.4587,-4.4587,-4.4587,-4.4587,-4.4587,-4.0849,-4.1096,-4.1194,-4.1428,-4.1761,-4.1904,-4.1904,-4.2438,-4.3263,-4.4411,-4.4609,-4.4699,-4.5239,-4.5597,-4.5937,-4.6342,-4.6682,-4.727,-4.8289,-4.84,-4.881,0.0,0.0,0.0,0.0,0.0,0.0,0.0,-5.2761,-5.3206,-5.3206,-5.3336,-5.3602,-5.4016,-5.4364,-5.4735,-5.514,-5.5305,-5.5403,-5.5403,-5.5403,-5.5403,-5.5403,-5.5403,-5.5403,-5.5403,-5.5403,-5.5403,-5.5403,-5.5403,-5.5403,-5.5403,-5.5403,-5.5403,-5.5403,-5.5403,-5.5403,-5.5403,-5.5403,-5.5403,-5.5403,-5.5403,-5.5403,-5.5403,-5.5403,-5.5403,-5.5403,-5.5403,-5.5403,-5.5332,-5.5113,-5.5066,-5.4962,-5.4591,-5.4262,-5.3961,-5.3961,-5.3582,-5.3206,-5.3206,-5.3206,-5.3096,-5.2729,-5.2013,-5.1353,-5.0986,-5.0233,-4.9523,-4.901,-4.8956,-4.8561,-4.7395,-4.7038,-4.6638,-4.5975,-4.556,-4.5371,-4.5371,-4.5157,-4.4978,-4.4978,-4.4776,-4.4682,-4.4587,-4.4587,-4.4587,-4.4587,-4.4587,-4.4587,-4.457,-4.4179,-4.3972,-4.0227,-4.0551,-4.063,-4.1174,-4.1429,-4.164,-4.1972,-4.2318,-4.3082,0.0,-4.5416,-4.5709,-4.615,-4.6218,-4.6397,-4.6949,-4.703,-4.7404,-4.8463,-4.8589,-4.8978,0.0,0.0,0.0,0.0,0.0,0.0,0.0,-5.2912,-5.3206,-5.3206,-5.3272,-5.3621,-5.4281,-5.4364,-5.4754,-5.5403,-5.5403,-5.5403,-5.5403,-5.5403,-5.5403,-5.5403,-5.5403,-5.5403,-5.5403,-5.5403,-5.5403,-5.5403,-5.5403,-5.5403,-5.5403,-5.5403,-5.5403,-5.5403,-5.5403,-5.5403,-5.5403,-5.5403,-5.5403,-5.5403,-5.5403,-5.5403,-5.5403,-5.5403,-5.5403,-5.5377,-5.5286,-5.526,-5.5159,-5.4746,-5.4685,-5.4572,-5.4228,-5.3907,-5.3682,-5.3584,-5.3359,-5.3206,-5.3206,-5.3206,-5.3206,-5.3206,-5.2527,-5.1995,-5.1995,-5.1316,-5.0561,-4.9884,-4.9643,-4.9057,-4.7805,-4.7174,-4.6648,-4.6061,-4.5648,-4.5423,-4.5423,-4.5157,-4.4978,-4.4978,-4.4737,-4.4587,-4.4587,-4.4587,-4.4587,-4.4587,-4.4587,-4.4587,-4.457,-4.3839,-4.3512,-3.7715,-3.7785,-3.8117,-3.9367,-4.0242,-4.0945,-4.2127,-4.338,-4.4569,-4.5269,-4.6008,-4.6673,-4.727,-4.7421,-4.7421,-4.747,-4.747,-4.782,-4.8927,-4.905,-4.9368,0.0,0.0,0.0,0.0,0.0,0.0,0.0,-5.2912,-5.3206,-5.3206,-5.3484,-5.387,-5.4281,-5.4623,-5.4962,-5.5403,-5.5403,-5.5403,-5.5403,-5.5403,-5.5403,-5.5403,-5.5403,-5.5403,-5.5403,-5.5403,-5.5403,-5.5403,-5.5403,-5.5403,-5.5403,-5.5403,-5.5403,-5.5403,-5.5403,-5.5403,-5.5403,-5.5403,-5.5403,-5.5403,-5.5403,-5.5403,-5.5403,-5.5403,-5.5403,-5.5332,-5.4933,-5.4836,-5.4746,-5.4397,-5.4349,-5.4228,-5.3833,-5.372,-5.3623,-5.3295,-5.3206,-5.3206,-5.3206,-5.3206,-5.3206,-5.3206,-5.2527,-5.1995,-5.1995,-5.1316,-5.0399,-4.9399,-4.987,-4.9935,-4.8868,-4.8062,-4.7648,-4.7596,-4.6268,-4.5423,-4.5423,-4.5157,-4.4978,-4.4978,-4.4737,-4.4587,-4.4587,-4.4587,-4.4587,-4.4587,-4.4587,-4.4587,-4.457,-4.3839,-4.3512,-3.8619,-3.8344,-3.8182,-3.9492,-4.0503,-4.1338,-4.1776,-4.2867,-4.4066,-4.5332,-4.5841,-4.6356,-4.7588,-4.7687,-4.7486,-4.7486,-4.782,-4.8289,-4.8989,-4.9487,-4.993,-5.0341,0.0,0.0,0.0,0.0,0.0,0.0,0.0,-5.3206,-5.3206,-5.3295,-5.3524,-5.3907,-5.4277,-5.4784,-5.5403,-5.5403,-5.5403,-5.5403,-5.5403,-5.5403,-5.5403,-5.5403,-5.5403,-5.5403,-5.5415,-5.5396,-5.5396,-5.5396,-5.5421,-5.547,-5.5421,-5.5396,-5.5396,-5.5384,-5.5409,-5.5396,-5.5384,-5.5409,-5.5396,-5.5384,-5.5403,-5.5358,-5.5094,-5.499,-5.4933,-5.4591,-5.4463,-5.4397,-5.3997,-5.3888,-5.3833,-5.3462,-5.3422,-5.3422,-5.3248,-5.3206,-5.3206,-5.3206,-5.3206,-5.3206,-5.3206,-5.2968,-5.2766,-5.2766,-5.2236,-5.1556,-5.0843,-5.071,-5.0188,-4.8929,-4.8165,-4.7527,-4.7044,-4.6027,-4.5371,-4.53,-4.5086,-4.4978,-4.4886,-4.4682,-4.4587,-4.4587,-4.4587,-4.4587,-4.4587,-4.4587,-4.4367,-4.3914,-4.3196,-4.2583,-3.8289,-3.803,-3.7861,-3.9006,-3.9871,-4.0632,-4.142,-4.2423,-4.3554,-4.502,-4.5478,-4.6056,-4.7337,-4.7437,-4.737,-4.7604,-4.8194,-4.8759,-4.9291,-4.9896,-5.0401,-5.0509,0.0,0.0,0.0,0.0,0.0,0.0,0.0,0.0,-5.3206,-5.3206,-5.3359,-5.3682,-5.4209,-5.4704,-5.5187,-5.5332,-5.5403,-5.5403,-5.5403,-5.5403,-5.5403,-5.5403,-5.5403,-5.5403,-5.5402,-5.5408,-5.5408,-5.5432,-5.5456,-5.5504,-5.5456,-5.5432,-5.5432,-5.5421,-5.5446,-5.5432,-5.5421,-5.5352,-5.5281,-5.5267,-5.514,-5.5009,-5.4735,-5.4623,-5.456,-5.4193,-5.4088,-5.4016,-5.3623,-5.3524,-5.3484,-5.3295,-5.3295,-5.3277,-5.3206,-5.3206,-5.3206,-5.3206,-5.3206,-5.323,-5.3206,-5.3206,-5.323,-5.3206,-5.2761,-5.2221,-5.1651,-5.1105,-5.041,-4.9326,-4.8321,-4.751,-4.7027,-4.6027,-4.5371,-4.5247,-4.5086,-4.4978,-4.4886,-4.4682,-4.4587,-4.4587,-4.4587,-4.4587,-4.4587,-4.4587,-4.4236,-4.3512,-4.2769,-4.182,0.0,0.0,0.0,-3.7756,-3.8107,-3.8725,-4.0986,-4.2173,-4.312,-4.4251,-4.511,-4.5913,-4.6673,-4.6811,-4.7101,-4.7853,-4.8497,-4.911,-4.9688,-5.0384,-5.082,-5.0803,0.0,0.0,0.0,0.0,0.0,0.0,-5.3206,-5.3206,-5.3206,-5.3206,-5.3359,-5.3682,-5.4392,-5.4776,-5.4776,-5.5187,-5.5377,-5.5377,-5.5377,-5.5403,-5.5403,-5.5403,-5.5403,-5.5403,-5.5402,-5.5408,-5.5408,-5.548,-5.5504,-5.5504,-5.5504,-5.5504,-5.5504,-5.5504,-5.548,-5.548,-5.548,-5.5288,-5.5066,-5.4924,-5.4647,-5.4378,-5.4296,-5.4315,-5.4193,-5.3795,-5.3682,-5.3623,-5.3314,-5.3206,-5.323,-5.3277,-5.33,-5.3277,-5.3206,-5.3206,-5.3206,-5.3206,-5.3254,-5.3295,-5.3206,-5.3254,-5.3277,-5.3206,-5.2717,-5.2155,-5.1669,-5.1105,-5.0564,-5.0051,-4.8631,-4.7717,-4.7717,-4.6303,-4.5423,-4.5371,-4.5157,-4.4978,-4.4978,-4.4737,-4.4587,-4.4587,-4.457,-4.457,-4.457,-4.457,-4.4236,-4.3436,-4.2645,-4.1311,-3.6358,0.0,0.0,0.0,0.0,0.0,-3.889,0.0,-4.2202,-4.3056,-4.4569,-4.5913,-4.6673,-4.727,-4.7704,-4.7935,-4.8497,-4.8944,-4.911,-5.0085,-5.0677,-5.0477,0.0,0.0,0.0,0.0,0.0,0.0,-5.3212,-5.3277,-5.3277,-5.323,-5.3359,-5.3682,-5.3888,-5.4139,-5.443,-5.4546,-5.4754,-5.4962,-5.5019,-5.5168,-5.5403,-5.5446,-5.5451,-5.5421,-5.5504,-5.5413,-5.5262,-5.5461,-5.5596,-5.564,-5.5596,-5.5573,-5.5551,-5.5307,-5.5236,-5.5236,-5.4943,-5.4825,-5.4795,-5.4704,-5.461,-5.4482,-5.4193,-5.4069,-5.4016,-5.3545,-5.3502,-5.3502,-5.3318,-5.3336,-5.3418,-5.3318,-5.33,-5.33,-5.3295,-5.323,-5.3206,-5.3206,-5.3206,-5.323,-5.3206,-5.3206,-5.3085,-5.2654,-5.2155,-5.1619,-5.1105,-5.0564,-5.0149,-5.0011,-4.8631,-4.7717,-4.7717,-4.6303,-4.5371,-4.5247,-4.5086,-4.494,-4.4886,-4.4682,-4.4587,-4.4587,-4.4105,-4.3781,-4.3839,-4.4367,-4.3989,-4.2769,-4.1327,-4.0385,-3.6452,-3.6358,-3.6358,-3.6358,0.0,0.0,-3.8649,-4.0377,-4.2195,0.0,-4.4943,-4.6253,-4.6742,-4.7186,-4.7621,-4.7935,-4.8275,-4.8606,-4.8883,-4.978,-5.0366,-5.0293,0.0,0.0,0.0,-5.1701,-5.2012,-5.2545,-5.2813,-5.3005,-5.3254,-5.323,-5.3314,-5.3502,-5.3623,-5.3814,-5.4052,-5.4262,-5.4444,-5.4635,-5.4666,-5.4806,-5.5076,-5.5056,-5.5064,-5.5083,-5.5191,-5.5138,-5.5,-5.5191,-5.5275,-5.5301,-5.5275,-5.5269,-5.5224,-5.5056,-5.5,-5.5,-5.4765,-5.4642,-5.4528,-5.4411,-5.4315,-5.4161,-5.3795,-5.3738,-5.37,-5.3381,-5.34,-5.3499,-5.3459,-5.3499,-5.3499,-5.34,-5.3418,-5.3418,-5.3295,-5.3295,-5.3314,-5.3206,-5.323,-5.317,-5.2912,-5.2893,-5.2725,-5.2155,-5.1619,-5.1158,-5.0857,-5.0359,-5.0011,-5.0011,-4.8631,-4.7717,-4.7717,-4.6303,-4.5371,-4.5194,-4.5086,-4.4923,-4.4776,-4.4682,-4.444,-4.4179,-4.3706,-4.3376,-4.3075,-4.3529,-4.3092,-4.182,-4.0578,-3.9925,-3.6452,-3.6452,-3.6358,-3.6358,-3.6358,0.0,-3.9197,-4.0816,-4.229,0.0,-4.5358,-4.6448,-4.6448,-4.6518,-4.6811,-4.7555,-4.777,-4.8081,-4.8714,-4.9291,-4.9821,-5.022,0.0,0.0,-5.1518,-5.1416,-5.15,-5.2012,-5.225,-5.2608,-5.306,-5.3103,-5.3121,-5.3206,-5.3502,-5.3643,-5.3643,-5.4069,-5.4311,-5.4345,-5.4472,-5.4595,-5.4729,-5.4627,-5.4627,-5.4742,-5.4742,-5.4685,-5.4654,-5.4716,-5.4776,-5.4806,-5.4806,-5.4806,-5.4806,-5.4746,-5.4746,-5.4746,-5.4716,-5.4495,-5.4228,-5.4086,-5.3907,-5.3656,-5.3418,-5.344,-5.3481,-5.34,-5.344,-5.3539,-5.3656,-5.3598,-5.3499,-5.3499,-5.3558,-5.3576,-5.329,-5.3295,-5.3318,-5.3146,-5.3212,-5.3091,-5.2481,-5.2445,-5.2289,-5.1601,-5.1105,-5.0766,-5.0712,-5.0302,-5.0011,-5.0011,-4.8631,-4.7717,-4.7717,-4.6303,-4.5371,-4.5194,-4.5086,-4.4923,-4.4776,-4.4609,-4.4179,-4.3512,-4.3317,-4.2953,-4.2269,-4.2332,-4.1885,-4.1008,-4.0316,-3.9783,-3.6628,-3.6546,-3.6358,-3.6358,-3.6358,0.0,-3.7887,-3.9129,-4.032,0.0,-4.313,-4.4464,-4.4464,-4.4958,-4.5368,-4.5586,-4.6276,-4.7101,-4.8033,-4.8668,-4.9291,-4.9804,0.0,0.0,-5.1622,-5.1884,-5.2042,-5.2137,-5.2203,-5.2343,-5.2563,-5.2563,-5.2761,-5.3164,-5.3272,-5.3314,-5.3314,-5.3462,-5.3662,-5.3999,-5.4832,-5.5326,-5.5578,-5.5637,-5.5668,-5.5599,-5.503,-5.4623,-5.4364,-5.4397,-5.456,-5.4806,-5.4806,-5.4806,-5.4776,-5.4495,-5.4397,-5.4364,-5.4089,-5.3963,-5.3889,-5.3813,-5.3774,-5.3736,-5.3637,-5.3676,-5.3736,-5.3717,-5.36,-5.3499,-5.3539,-5.344,-5.3359,-5.3481,-5.3396,-5.3332,-5.3418,-5.3005,-5.259,-5.2563,-5.2912,-5.3066,-5.2581,-5.2463,-5.209,-5.1105,-5.0857,-5.0657,-5.0206,-5.0051,-5.0011,-5.0011,-4.8631,-4.7717,-4.7717,-4.6303,-4.5371,-4.5194,-4.5086,-4.4923,-4.4776,-4.4088,-4.3647,-4.3512,-4.2458,-4.1591,-4.0904,-4.1327,-4.1459,-4.1209,-4.0231,-3.9696,-3.6909,-3.664,0.0,-3.6546,0.0,0.0,0.0,-3.9027,-4.0363,-4.1446,-4.3165,-4.4433,-4.4433,-4.4794,-4.5001,-4.5001,-4.5834,-4.6657,-4.7033,-4.7918,-4.8793,-4.9688,-5.0124,0.0,-5.164,-5.1705,-5.1736,-5.1701,-5.1601,-5.1651,-5.1964,-5.2012,-5.2268,-5.2761,-5.3251,-5.3646,-5.3897,-5.4414,-5.4803,-5.5001,-5.5508,-5.5865,-5.6068,-5.6048,-5.6084,-5.6065,-5.5256,-5.4811,-5.4633,-5.4222,-5.4142,-5.4315,-5.4315,-5.4315,-5.4281,-5.4125,-5.4054,-5.4036,-5.387,-5.3813,-5.3774,-5.3734,-5.3734,-5.3716,-5.3558,-5.3521,-5.3561,-5.3639,-5.3579,-5.3499,-5.3499,-5.344,-5.34,-5.34,-5.3277,-5.3091,-5.3005,-5.2635,-5.225,-5.2054,-5.2232,-5.225,-5.1714,-5.1633,-5.1314,-5.0509,-5.0415,-5.0302,-5.0051,-5.0011,-5.0011,-5.0011,-4.8631,-4.7717,-4.7717,-4.6249,-4.5247,-4.514,-4.4978,-4.4686,-4.4145,-4.3764,-4.3196,-4.252,-4.1525,-4.0836,-4.0524,-4.0578,-4.0631,-4.0646,-4.0036,-3.9625,0.0,0.0,0.0,0.0,0.0,-3.6803,0.0,0.0,0.0,-4.2062,-4.3449,-4.4418,-4.4418,0.0,0.0,0.0,0.0,0.0,0.0,-4.6645,0.0,-4.9334,-4.9688,0.0,-5.1331,-5.1245,-5.114,-5.1105,-5.0785,-5.0839,-5.1398,-5.1467,-5.1719,-5.2315,-5.3098,-5.3735,-5.4099,-5.5189,-5.5743,-5.5683,-5.6057,-5.6325,-5.6385,-5.6307,-5.6284,-5.6247,-5.5395,-5.5025,-5.497,-5.4155,-5.3915,-5.4026,-5.379,-5.3717,-5.3678,-5.3639,-5.36,-5.36,-5.3678,-5.3639,-5.36,-5.3539,-5.34,-5.3258,-5.3096,-5.3096,-5.3198,-5.33,-5.3341,-5.3341,-5.344,-5.3359,-5.33,-5.3318,-5.3115,-5.2864,-5.2481,-5.2137,-5.1831,-5.1579,-5.1432,-5.121,-5.0893,-5.0803,-5.0602,-5.0051,-5.0011,-5.0011,-5.0011,-5.0011,-4.9942,-4.9804,-4.8488,-4.7593,-4.7438,-4.6038,-4.5069,-4.4978,-4.4759,-4.4259,-4.3512,-4.3257,-4.2504,-4.1327,-4.0783,-4.0455,-4.047,-4.0137,-4.0011,-3.9996,-3.9768,-3.9553,0.0,0.0,0.0,0.0,-3.7374,0.0,0.0,0.0,-3.9885,-4.1771,0.0,-4.2474,-4.2474,0.0,0.0,0.0,0.0,0.0,-4.3107,-4.4332,-4.6141,-4.8303,-4.9274,0.0,0.0,-5.0624,-5.0642,-5.0857,-5.0142,-5.0067,-5.0857,-5.091,-5.1262,-5.2012,-5.2444,-5.2526,-5.23,-5.3744,-5.4411,-5.4162,-5.5974,-5.6823,-5.6823,-5.6823,-5.6628,-5.6254,-5.545,-5.5103,-5.5049,-5.4227,-5.4318,-5.4829,-5.3768,-5.3359,-5.33,-5.3023,-5.2893,-5.298,-5.3258,-5.3133,-5.2875,-5.282,-5.2391,-5.1952,-5.2047,-5.2391,-5.2784,-5.2802,-5.2696,-5.2696,-5.3198,-5.2919,-5.2635,-5.3175,-5.2857,-5.2481,-5.249,-5.1665,-5.0964,-5.0893,-5.0492,-5.0341,-5.084,-5.0822,-5.0602,-5.0051,-5.0011,-5.0011,-5.0011,-5.0011,-4.9735,-4.9028,-4.8105,-4.7202,-4.6536,-4.5566,-4.4995,-4.4831,-4.4276,-4.3781,-4.3512,-4.2332,-4.1409,-4.0662,-4.0524,-4.047,-4.0347,-4.0137,-4.0011,-3.9996,-3.964,-3.9409,0.0,0.0,0.0,0.0,0.0,0.0,-3.9623,0.0,-4.026,0.0,0.0,0.0,0.0,0.0,0.0,0.0,-4.2693,0.0,0.0,0.0,-4.5451,0.0,0.0,0.0,0.0,0.0,0.0,0.0,-4.9896,-4.9664,-4.9873,-5.0307,-5.0803,-5.1314,-5.1961,-5.2494,-5.2822,-5.3979,-5.4866,-5.5386,-5.6218,-5.685,-5.7308,-5.7308,-5.7214,-5.7018,-5.615,-5.5785,-5.5731,-5.4929,-5.4802,-5.5039,-5.4337,-5.3881,-5.3584,-5.3014,-5.2806,-5.2806,-5.2733,-5.2626,-5.249,-5.2206,-5.1874,-5.1665,-5.1714,-5.1861,-5.2054,-5.2054,-5.2006,-5.2024,-5.2278,-5.2137,-5.1994,-5.226,-5.1994,-5.1651,-5.1515,-5.1052,-5.0509,-5.0359,-5.0149,-5.0092,-5.0324,-5.0324,-5.0263,-5.0051,-5.0011,-5.0011,-5.0011,-5.0011,-4.97,-4.8907,-4.7997,-4.7168,-4.6361,-4.5405,-4.4886,-4.4776,-4.3706,-4.3015,-4.2953,-4.1641,-4.0783,-4.0524,-4.0401,-4.0347,-4.0277,-3.998,-3.9839,-3.9839,-3.9568,-3.9424,-3.7808,0.0,0.0,0.0,0.0,0.0,0.0,0.0,0.0,0.0,0.0,0.0,0.0,0.0,-4.2034,-4.186,0.0,-4.3036,0.0,-4.359,0.0,0.0,0.0,0.0,0.0,0.0,0.0,-4.9376,-4.9231,-4.9127,-4.9178,-4.9732,-5.0268,-5.0657,-5.1421,-5.2059,-5.2573,-5.3711,-5.4659,-5.5354,-5.5734,-5.6327,-5.711,-5.711,-5.7188,-5.722,-5.6604,-5.6332,-5.6278,-5.548,-5.5233,-5.5395,-5.4684,-5.4386,-5.4157,-5.3179,-5.2625,-5.2379,-5.2196,-5.2047,-5.1838,-5.1479,-5.126,-5.1158,-5.1158,-5.1262,-5.1365,-5.1365,-5.1365,-5.1398,-5.1551,-5.1518,-5.1416,-5.1569,-5.1365,-5.107,-5.0857,-5.0564,-5.0206,-5.0051,-5.0011,-5.0011,-5.0011,-5.0011,-5.0011,-5.0011,-5.0011,-5.0011,-5.0011,-4.9935,-4.9556,-4.8574,-4.782,-4.697,-4.596,-4.5192,-4.4665,-4.4463,-4.3075,-4.2205,-4.2205,-4.1091,-4.047,-4.047,-4.0277,-4.0207,-4.0121,-3.9824,-3.9696,-3.961,-3.9481,-3.9424,0.0,0.0,0.0,-3.8984,0.0,0.0,0.0,0.0,-4.1478,0.0,0.0,0.0,0.0,-4.2092,-4.1889,-4.1236,-4.1671,0.0,0.0,0.0,0.0,0.0,0.0,0.0,0.0,0.0,-4.7225,-4.7768,-4.7803,-4.8194,-4.9118,-4.9239,-4.9615,-5.0397,-5.0768,-5.0785,-5.0488,-5.2216,-5.2967,-5.2729,-5.4044,-5.5103,-5.583,-5.583,-5.6057,-5.6455,-5.642,-5.6402,-5.6348,-5.5544,-5.5687,-5.6223,-5.4616,-5.4474,-5.4991,-5.3455,-5.2248,-5.1384,-5.1719,-5.1447,-5.0858,-5.053,-5.0246,-5.0051,-5.0051,-5.0397,-5.0803,-5.0803,-5.0803,-5.0964,-5.1467,-5.121,-5.0964,-5.1467,-5.121,-5.0803,-5.0803,-5.0415,-5.0011,-5.0011,-5.0011,-5.0011,-5.0011,-5.0011,-5.0011,-5.0011,-5.0011,-5.0011,-5.0011,-4.986,-4.9142,-4.77,-4.721,-4.6408,-4.5001,-4.4699,-4.431,-4.3571,-4.2269,-4.1525,-4.1525,-4.0715,-4.0347,-4.0347,-4.0137,-3.9925,-3.9696,-3.9681,-3.9625,-3.9424,-3.9424,-3.9424,0.0,0.0,-3.8652,-3.9752,0.0,0.0,0.0,0.0,0.0,0.0,0.0,0.0,0.0,-4.2325,-4.217,-4.1787,-4.1947,-4.202,0.0,0.0,0.0,0.0,0.0,0.0,0.0,0.0,0.0,-4.7075,-4.7671,-4.8032,-4.8194,-4.8731,-4.9161,-4.9615,-4.9739,-4.9988,-5.0415,-5.0957,-5.1652,-5.2466,-5.2908,-5.3669,-5.4629,-5.5167,-5.5455,-5.5651,-5.6169,-5.6401,-5.6383,-5.6115,-5.6151,-5.6347,-5.5794,-5.5437,-5.5027,-5.3816,-5.3158,-5.2696,-5.1897,-5.106,-5.0285,-5.0149,-5.0051,-5.0011,-5.0011,-5.0109,-5.0246,-5.0246,-5.0246,-5.0302,-5.0509,-5.0415,-5.0302,-5.0509,-5.0397,-5.0246,-5.0246,-5.0109,-5.0011,-5.0011,-5.0011,-5.0011,-5.0011,-5.0011,-5.0011,-5.0011,-5.0011,-5.0011,-5.0011,-4.9842,-4.9142,-4.7665,-4.7193,-4.6408,-4.4912,-4.4219,-4.3588,-4.2892,-4.2029,-4.1459,-4.1393,-4.0646,-4.0277,-4.0066,-3.991,-3.9768,-3.9681,-3.9553,-3.9481,-3.9424,-3.9424,-3.9424,-3.79,-3.8148,0.0,-3.9414,-4.0287,0.0,-4.1976,0.0,0.0,0.0,0.0,0.0,0.0,0.0,-4.2325,-4.2242,-4.2175,-4.2092,0.0,-4.2092,0.0,0.0,0.0,0.0,0.0,-4.4732,-4.5206,-4.6405,-4.6936,-4.7406,0.0,0.0,-4.8606,-4.8934,-4.8934,-4.9161,-4.9656,-4.9791,-5.0402,-5.1433,-5.1614,-5.2307,-5.3442,-5.4082,-5.4688,-5.5241,-5.5758,-5.6133,-5.6401,-5.6273,-5.6217,-5.6217,-5.6106,-5.5656,-5.4903,-5.4234,-5.3664,-5.3141,-5.212,-5.117,-5.039,-5.039,-5.0218,-5.0011,-5.0011,-5.0011,-5.0011,-5.0011,-5.0011,-5.0011,-5.0011,-5.0011,-5.0011,-5.0011,-5.0011,-5.0011,-5.0011,-5.0011,-5.0011,-5.0011,-5.0011,-5.0011,-5.0011,-5.0011,-5.0011,-5.0011,-5.0011,-4.9993,-4.9918,-4.9725,-4.9025,-4.7478,-4.6869,-4.5892,-4.4147,-4.3273,-4.2707,-4.252,-4.1641,-4.1209,-4.1276,-4.0578,-4.0173,-4.0273,-3.9817,-3.9745,-3.9971,-3.9601,-3.9424,-3.9424,-3.9424,-3.9424]}]]